[[{"header":{"parameterUnit":"m.s-1","parameterCategory":1,"la1":30.6,"la2":28.766,"lo1":-90.7593,"lo2":-88.6598,"dy":0.0162,"dx":0.0183,"nx":116,"ny":114,"refTime":"2024-05-26T06:00:00:Z","depth":0,"parameterNumber":2,"parameterNumberName":"U-component_of_WINDS"},"data":[0.0,0.0,0.0,0.0,0.0,0.0,0.0,0.0,0.0,0.0,0.0,0.0,0.0,0.0,0.0,0.0,0.0,0.0,0.0,0.0,0.0,0.0,0.0,0.0,0.0,0.0,0.0,0.0,0.0,0.0,0.0,0.0,0.0,0.0,0.0,0.0,0.0,0.0,0.0,0.0,0.0,0.0,0.0,0.0,0.0,0.0,0.0,0.0,0.0,0.0,0.0,0.0,0.0,0.0,0.0,0.0,0.0,0.0,0.0,0.0,0.0,0.0,0.0,0.0,0.0,0.0,0.0,0.0,0.0,0.0,0.0,0.0,0.0,0.0,0.0,0.0,0.0,0.0,0.0,0.0,0.0,0.0,0.0,0.0,0.0,0.0,0.0,0.0,0.0,0.0,0.0,0.0,0.0,0.0,0.0,0.0,0.0,0.0,0.0,0.0,0.0,0.0,0.0,0.0,0.0,0.0,0.0,0.0,0.0,0.0,0.0,0.0,0.0,0.0,0.0,0.0,0.0,0.0,0.0,0.0,0.0,0.0,0.0,0.0,0.0,0.0,0.0,0.0,0.0,0.0,0.0,0.0,0.0,0.0,0.0,0.0,0.0,0.0,0.0,0.0,0.0,0.0,0.0,0.0,0.0,0.0,0.0,0.0,0.0,0.0,0.0,0.0,0.0,0.0,0.0,0.0,0.0,0.0,0.0,0.0,0.0,0.0,0.0,0.0,0.0,0.0,0.0,0.0,0.0,0.0,0.0,0.0,0.0,0.0,0.0,0.0,0.0,0.0,0.0,0.0,0.0,0.0,0.0,0.0,0.0,0.0,0.0,0.0,0.0,0.0,0.0,0.0,0.0,0.0,0.0,0.0,0.0,0.0,0.0,0.0,0.0,0.0,0.0,0.0,0.0,0.0,0.0,0.0,0.0,0.0,0.0,0.0,0.0,0.0,0.0,0.0,0.0,0.0,0.0,0.0,0.0,0.0,0.0,0.0,0.0,0.0,0.0,0.0,0.0,0.0,0.0,0.0,0.0,0.0,0.0,0.0,0.0,0.0,0.0,0.0,0.0,0.0,0.0,0.0,0.0,0.0,0.0,0.0,0.0,0.0,0.0,0.0,0.0,0.0,0.0,0.0,0.0,0.0,0.0,0.0,0.0,0.0,0.0,0.0,0.0,0.0,0.0,0.0,0.0,0.0,0.0,0.0,0.0,0.0,0.0,0.0,0.0,0.0,0.0,0.0,0.0,0.0,0.0,0.0,0.0,0.0,0.0,0.0,0.0,0.0,0.0,0.0,0.0,0.0,0.0,0.0,0.0,0.0,0.0,0.0,0.0,0.0,0.0,0.0,0.0,0.0,0.0,0.0,0.0,0.0,0.0,0.0,0.0,0.0,0.0,0.0,0.0,0.0,0.0,0.0,0.0,0.0,0.0,0.0,0.0,0.0,0.0,0.0,0.0,0.0,0.0,0.0,0.0,0.0,0.0,0.0,0.0,0.0,0.0,0.0,0.0,0.0,0.0,0.0,0.0,0.0,0.0,0.0,0.0,0.0,0.0,0.0,0.0,0.0,0.0,0.0,0.0,0.0,0.0,0.0,0.0,0.0,0.0,0.0,0.0,0.0,0.0,0.0,0.0,0.0,0.0,0.0,0.0,0.0,0.0,0.0,0.0,0.0,0.0,0.0,0.0,0.0,0.0,0.0,0.0,0.0,0.0,0.0,0.0,0.0,0.0,0.0,0.0,0.0,0.0,0.0,0.0,0.0,0.0,0.0,0.0,0.0,0.0,0.0,0.0,0.0,0.0,0.0,0.0,0.0,0.0,0.0,0.0,0.0,0.0,0.0,0.0,0.0,0.0,0.0,0.0,0.0,0.0,0.0,0.0,0.0,0.0,0.0,0.0,0.0,0.0,0.0,0.0,0.0,0.0,0.0,0.0,0.0,0.0,0.0,0.0,0.0,0.0,0.0,0.0,0.0,0.0,0.0,0.0,0.0,0.0,0.0,0.0,0.0,0.0,0.0,0.0,0.0,0.0,0.0,0.0,0.0,0.0,0.0,0.0,0.0,0.0,0.0,0.0,0.0,0.0,0.0,0.0,0.0,0.0,0.0,0.0,0.0,0.0,0.0,0.0,0.0,0.0,0.0,0.0,0.0,0.0,0.0,0.0,0.0,0.0,0.0,0.0,0.0,0.0,0.0,0.0,0.0,0.0,0.0,0.0,0.0,0.0,0.0,0.0,0.0,0.0,0.0,0.0,0.0,0.0,0.0,0.0,0.0,0.0,0.0,0.0,0.0,0.0,0.0,0.0,0.0,0.0,0.0,0.0,0.0,0.0,0.0,0.0,0.0,0.0,0.0,0.0,0.0,0.0,0.0,0.0,0.0,0.0,0.0,0.0,0.0,0.0,0.0,0.0,0.0,0.0,0.0,0.0,0.0,0.0,0.0,0.0,0.0,0.0,0.0,0.0,0.0,0.0,0.0,0.0,0.0,0.0,0.0,0.0,0.0,0.0,0.0,0.0,0.0,0.0,0.0,0.0,0.0,0.0,0.0,0.0,0.0,0.0,0.0,0.0,0.0,0.0,0.0,0.0,0.0,0.0,0.0,0.0,0.0,0.0,0.0,0.0,0.0,0.0,0.0,0.0,0.0,0.0,0.0,0.0,0.0,0.0,0.0,0.0,0.0,0.0,0.0,0.0,0.0,0.0,0.0,0.0,0.0,0.0,0.0,0.0,0.0,0.0,0.0,0.0,0.0,0.0,0.0,0.0,0.0,0.0,0.0,0.0,0.0,0.0,0.0,0.0,0.0,0.0,0.0,0.0,0.0,0.0,0.0,0.0,0.0,0.0,0.0,0.0,0.0,0.0,0.0,0.0,0.0,0.0,0.0,0.0,0.0,0.0,0.0,0.0,0.0,0.0,0.0,0.0,0.0,0.0,0.0,0.0,0.0,0.0,0.0,0.0,0.0,0.0,0.0,0.0,0.0,0.0,0.0,0.0,0.0,0.0,0.0,0.0,0.0,0.0,0.0,0.0,0.0,0.0,0.0,0.0,0.0,0.0,0.0,0.0,0.0,0.0,0.0,0.0,0.0,0.0,0.0,0.0,0.0,0.0,0.0,0.0,0.0,0.0,0.0,0.0,0.0,0.0,0.0,0.0,0.0,0.0,0.0,0.0,0.0,0.0,0.0,0.0,0.0,0.0,0.0,0.0,0.0,0.0,0.0,0.0,0.0,0.0,0.0,0.0,0.0,0.0,0.0,0.0,0.0,0.0,0.0,0.0,0.0,0.0,0.0,0.0,0.0,0.0,0.0,0.0,0.0,0.0,0.0,0.0,0.0,0.0,0.0,0.0,0.0,0.0,0.0,0.0,0.0,0.0,0.0,0.0,0.0,0.0,0.0,0.0,0.0,0.0,0.0,0.0,0.0,0.0,0.0,0.0,0.0,0.0,0.0,0.0,0.0,0.0,0.0,0.0,0.0,0.0,0.0,0.0,0.0,0.0,0.0,0.0,0.0,0.0,0.0,0.0,0.0,0.0,0.0,0.0,0.0,0.0,0.0,0.0,0.0,0.0,0.0,0.0,0.0,0.0,0.0,0.0,0.0,0.0,0.0,0.0,0.0,0.0,0.0,0.0,0.0,0.0,0.0,0.0,0.0,0.0,0.0,0.0,0.0,0.0,0.0,0.0,0.0,0.0,0.0,0.0,0.0,0.0,0.0,0.0,0.0,0.0,0.0,0.0,0.0,0.0,0.0,0.0,0.0,0.0,0.0,0.0,0.0,0.0,0.0,0.0,0.0,0.0,0.0,0.0,0.0,0.0,0.0,0.0,0.0,0.0,0.0,0.0,0.0,0.0,0.0,0.0,0.0,0.0,0.0,0.0,0.0,0.0,0.0,0.0,0.0,0.0,0.0,0.0,0.0,0.0,0.0,0.0,0.0,0.0,0.0,0.0,0.0,0.0,0.0,0.0,0.0,0.0,0.0,0.0,0.0,0.0,0.0,0.0,0.0,0.0,0.0,0.0,0.0,0.0,0.0,0.0,0.0,0.0,0.0,0.0,0.0,0.0,0.0,0.0,0.0,0.0,0.0,0.0,0.0,0.0,0.0,0.0,0.0,0.0,0.0,0.0,0.0,0.0,0.0,0.0,0.0,0.0,0.0,0.0,0.0,0.0,0.0,0.0,0.0,0.0,0.0,0.0,0.0,0.0,0.0,0.0,0.0,0.0,0.0,0.0,0.0,0.0,0.0,0.0,0.0,0.0,0.0,0.0,0.0,0.0,0.0,0.0,0.0,0.0,0.0,0.0,0.0,0.0,0.0,0.0,0.0,0.0,0.0,0.0,0.0,0.0,0.0,0.0,0.0,0.0,0.0,0.0,0.0,0.0,0.0,0.0,0.0,0.0,0.0,0.0,0.0,0.0,0.0,0.0,0.0,0.0,0.0,0.0,0.0,0.0,0.0,0.0,0.0,0.0,0.0,0.0,0.0,0.0,0.0,0.0,0.0,0.0,0.0,0.0,0.0,0.0,0.0,0.0,0.0,0.0,0.0,0.0,0.0,0.0,0.0,0.0,0.0,0.0,0.0,0.0,0.0,0.0,0.0,0.0,0.0,0.0,0.0,0.0,0.0,0.0,0.0,0.0,0.0,0.0,0.0,0.0,0.0,0.0,0.0,0.0,0.0,0.0,0.0,0.0,0.0,0.0,0.0,0.0,0.0,0.0,0.0,0.0,0.0,0.0,0.0,0.0,0.0,0.0,0.0,0.0,0.0,0.0,0.0,0.0,0.0,0.0,0.0,0.0,0.0,0.0,0.0,0.0,0.0,0.0,0.0,0.0,0.0,0.0,0.0,0.0,0.0,0.0,0.0,0.0,0.0,0.0,0.0,0.0,0.0,0.0,0.0,0.0,0.0,0.0,0.0,0.0,0.0,0.0,0.0,0.0,0.0,0.0,0.0,0.0,0.0,0.0,0.0,0.0,0.0,0.0,0.0,0.0,0.0,0.0,0.0,0.0,0.0,0.0,0.0,0.0,0.0,0.0,0.0,0.0,0.0,0.0,0.0,0.0,0.0,0.0,0.0,0.0,0.0,0.0,0.0,0.0,0.0,0.0,0.0,0.0,0.0,0.0,0.0,0.0,0.0,0.0,0.0,0.0,0.0,0.0,0.0,0.0,0.0,0.0,0.0,0.0,0.0,0.0,0.0,0.0,0.0,0.0,0.0,0.0,0.0,0.0,0.0,0.0,0.0,0.0,0.0,0.0,0.0,0.0,0.0,0.0,0.0,0.0,0.0,0.0,0.0,0.0,0.0,0.0,0.0,0.0,0.0,0.0,0.0,0.0,0.0,0.0,0.0,0.0,0.0,0.0,0.0,0.0,0.0,0.0,0.0,0.0,0.0,0.0,0.0,0.0,0.0,0.0,0.0,0.0,0.0,0.0,0.0,0.0,0.0,0.0,0.0,0.0,0.0,0.0,0.0,0.0,0.0,0.0,0.0,0.0,0.0,0.0,0.0,0.0,0.0,0.0,0.0,0.0,0.0,0.0,0.0,0.0,0.0,0.0,0.0,0.0,0.0,0.0,0.0,0.0,0.0,0.0,0.0,0.0,0.0,0.0,0.0,0.0,0.0,0.0,0.0,0.0,0.0,0.0,0.0,0.0,0.0,0.0,0.0,0.0,0.0,0.0,0.0,0.0,0.0,0.0,0.0,0.0,0.0,0.0,0.0,0.0,0.0,0.0,0.0,0.0,0.0,0.0,0.0,0.0,0.0,0.0,0.0,0.0,0.0,0.0,0.0,0.0,0.0,0.0,0.0,0.0,0.0,0.0,0.0,0.0,0.0,0.0,0.0,0.0,0.0,0.0,0.0,0.0,0.0,0.0,0.0,0.0,0.0,0.0,0.0,0.0,0.0,0.0,0.0,0.0,0.0,0.0,0.0,0.0,0.0,0.0,0.0,0.0,0.0,0.0,0.0,0.0,0.0,0.0,0.0,0.0,0.0,0.0,0.0,0.0,0.0,0.0,0.0,0.0,0.0,0.0,0.0,0.0,0.0,0.0,0.0,0.0,0.0,0.0,0.0,0.0,0.0,0.0,0.0,0.0,0.0,-0.2747,0.0,0.0,0.0,0.0,0.0,0.0,0.0,0.0,0.0,0.0,0.0,0.0,0.0,0.0,0.0,0.0,0.0,0.0,0.0,0.0,0.0,0.0,0.0,0.0,0.1274,0.1496,0.1496,0.1631,0.1816,0.2126,0.0,0.0,0.0,0.0,0.0,0.3089,0.3338,0.3713,0.427,0.4582,0.4955,0.5402,0.5413,0.5315,0.5133,0.0,0.0,0.0,0.0,0.0,0.0,0.0,0.0,0.0,0.0,0.0,0.0,0.0,0.0,0.0,0.0,0.0,0.0,0.0,0.0,0.0,0.0,0.0,0.0,0.0,0.0,0.0,0.0,0.0,0.0,0.0,0.0,0.0,0.0,0.0,0.0,0.0,0.0,0.0,0.0,0.0,0.0,0.0,0.0,0.0,0.0,0.0,0.0,0.0,0.0,0.0,0.0,0.0,0.0,0.0,0.0,0.0,0.0,0.0,0.0,0.0,0.0,0.0,0.0,0.0,0.0,0.0,0.0,0.0,0.0,0.0,-0.3011,0.0,0.0,0.0,0.0,0.0,0.0,0.0,0.0,0.0,0.0,0.0,0.0,0.0,0.0,0.0,0.0,0.0,0.0,0.0,0.0,0.0,0.0696,0.0797,0.1236,0.158,0.1674,0.173,0.1915,0.2243,0.2141,0.0,0.0,0.0,0.2805,0.3019,0.3361,0.3917,0.4736,0.5095,0.5703,0.6497,0.6749,0.6594,0.6051,0.6082,0.0,0.0,0.0,0.0,0.0,0.0,0.0,0.0,0.0,0.0,0.0,0.0,0.0,0.0,0.0,0.0,0.0,0.0,0.0,0.0,0.0,0.0,0.0,0.0,0.0,0.0,0.0,0.0,0.0,0.0,0.0,0.0,0.0,0.0,0.0,0.0,0.0,0.0,0.0,0.0,0.0,0.0,0.0,0.0,0.0,0.0,0.0,0.0,0.0,0.0,0.0,0.0,0.0,0.0,0.0,0.0,0.0,0.0,0.0,0.0,0.0,0.0,0.0,-0.2066,-0.2364,-0.2871,-0.3174,-0.3276,-0.3177,-0.3551,-0.3458,-0.3027,0.0,0.0,0.0,0.0,0.0,0.0,0.0,0.0,0.0,0.0,0.0,0.0,0.0,0.0,0.0,0.0,0.0,0.0,0.0,0.0,0.0645,0.1158,0.1302,0.1512,0.1903,0.1997,0.2068,0.2123,0.2266,0.0,0.0,0.2676,0.2853,0.3159,0.3501,0.3793,0.4039,0.5346,0.6307,0.6929,0.7351,0.7681,0.7811,0.7145,0.7235,0.7819,0.0,0.0,0.0,0.0,0.0,0.0,0.0,0.0,0.0,0.0,0.0,0.0,0.0,0.0,0.0,0.0,0.0,0.0,0.0,0.0,0.0,0.0,0.0,0.0,0.0,0.0,0.0,0.0,0.0,0.0,0.0,0.0,0.0,0.0,0.0,0.0,0.0,0.0,0.0,0.0,0.0,0.1149,0.0497,0.0,0.0,0.0,0.0,0.0,0.0,0.0,0.0,0.0,0.0,0.0,0.0,0.0,-0.1173,-0.1853,-0.1862,-0.2179,-0.2921,-0.2911,-0.3255,-0.3841,-0.3857,-0.4034,-0.4192,-0.4296,0.0,-0.3257,-0.3183,0.0,0.0,0.0,0.0,0.0,0.0,0.0,0.0,0.0,0.0,0.0,0.0,0.0,0.0,0.0,0.0,0.0,0.0,0.0,0.0,0.0,0.1317,0.1735,0.1986,0.2355,0.26,0.2554,0.2658,0.2733,0.2763,0.2769,0.2962,0.3427,0.3614,0.4275,0.5422,0.66,0.7531,0.8247,0.7762,0.8037,0.8932,0.8129,0.7905,0.8139,0.7129,0.0,0.0,0.0,0.0,0.0,0.0,0.0,0.0,0.0,0.0,0.0,0.0,0.0,0.0,0.0,0.0,0.0,0.0,0.0,0.0,0.0,0.0,0.0,0.0,0.0,0.0,0.0,0.0,0.0,0.0,0.0,0.0,0.0,0.0,0.0,0.0,0.0,0.0,0.0,0.0539,0.0518,-0.0,-0.0167,-0.0458,0.0,0.0,0.0,0.0,0.0,0.0,0.0,0.0,0.0,-0.1648,-0.1983,-0.2312,-0.2598,-0.2636,-0.2955,-0.3618,-0.3665,-0.3998,-0.4491,-0.4507,-0.4494,-0.4418,-0.4302,-0.4056,-0.3615,-0.3479,-0.3354,-0.3229,0.0,0.0,0.0,0.0,-0.302,-0.3358,0.0,0.0,0.0,0.0,0.0,0.0,0.0,0.0,0.0,0.0,0.0,0.0,0.0582,0.1228,0.1771,0.2104,0.252,0.2857,0.0,0.2928,0.2905,0.2866,0.2874,0.3148,0.37,0.3952,0.4893,0.651,0.7287,0.8072,0.8825,0.8095,0.8403,0.9547,0.8901,0.8667,0.8651,0.787,0.734,0.0,0.0,0.0,0.0,0.0,0.0,0.0,0.0,0.0,0.0,0.0,0.0,0.0,0.0,0.0,0.0,0.0,0.0,0.0,0.0,0.0,0.0,0.0,0.0,0.0,0.0,0.0,0.0,0.0,0.0,0.0,0.0,0.0,0.0,0.0,0.0,0.0,0.0,-0.0473,-0.0171,-0.0478,-0.0541,-0.0725,0.0,0.0,0.0,0.0,0.0,0.0,-0.1625,-0.2153,-0.2477,-0.249,-0.2921,-0.3285,-0.3537,-0.3537,-0.386,-0.4437,-0.4499,-0.4739,-0.5094,-0.5037,-0.4814,-0.4525,-0.4406,-0.4199,-0.3966,-0.3759,-0.3621,-0.352,-0.3291,-0.3225,-0.3235,-0.3061,-0.3138,-0.3354,0.0,0.0,0.0,0.0,0.0,0.0,0.0,0.0,0.0,0.0,0.0,0.0301,0.0819,0.0914,0.1347,0.2367,0.235,0.2498,0.0,0.0,0.2753,0.28,0.2977,0.3355,0.3974,0.4717,0.5508,0.6331,0.6679,0.7235,0.796,0.8488,0.902,0.9614,0.9547,0.9739,1.0027,0.8955,0.8503,0.8456,0.0,0.0,0.0,0.0,0.0,0.0,0.0,0.0,0.0,0.0,0.0,0.0,0.0,0.0,0.0,0.0,0.0,0.0,0.0,0.0,0.0,0.0,0.0,0.0,0.0,0.0,0.0,0.0,0.0,0.0,0.0,0.0,0.0,0.0,0.0,0.0,0.0,0.0,0.0,-0.0895,-0.098,0.0,0.0,0.0,0.0,-0.1606,-0.219,-0.2535,-0.245,-0.2978,-0.3287,-0.3321,-0.3398,-0.3757,-0.4602,-0.4602,-0.4965,-0.5684,-0.5557,-0.5562,-0.5552,-0.5413,-0.5147,-0.4809,-0.4743,-0.454,-0.4099,-0.3969,-0.3853,-0.3845,-0.3835,-0.3829,-0.3832,-0.3537,-0.3835,-0.4249,0.0,0.0,0.0,0.0,0.0,-0.1208,-0.0983,-0.0715,-0.043,-0.0187,0.0106,0.0397,0.063,0.0982,0.1395,0.1824,0.2148,0.2454,0.2808,0.0,0.305,0.3732,0.3802,0.4285,0.5271,0.6228,0.6859,0.7156,0.7401,0.7729,0.8203,0.8043,0.8355,0.9086,0.9086,0.9249,0.9504,0.8818,0.8453,0.8254,0.7408,0.6649,0.0,0.0,0.0,0.0,0.0,0.0,0.0,0.0,0.0,0.0,0.0,0.0,0.0,0.0,0.0,0.0,0.0,0.0,0.0,0.0,0.0,0.0,0.0,0.0,0.0,0.0,0.0,0.0,0.0,0.0,0.0,0.0,0.0,0.0,0.0,0.0,0.0,-0.1486,-0.1565,0.0,-0.1465,-0.1704,-0.1979,-0.24,-0.2615,-0.2921,-0.3384,-0.3908,-0.423,-0.4224,-0.4725,-0.5124,-0.5437,-0.5437,-0.5509,-0.58,-0.5749,-0.5725,-0.5725,-0.539,-0.5177,-0.4953,-0.4751,-0.4476,-0.4232,-0.4189,-0.4077,-0.3872,-0.3872,-0.3872,-0.3872,-0.3814,-0.3814,-0.3753,0.0,0.0,0.0,0.0,-0.1736,-0.143,-0.1141,-0.0892,-0.0667,-0.05,-0.0029,0.0303,0.0348,0.083,0.1295,0.1533,0.2029,0.2464,0.2807,0.2926,0.3285,0.4,0.4361,0.5012,0.594,0.6824,0.7318,0.7315,0.7317,0.7557,0.7943,0.7568,0.7777,0.8508,0.8455,0.8514,0.8593,0.8257,0.8146,0.8224,0.7799,0.7138,0.648,0.0,0.0,0.0,0.0,0.0,0.0,0.0,0.0,0.0,0.0,0.0,0.0,0.0,0.0,0.0,0.0,0.0,0.0,0.0,0.0,0.0,0.0,0.0,0.0,0.0,0.0,0.0,0.0,0.0,0.0,0.0,0.0,0.0,0.0,0.0,-0.2655,-0.2331,-0.232,-0.2279,-0.2209,-0.2369,-0.2625,-0.3061,-0.3528,-0.3909,-0.4327,-0.4891,-0.5132,-0.5134,-0.5583,-0.5905,-0.5956,-0.5956,-0.5956,-0.5956,-0.5905,-0.5878,-0.5878,-0.5535,-0.5318,-0.509,-0.4883,-0.4605,-0.4357,-0.4357,-0.4238,-0.4058,-0.4058,-0.4058,-0.4058,-0.4058,-0.3935,-0.3746,0.0,0.0,0.0,-0.1913,-0.1803,-0.1648,-0.1183,-0.105,-0.0949,-0.0839,-0.0292,0.0073,0.0,0.0482,0.1025,0.1643,0.1954,0.2415,0.3016,0.3194,0.3327,0.3528,0.4663,0.5517,0.5903,0.6425,0.6702,0.6701,0.6332,0.6495,0.7085,0.7085,0.7343,0.7818,0.7717,0.7605,0.7492,0.7337,0.7687,0.8407,0.8952,0.852,0.7619,0.0,0.0,0.0,0.0,0.0,0.0,0.0,0.0,0.0,0.0,0.0,0.0,0.0,0.0,0.0,0.0,0.0,0.0,0.0,0.0,0.0,0.0,0.0,0.0,0.0,0.0,0.0,0.0,0.0,0.0,0.0,0.0,0.0,-0.3382,-0.3978,-0.4212,-0.3426,-0.324,-0.3128,-0.3036,-0.3336,-0.3567,-0.3567,-0.4862,-0.5512,-0.5378,-0.5813,-0.6103,-0.603,-0.6037,-0.6108,-0.6335,-0.6338,-0.6338,-0.6335,-0.6108,-0.6037,-0.603,-0.5884,-0.5597,-0.5234,-0.5159,-0.4944,-0.4474,-0.4471,-0.4406,-0.4306,-0.4303,-0.43,-0.43,-0.43,-0.43,-0.4434,0.0,0.0,-0.2567,-0.215,-0.1891,-0.1626,-0.1363,-0.105,-0.0907,-0.1072,-0.036,0.0114,0.0,0.0543,0.0958,0.1102,0.115,0.1411,0.1915,0.0,0.2859,0.412,0.5119,0.571,0.5827,0.5989,0.6206,0.647,0.61,0.605,0.6273,0.6145,0.6303,0.6691,0.6832,0.7047,0.7337,0.7343,0.7362,0.7495,0.7835,0.79,0.7752,0.0,0.0,0.0,0.0,0.0,0.0,0.0,0.0,0.0,0.0,0.0,0.0,0.0,0.0,0.0,0.0,0.0,0.0,0.0,0.0,0.0,0.0,0.0,0.0,0.0,0.0,0.0,0.0,0.0,0.0,0.0,0.0,-0.5222,-0.4123,-0.4029,-0.4051,-0.395,-0.4069,-0.4147,-0.4182,-0.4343,-0.4665,-0.517,-0.549,-0.5771,-0.6184,-0.6261,-0.6257,-0.6193,-0.6196,-0.6217,-0.6261,-0.6338,-0.6338,-0.6261,-0.6217,-0.6196,-0.6196,-0.5848,-0.5544,-0.5377,-0.5078,-0.4787,-0.4665,-0.4507,-0.4452,-0.4414,-0.4333,-0.43,-0.43,-0.43,-0.4364,-0.4628,0.0,-0.3169,-0.2821,-0.2433,-0.2066,-0.1759,-0.1563,-0.1242,-0.1106,-0.1366,-0.0759,-0.0317,-0.0272,0.0198,0.063,0.0751,0.0917,0.1083,0.133,0.1888,0.27,0.3706,0.4528,0.4927,0.4889,0.5109,0.5382,0.5764,0.5441,0.5285,0.534,0.5105,0.5081,0.5322,0.5399,0.5572,0.5814,0.5959,0.6086,0.619,0.6601,0.7041,0.743,0.6754,0.6517,0.6398,0.5596,0.5325,0.5218,0.4451,0.0,0.0,0.0,0.0,0.0,0.0,0.0,0.0,0.0,0.0,0.0,0.0,0.0,0.0,0.0,0.0,0.0,0.0,0.0,0.0,0.0,0.0,0.0,0.0,-0.5982,-0.5961,-0.5374,-0.5008,-0.4803,-0.4748,-0.4937,-0.5121,-0.5176,-0.5304,-0.5535,-0.5986,-0.6282,-0.6548,-0.6802,-0.6648,-0.654,-0.6409,-0.6338,-0.6338,-0.6338,-0.6338,-0.6338,-0.6338,-0.6338,-0.6338,-0.6261,-0.6028,-0.5748,0.0,-0.5293,-0.4991,-0.4724,-0.4651,-0.4591,0.0,0.0,0.0,0.0,0.0,-0.4775,-0.5319,0.0,-0.3416,-0.3163,-0.2692,-0.2285,-0.196,-0.1736,-0.1472,-0.1371,-0.1592,-0.1203,-0.0819,-0.0653,-0.0147,0.0302,0.0554,0.0977,0.1198,0.0,0.0,0.2674,0.275,0.3345,0.3562,0.34,0.395,0.4343,0.4591,0.4317,0.4157,0.4225,0.3887,0.3775,0.3937,0.3716,0.3672,0.3706,0.3996,0.432,0.4743,0.536,0.6114,0.6827,0.6712,0.6399,0.6044,0.5992,0.5581,0.4937,0.4384,0.0,0.0,0.0,0.0,0.0,0.0,0.0,0.0,0.0,0.0,0.0,0.0,0.0,0.0,0.0,0.0,0.0,0.0,0.0,0.0,0.0,0.0,0.0,0.0,-0.5838,-0.6494,-0.6593,-0.64,-0.6157,-0.569,-0.578,-0.5947,-0.6152,-0.6228,-0.6318,-0.6318,-0.7096,-0.7407,-0.7184,0.0,0.0,0.0,0.0,-0.6338,-0.6338,-0.6338,-0.6338,-0.6338,-0.6338,-0.6338,-0.6261,-0.6261,-0.6025,-0.5637,-0.5559,-0.526,-0.4852,-0.4838,-0.4762,-0.4704,-0.4423,-0.4341,-0.4352,-0.4522,-0.5322,0.0,0.0,-0.3549,-0.3169,-0.2762,-0.2394,-0.2066,-0.1755,-0.1471,-0.1273,-0.1163,-0.0623,-0.0234,-0.0134,0.0339,0.0655,0.0605,0.0701,0.0848,0.0,0.0,0.2094,0.2017,0.2615,0.2662,0.2179,0.2734,0.2938,0.2725,0.2266,0.2175,0.2404,0.2171,0.2301,0.28,0.2845,0.3088,0.353,0.3442,0.3443,0.359,0.4001,0.5177,0.6578,0.5986,0.5998,0.6154,0.5027,0.488,0.5153,0.4423,0.367,0.3027,0.2955,0.2233,0.0,0.0,0.0,0.0,0.0,0.0,0.0,0.0,0.0,0.0,0.0,0.0,0.0,0.0,0.0,0.0,0.0,0.0,0.0,-0.5764,-0.6382,-0.678,-0.6681,-0.6747,-0.6753,-0.6499,-0.6734,-0.6888,-0.6994,-0.7151,-0.7249,-0.7249,-0.7403,-0.7407,-0.7184,-0.7022,-0.6788,-0.6641,-0.6412,-0.6338,-0.6338,-0.6338,-0.6338,-0.6338,0.0,0.0,-0.6261,-0.6099,-0.5941,-0.5786,-0.5476,-0.5306,-0.52,-0.4949,-0.4762,-0.472,-0.4673,-0.4657,-0.4657,-0.5176,-0.5827,-0.6403,-0.4089,-0.3779,-0.3359,-0.2934,-0.2498,-0.2106,-0.1803,-0.155,-0.1377,-0.1269,-0.103,-0.0698,-0.0332,-0.0044,0.0224,0.0493,0.0419,0.0,0.0,0.1303,0.1394,0.1364,0.1664,0.1623,0.1232,0.1534,0.1673,0.176,0.1371,0.1211,0.1349,0.0922,0.0868,0.1194,0.1052,0.1301,0.1883,0.2037,0.223,0.2521,0.3049,0.3786,0.4659,0.4556,0.4721,0.4875,0.3827,0.3902,0.433,0.3667,0.298,0.2324,0.2065,0.1579,0.1076,0.0,0.0,0.0,0.0,0.0,0.0,0.0,0.0,0.0,0.0,0.0,0.0,0.0,0.0,0.7133,0.3406,0.0,-0.4111,-0.5697,-0.6327,-0.6684,-0.6819,-0.6999,-0.7021,-0.6834,-0.7058,-0.7261,-0.7346,-0.7431,-0.7484,-0.7484,-0.7484,-0.7525,-0.7466,-0.7148,-0.6991,-0.6834,-0.6523,-0.6332,-0.6338,-0.6338,-0.6338,-0.6338,-0.6338,-0.6338,-0.6261,-0.618,-0.6022,-0.586,-0.5553,-0.5401,-0.5315,-0.5024,-0.5039,-0.528,-0.528,-0.5273,-0.5234,-0.5881,-0.6492,-0.7086,-0.4333,-0.4048,-0.364,-0.3147,-0.2649,-0.2237,-0.1935,-0.1675,-0.1501,-0.1407,-0.1422,-0.1235,-0.068,-0.0582,-0.0356,0.0,0.0,0.0,0.0,0.0844,0.0872,0.0728,0.0785,0.0731,0.051,0.0522,0.065,0.0898,0.0552,0.0374,0.0313,-0.0188,-0.0381,-0.0324,-0.0633,-0.0444,0.0,0.0442,0.0857,0.1304,0.1894,0.2081,0.2063,0.2788,0.3234,0.3347,0.2903,0.3003,0.3317,0.2841,0.2184,0.1435,0.0962,0.072,0.0533,0.0,0.0216,0.0,0.0,0.0,0.0,0.0,0.0,0.0,0.0,0.9898,1.0481,1.0793,1.0264,0.8543,0.4789,0.0986,-0.2513,-0.5152,-0.5951,-0.6356,-0.6672,-0.6901,-0.6986,-0.6953,-0.7094,-0.733,-0.7472,-0.7484,-0.7484,-0.7484,-0.7484,-0.7471,-0.7458,-0.7259,-0.7034,-0.6871,-0.6631,-0.6417,-0.6302,-0.6274,-0.6338,-0.6338,-0.6338,-0.6338,-0.6338,-0.6338,-0.618,-0.5941,-0.5715,-0.5556,-0.5476,-0.5246,-0.5556,-0.6093,-0.6247,-0.617,-0.6113,-0.6685,-0.7257,-0.765,0.0,-0.4301,-0.3952,-0.3381,-0.3014,-0.2665,-0.2215,-0.1883,-0.1518,-0.1123,-0.1012,-0.0893,-0.0612,-0.0594,-0.0526,-0.0307,0.0,0.0,0.0158,0.0602,0.067,0.0112,0.0505,0.0455,-0.0176,0.0235,0.0121,-0.0575,-0.0896,-0.1169,-0.1332,-0.1198,-0.1201,-0.1137,-0.0933,-0.0733,-0.0669,-0.08,-0.0774,-0.0612,0.0,-0.0059,-0.0391,0.0781,0.1842,0.2792,0.2736,0.2682,0.2733,0.2709,0.191,0.0907,0.0881,0.0542,0.0052,-0.005,0.0283,0.0708,0.0749,0.1625,0.3011,0.4875,0.5978,0.7643,0.0,1.1897,1.1643,1.237,1.065,0.7966,0.4485,0.1031,-0.2064,-0.4267,-0.5203,-0.5778,-0.6086,-0.6257,-0.6395,-0.6619,-0.712,-0.746,-0.748,-0.7484,-0.7484,-0.7484,-0.7484,-0.718,-0.6423,-0.6874,-0.6711,-0.5987,-0.6311,-0.6464,-0.6451,-0.6325,-0.6338,-0.6338,-0.6338,-0.6338,-0.6338,-0.6338,-0.6261,-0.6257,-0.5792,-0.5786,-0.6089,-0.586,-0.617,-0.6861,-0.7399,-0.7604,-0.7567,-0.7668,-0.7753,-0.7829,0.0,-0.4561,-0.433,-0.3862,-0.3353,-0.2864,-0.2428,-0.2062,-0.1721,-0.1439,-0.1272,-0.1119,-0.0982,-0.0824,-0.0703,-0.0673,-0.0174,0.0,-0.0249,0.0054,0.0168,-0.0112,0.0,-0.0113,-0.0515,-0.0525,-0.0782,-0.1194,-0.1534,-0.1751,-0.1837,-0.1968,-0.2035,-0.2035,-0.2098,-0.1918,-0.161,-0.1651,-0.1408,-0.0983,-0.0663,-0.0698,-0.0838,-0.0335,0.0,0.0334,0.1285,0.1586,0.0,0.1215,0.0766,0.0213,-0.0432,-0.0323,-0.0053,-0.0447,0.0048,0.0919,0.1628,0.2672,0.3863,0.5166,0.6806,0.8934,1.2243,1.3199,1.3386,1.3536,1.1722,0.9388,0.6971,0.2633,-0.1474,0.0,-0.4905,-0.5243,-0.5932,-0.6112,-0.6143,-0.6007,-0.6437,-0.6938,-0.7484,-0.7484,-0.7484,-0.7484,-0.7484,-0.7414,-0.7293,-0.7377,-0.7301,-0.6892,-0.6899,-0.6815,-0.6474,-0.6413,-0.6342,-0.6338,-0.6338,-0.6338,-0.6338,-0.6338,-0.6183,-0.5873,-0.6103,-0.6096,-0.6012,-0.6321,-0.6861,-0.7476,-0.7706,-0.8012,-0.8318,-0.8318,-0.8318,-0.8394,0.0,-0.4711,-0.4581,-0.424,-0.3696,-0.3169,-0.2735,-0.2346,-0.202,-0.1807,-0.1668,-0.1533,-0.1434,-0.118,-0.103,-0.1083,-0.082,-0.063,-0.0569,-0.0472,-0.0333,-0.028,-0.0449,-0.0676,-0.0852,-0.1164,-0.1435,-0.1601,-0.1952,-0.2102,-0.2102,-0.2548,-0.2739,-0.2802,-0.2991,-0.2895,-0.2487,-0.2311,-0.2001,-0.1517,-0.1423,-0.1441,-0.1398,-0.1341,-0.1554,-0.165,-0.011,0.0324,0.0157,-0.0053,-0.0211,-0.0413,-0.1342,-0.0987,-0.0312,-0.0747,-0.005,0.1092,0.2193,0.3303,0.4391,0.5615,0.768,1.0115,1.2842,1.4246,1.4797,1.4337,1.2756,1.0843,0.8884,0.4096,-0.0739,-0.4364,-0.4704,-0.4743,-0.562,-0.587,-0.5854,-0.5467,-0.6086,-0.6707,-0.7096,-0.7173,-0.7249,-0.7484,-0.7484,-0.7516,-0.7527,-0.7636,-0.7579,-0.719,-0.7243,-0.7052,-0.6536,-0.6491,-0.6403,-0.6338,-0.6338,-0.6338,-0.6338,-0.6338,-0.618,-0.6022,-0.6405,-0.656,-0.6556,-0.6938,-0.7476,-0.8089,-0.8318,-0.8623,-0.9084,-0.9306,-0.9231,-0.916,0.0,0.0,-0.4622,-0.4431,-0.4097,-0.3703,-0.3153,-0.2805,-0.2437,-0.2038,-0.1994,-0.1992,-0.1983,-0.1742,-0.1575,-0.1591,-0.1395,-0.1134,-0.0805,-0.0871,-0.0758,-0.0392,-0.0842,-0.114,-0.1177,-0.1588,-0.1791,-0.191,-0.2222,-0.2408,-0.2408,-0.296,-0.3206,-0.3206,-0.3206,-0.3206,-0.3149,-0.3022,-0.2909,-0.2771,-0.2769,-0.2715,-0.2633,-0.2514,-0.2518,-0.2399,-0.1172,0.0,-0.1351,-0.0678,-0.0669,-0.0955,-0.129,-0.1128,-0.0763,-0.0789,0.0,0.1102,0.1954,0.3037,0.4387,0.65,0.8767,1.1185,1.3834,1.5143,1.5541,1.4744,1.3507,1.1695,0.9028,0.4724,0.0202,-0.4042,-0.4466,-0.4419,-0.4916,-0.5392,-0.5467,-0.5082,-0.6475,-0.7173,0.0,-0.624,-0.663,-0.7407,-0.7484,-0.7099,-0.6331,-0.7181,-0.7195,-0.6207,-0.6932,-0.7105,-0.6695,-0.6546,-0.6403,-0.6338,-0.6338,-0.6338,-0.6338,-0.6338,-0.6486,-0.6865,-0.6714,-0.718,-0.8025,-0.7863,-0.8165,-0.878,-0.9539,-0.9841,-0.9992,-1.0738,-1.0513,-0.9992,0.0,0.0,0.0,-0.4552,-0.4342,-0.4068,-0.38,-0.3169,-0.271,-0.2604,-0.2492,0.0,0.0,0.0,0.0,0.0,-0.1857,-0.1687,-0.1656,-0.1262,-0.1097,-0.1296,-0.1274,-0.1353,-0.1594,-0.1878,-0.214,-0.2211,-0.2628,-0.2807,-0.2807,-0.3104,-0.3285,-0.3285,-0.3285,-0.3262,-0.3197,-0.3191,-0.3087,-0.2932,-0.2985,-0.2941,-0.2805,-0.28,-0.285,-0.2904,0.0,-0.164,-0.1403,-0.1185,-0.1169,-0.1332,-0.1839,-0.1681,-0.1174,-0.0406,0.0518,0.148,0.2263,0.3367,0.4789,0.6865,0.9125,1.1644,1.4444,1.5833,1.6278,1.5387,1.3992,1.192,0.854,0.522,0.1903,-0.1673,-0.3549,-0.4726,-0.4991,-0.4854,-0.4616,-0.4229,-0.4688,0.0,0.0,0.0,0.0,-0.748,-0.7484,-0.7508,-0.7415,-0.7702,-0.7708,-0.7336,-0.757,-0.7433,-0.6854,-0.6702,-0.6549,-0.64,-0.6921,-0.7103,-0.7103,-0.7633,-0.7859,-0.7927,-0.7936,-0.8394,-0.9074,-0.9155,-0.9609,-1.0282,-1.0588,-1.0663,-1.0812,-1.1632,-1.1706,-1.1558,0.0,0.0,0.0,0.0,0.0,0.0,0.0,0.0,0.0,0.0,0.0,0.0,0.0,0.0,0.0,0.0,0.0,-0.2333,-0.2278,-0.1912,-0.177,-0.1939,-0.1906,-0.1943,-0.2049,-0.2374,-0.2524,-0.2558,-0.2841,-0.3026,-0.306,-0.3235,-0.335,-0.335,-0.335,-0.3331,-0.3271,-0.3261,-0.3175,-0.3051,-0.3226,-0.3239,-0.3239,-0.3466,-0.3426,0.0,-0.2853,-0.2279,-0.1624,-0.16,-0.1504,-0.1456,-0.2069,-0.1823,-0.1146,-0.0255,0.0785,0.1734,0.2538,0.3687,0.5142,0.7115,0.9414,1.1917,1.4499,1.5847,1.6382,1.5539,1.4058,1.1911,0.8695,0.5411,0.2458,0.0068,-0.2757,-0.4705,-0.498,-0.5012,-0.4696,-0.3919,-0.4377,-0.4608,0.0,0.0,0.0,-0.7015,-0.7326,-0.7614,-0.7906,-0.7979,-0.7899,-0.7755,-0.7822,-0.7603,-0.6932,-0.6776,-0.676,-0.6863,-0.7614,-0.794,-0.794,-0.8475,-0.8694,-0.8765,-0.8998,-0.9453,-0.9976,-1.0212,-1.0663,-1.1111,-1.1409,-1.1558,-1.1632,-1.2452,-1.2753,-1.2753,0.0,0.0,0.0,0.0,0.0,0.0,0.0,0.0,0.0,0.0,0.0,0.0,0.0,0.0,0.0,0.0,0.0,0.0,-0.2704,-0.271,0.0,-0.2315,-0.2749,-0.2861,-0.2568,-0.2916,-0.3019,-0.2814,-0.2922,-0.3023,-0.3116,-0.3284,-0.3395,-0.3395,-0.3395,-0.3395,-0.334,-0.3171,-0.3116,-0.3106,-0.3537,-0.3699,-0.3739,-0.4468,-0.4111,-0.3242,-0.3459,-0.2894,-0.2005,-0.1957,-0.1668,-0.1409,-0.1962,-0.1513,-0.0691,-0.0213,0.078,0.1936,0.2888,0.4053,0.5486,0.736,0.9612,1.1943,1.4007,1.5325,1.5886,1.5233,1.3768,1.1861,0.9496,0.531,0.1973,0.1152,-0.2014,-0.4462,-0.4966,-0.5643,-0.5565,-0.4003,-0.5323,-0.5948,-0.4943,0.0,0.0,-0.6187,0.0,-0.7577,-0.7764,-0.7935,-0.7859,-0.7606,-0.777,-0.7607,-0.6943,-0.678,-0.7035,-0.7573,-0.8403,-0.8775,-0.8775,-0.8851,-0.9074,-0.9448,-0.982,-1.0276,-1.0663,-1.1037,-1.1186,-1.1335,-1.2077,-1.2445,-1.2519,-1.3339,-1.3637,-1.3637,0.0,0.0,0.0,0.0,0.0,0.0,0.0,0.0,0.0,0.0,0.0,0.0,0.0,0.0,0.0,0.0,0.0,0.0,-0.3701,-0.3166,0.0,0.0,-0.3105,-0.3024,-0.3465,-0.3216,-0.3179,-0.331,-0.3115,-0.3034,-0.3007,-0.3159,-0.3259,-0.3259,-0.3259,-0.3211,-0.311,-0.3157,-0.3105,-0.3056,-0.3634,-0.3568,-0.3214,-0.3776,-0.3578,-0.3064,-0.3093,-0.2847,-0.2472,-0.2199,-0.1997,-0.1786,-0.1465,-0.0999,-0.0361,0.0381,0.1228,0.2188,0.3092,0.4379,0.5907,0.7487,0.9128,1.113,1.3885,1.4985,1.5383,1.5147,1.376,1.1951,0.9856,0.6024,0.2646,0.1021,-0.2164,-0.4607,-0.4966,-0.5012,-0.4746,-0.3945,-0.4082,-0.3957,-0.3385,-0.4695,0.0,0.0,-0.6955,-0.7764,-0.7939,-0.8122,-0.813,-0.8043,-0.7918,-0.7746,-0.7358,-0.7502,-0.7979,-0.8691,-0.9311,-0.9614,-0.9614,-1.0657,-1.118,-1.1329,-1.1607,-1.1983,-1.2526,-1.2305,-1.2452,-1.2966,-1.3745,-1.4027,-1.4106,-1.4895,-1.5108,-1.5108,0.0,0.0,0.0,0.0,0.0,0.0,0.0,0.0,0.0,0.0,0.0,0.0,0.0,0.0,0.0,0.0,0.0,0.0,0.0,-0.3625,0.0,-0.3942,-0.3559,-0.3362,-0.3487,-0.3363,-0.328,-0.3237,0.0,0.0,-0.3074,-0.3171,-0.3218,-0.3218,-0.3218,-0.3171,-0.3074,-0.3171,-0.3171,0.0,0.0,-0.3578,-0.3331,-0.3697,-0.3622,-0.326,-0.3175,-0.2895,-0.2495,-0.1999,-0.1934,-0.196,-0.1651,-0.1003,-0.0218,0.0734,0.1573,0.2472,0.3741,0.4922,0.6213,0.7842,0.9314,1.0946,1.3296,1.4505,1.4993,1.451,1.3274,1.169,0.9672,0.5616,0.1988,0.0122,-0.2956,-0.5297,-0.5875,-0.6192,-0.5996,-0.5023,-0.4956,-0.4856,-0.4525,-0.5438,-0.6188,0.0,-0.7349,-0.7947,-0.8126,-0.8231,-0.8283,-0.8193,-0.8028,-0.7906,-0.7827,-0.8643,-0.9204,-0.9635,-1.0177,-1.0594,-1.0887,-1.1632,-1.215,-1.2378,0.0,-1.2959,-1.3193,-1.347,-1.376,-1.4049,-1.4824,-1.51,-1.51,-1.5534,-1.5675,-1.5745,0.0,0.0,0.0,0.0,0.0,0.0,0.0,0.0,0.0,0.0,-0.6011,0.0,0.0,0.0,0.0,0.0,0.0,0.0,0.0,0.0,0.0,-0.396,-0.403,-0.3824,-0.3344,-0.35,-0.3462,-0.3161,-0.307,-0.3066,0.0,0.0,-0.3148,-0.3148,-0.3099,-0.3107,-0.3172,-0.3123,-0.3123,-0.3161,-0.3529,-0.3572,-0.3509,0.0,0.0,-0.3591,-0.3542,-0.3108,-0.2485,-0.1691,-0.1657,-0.1928,-0.1873,-0.1064,0.0,0.1119,0.1906,0.2829,0.451,0.5448,0.6461,0.8222,0.9746,1.1188,1.248,1.3864,1.4559,1.3464,1.2549,1.128,0.9238,0.5061,0.1169,-0.1127,-0.3953,-0.6113,-0.6939,-0.7846,-0.7919,-0.6568,-0.6862,-0.7127,-0.7069,-0.7156,-0.7492,-0.816,-0.833,-0.8476,-0.845,-0.8483,-0.8566,-0.854,-0.8376,-0.8376,-0.8692,-0.9901,-1.0567,-1.0573,-1.1011,-1.1558,-1.215,-1.2224,-1.2519,-1.3046,0.0,0.0,-1.3622,-1.4617,-1.4966,-1.4887,-1.5596,-1.5886,-1.5877,-1.5956,-1.6026,-1.6097,0.0,0.0,0.0,0.0,0.0,0.0,0.0,0.0,0.0,0.0,-0.7263,-0.657,0.0,0.0,0.0,0.0,0.0,0.0,0.0,0.0,0.0,0.0,-0.4318,-0.4297,-0.4414,-0.3889,-0.3939,-0.4622,-0.3475,-0.3078,0.0,-0.295,-0.2778,-0.2778,-0.2689,-0.2744,-0.2928,-0.2834,-0.2789,-0.2831,-0.3263,-0.3161,-0.2752,0.0,0.0,0.0,-0.3978,-0.3909,-0.3384,-0.2321,-0.1574,-0.1001,-0.05,0.0171,0.1003,0.1755,0.2502,0.3363,0.4689,0.5847,0.6997,0.8017,0.9689,1.1233,1.1837,1.285,1.3352,1.2166,1.1967,1.1315,0.9124,0.6487,0.3066,-0.1666,-0.4532,-0.6273,-0.6621,-0.6718,-0.6928,-0.7419,-0.7424,-0.7654,-0.8127,-0.8927,0.0,0.0,0.0,-1.0369,-0.947,-0.9538,-0.9899,-1.0529,-1.0284,-1.0348,-1.0789,-1.0555,-1.1039,-1.2037,-1.1915,-1.2157,-1.2746,-1.3251,-1.3542,-1.3688,-1.4911,0.0,-1.518,-1.5807,-1.5948,-1.579,-1.6437,-1.6724,-1.6793,-1.7373,-1.7588,-1.7657,0.0,0.0,0.0,0.0,0.0,0.0,0.0,-0.8699,-0.9123,-0.9497,-0.9287,-0.8668,-0.7543,-0.7084,-0.6663,0.0,0.0,0.0,0.0,0.0,0.0,0.0,0.0,-0.4173,-0.4292,-0.3712,-0.3666,-0.4045,0.0,-0.2879,-0.3037,-0.2821,-0.2649,-0.2603,-0.2603,-0.25,-0.2324,-0.2279,-0.2235,-0.2235,0.0,0.0,0.0,0.0,0.0,0.0,0.0,-0.3342,-0.2947,-0.261,-0.1741,-0.0657,0.0222,0.0915,0.1596,0.2377,0.3013,0.3811,0.5183,0.64,0.7574,0.8775,1.01,1.1333,1.2156,1.2491,1.2392,1.1616,1.0954,0.9676,0.6841,0.4292,0.1336,-0.2711,-0.5266,-0.7015,-0.7739,-0.7965,-0.8408,-0.9385,-0.9386,-0.9427,-0.988,-1.0341,-1.0611,-1.0611,0.0,-1.1101,-1.0564,-1.0575,-1.0712,-1.0956,-1.1357,-1.1657,-1.1698,-1.1878,-1.2241,-1.2885,-1.3019,-1.3164,-1.3397,-1.4458,-1.4895,-1.4903,-1.5956,0.0,-1.6088,-1.6664,-1.7001,-1.717,-1.7736,-1.822,-1.8623,-1.8977,-1.9121,-1.9121,0.0,0.0,0.0,0.0,0.0,0.0,0.0,-0.9843,-1.0305,-1.0824,-1.1283,-1.0945,-0.9325,-0.86,-0.796,0.0,0.0,0.0,0.0,0.0,0.0,0.0,0.0,-0.4338,-0.4133,0.0,0.0,-0.3568,-0.3037,0.0,0.0,0.0,0.0,0.0,-0.2383,-0.2216,-0.183,-0.1875,-0.183,0.0,0.0,0.0,0.0,0.0,0.0,0.0,0.0,-0.2552,-0.2205,-0.259,-0.192,-0.0782,0.0,0.1012,0.2008,0.2839,0.3675,0.4626,0.6169,0.7464,0.8642,0.9793,1.1092,1.2088,1.2213,1.2369,1.2038,1.0424,0.8887,0.6907,0.3939,0.089,-0.1959,-0.4353,-0.6091,-0.764,-0.9023,-0.9402,-1.0019,-1.1306,-1.1595,-1.1721,-1.2064,-1.2304,0.0,-1.2504,0.0,0.0,-1.1912,-1.2248,-1.2298,-1.2064,-1.2787,-1.3027,-1.2581,-1.3108,-1.3457,-1.3686,-1.3996,-1.4307,-1.4466,-1.5658,-1.6158,-1.6105,-1.6802,0.0,0.0,-1.7628,-1.823,-1.8736,-1.91,-1.9573,-2.0096,-2.0096,-2.0096,-2.0096,0.0,0.0,0.0,0.0,0.0,0.0,0.0,-1.0868,-1.1553,-1.2601,-1.2751,-1.26,-1.2247,-1.0926,-0.9874,0.0,0.0,0.0,0.0,0.0,0.0,0.0,0.0,0.0,0.0,0.0,0.0,-0.4854,-0.3565,0.0,0.0,0.0,0.0,0.0,0.0,-0.1681,-0.2008,-0.2188,0.0,0.0,0.0,0.0,0.0,0.0,0.0,0.0,0.0,-0.2053,-0.1756,-0.2353,-0.2112,-0.1618,-0.1762,-0.0054,0.2173,0.3161,0.4511,0.617,0.8343,0.9631,1.0561,1.105,1.3032,1.4063,1.1016,1.2474,1.2875,0.7345,0.4664,0.2858,0.1471,-0.2585,-0.5997,-0.6923,-0.711,-0.7762,-0.97,-0.97,-1.0179,-1.2104,-1.3355,-1.4223,-1.4508,-1.5524,-1.6191,0.0,0.0,0.0,-1.3847,-1.535,-1.6052,-1.5671,-1.5553,-1.5005,-1.4026,-1.3809,-1.4067,-1.4768,-1.4807,-1.5438,-1.6655,-1.6793,-1.6793,-1.6862,-1.755,0.0,0.0,-1.9253,-1.9781,-2.0322,-2.0096,-2.0031,-2.0096,-2.0096,-2.0096,-2.0096,0.0,0.0,0.0,0.0,0.0,0.0,-1.1804,-1.1693,-1.2113,-1.3848,-1.3802,-1.365,-1.3677,-1.3229,-1.2185,-1.0309,0.0,0.0,0.0,0.0,0.0,0.0,0.0,0.0,0.0,0.0,-0.524,-0.5188,-0.426,0.0,0.0,0.0,0.0,0.0,0.0,-0.259,-0.2273,0.0,0.0,0.0,0.0,0.0,0.0,0.0,0.0,0.0,0.0,0.0,-0.5422,-0.7068,-0.7101,-0.6538,-0.6922,-0.5826,-0.3462,0.1436,0.4104,0.5938,0.8,1.0181,1.1807,1.195,1.2975,1.3217,1.0304,0.9233,0.7722,0.3743,0.1615,-0.0085,-0.1881,-0.4908,-0.7243,-0.7663,-0.7855,-0.857,-1.0215,-1.0436,-1.12,-1.3307,-1.3935,-1.4544,0.0,0.0,-1.6979,0.0,0.0,0.0,-1.6702,-1.6484,-1.6245,-1.6119,-1.6138,-1.5988,-1.5553,-1.5677,-1.591,-1.6192,-1.6618,-1.6775,-1.6932,-1.7833,-1.823,-1.82,-1.8957,0.0,0.0,-2.0215,-2.0602,-2.1175,-2.0858,-2.0944,-2.1336,-2.1336,-2.1336,-2.1336,0.0,0.0,0.0,0.0,0.0,-1.1162,-1.2573,-1.2416,-1.2799,-1.4714,-1.4729,-1.4676,-1.5,-1.492,-1.4084,-1.2188,-1.1417,0.0,0.0,0.0,0.0,0.0,0.0,0.0,0.0,0.0,-0.6565,-0.6162,-0.5396,-0.5057,0.0,0.0,-0.3989,-0.3774,0.0,0.0,0.0,0.0,0.0,0.0,0.0,0.0,0.0,0.0,0.0,0.0,0.0,0.0,0.0,0.0,0.0,-1.0285,-1.1007,-1.0447,-0.8395,-0.2471,0.1791,0.4935,0.6578,0.9761,1.2435,1.1645,1.1276,1.0281,0.7142,0.4929,0.2712,-0.0137,-0.2182,-0.3894,-0.5359,-0.7059,-0.8318,-0.8579,-0.8813,-0.9518,-1.1226,-1.1574,-1.2312,-1.4183,0.0,-1.5429,0.0,-1.7258,-1.7975,0.0,0.0,0.0,0.0,-1.8146,-1.7427,-1.7013,-1.7149,-1.709,-1.6902,-1.731,-1.7629,-1.7775,-1.8335,-1.8402,-1.82,-1.9233,-1.9694,-1.9661,0.0,0.0,0.0,-2.1037,-2.1302,-2.1889,-2.1588,-2.1726,-2.2197,-2.2197,-2.2197,-2.2197,0.0,0.0,0.0,0.0,0.0,0.0,-1.2488,-1.2985,-1.3797,-1.5198,-1.5505,-1.5801,-1.6411,-1.5698,-1.5286,-1.5518,-1.4092,0.0,0.0,0.0,0.0,0.0,0.0,0.0,0.0,0.0,-0.8906,-0.815,-0.7107,-0.6581,-0.654,-0.4928,-0.4215,-0.4184,0.0,0.0,0.0,0.0,0.0,0.0,0.0,0.0,0.0,0.0,0.0,0.0,0.0,0.0,0.0,0.0,0.0,0.0,0.0,-1.2547,-1.1154,-0.9025,-0.292,0.3306,0.4132,0.8567,1.2372,0.9765,0.7639,0.5044,0.0699,-0.0125,-0.0906,-0.4316,-0.7255,-0.9096,-0.8733,-0.9106,-0.9667,-1.0271,-1.0027,-1.057,-1.2825,-1.2997,-1.329,0.0,-1.6455,-1.7531,-1.6919,-1.8556,0.0,0.0,0.0,0.0,0.0,-2.0902,-2.0471,-1.9133,-1.9054,-1.8696,-1.7978,-1.8459,-1.8905,-1.9257,-1.976,-2.0375,-2.106,-2.106,-2.106,0.0,0.0,0.0,0.0,-2.1741,-2.2013,-2.2678,-2.2309,-2.2185,-2.2197,-2.2197,-2.2197,-2.2197,0.0,0.0,0.0,0.0,0.0,0.0,0.0,-1.305,-1.3465,-1.548,-1.5224,-1.5355,-1.6696,-1.6554,-1.6397,-1.6491,-1.5323,0.0,0.0,0.0,0.0,0.0,0.0,0.0,0.0,-1.1955,-1.1883,-1.1687,-1.1194,-1.077,-1.035,-0.9644,-0.8771,-0.7769,-0.8154,-0.8205,0.0,0.0,0.0,0.0,0.0,0.0,0.0,0.0,0.0,0.0,0.0,0.0,0.0,0.0,0.0,0.0,0.0,0.0,0.0,-1.6445,-1.0285,-0.3166,-0.1493,0.1512,0.3938,0.2923,0.2119,0.0681,-0.2823,-0.4505,-0.6176,-0.9181,-1.0173,-1.0583,-1.0966,-1.118,-1.1498,-1.219,-1.24,-1.2896,-1.4045,-1.4439,0.0,-1.6667,-1.8742,-2.0161,0.0,0.0,0.0,0.0,0.0,0.0,0.0,-2.2103,-2.1771,-2.0517,-2.0567,-2.0509,-2.0289,-2.0685,-2.0887,-2.0887,-2.091,-2.0985,-2.1123,-2.1123,0.0,0.0,0.0,0.0,0.0,-2.2469,-2.2482,-2.269,-2.2321,-2.2197,-2.2197,-2.2197,-2.2197,-2.2197,0.0,0.0,0.0,0.0,0.0,0.0,0.0,-1.3396,-1.3874,-1.5669,-1.5659,-1.5995,-1.7349,-1.7484,-1.7496,-1.7496,-1.6849,0.0,0.0,0.0,0.0,0.0,0.0,0.0,-1.441,-1.437,-1.4499,-1.4718,-1.4337,-1.4046,-1.3887,-1.316,-1.227,-1.1264,-1.1427,-1.1399,0.0,0.0,0.0,0.0,0.0,0.0,0.0,0.0,0.0,0.0,0.0,0.0,0.0,0.0,0.0,0.0,0.0,0.0,0.0,0.0,-1.5504,-1.0278,-0.7029,-0.353,-0.1068,-0.2183,-0.3333,-0.4924,-0.7714,-0.9404,-1.0835,-1.2552,-1.2465,-1.2281,-1.3002,-1.3049,-1.3141,-1.3709,-1.4079,-1.4505,-1.5128,0.0,0.0,-1.9017,0.0,0.0,0.0,0.0,0.0,0.0,0.0,0.0,0.0,-2.3709,-2.3721,-2.2923,-2.2297,-2.1856,-2.1569,-2.2039,-2.2187,-2.199,-2.2125,-2.2199,-2.2224,-2.2224,0.0,0.0,0.0,0.0,0.0,-2.3531,-2.3412,-2.3258,-2.3005,-2.2714,-2.2494,-2.2494,-2.2371,-2.2197,0.0,0.0,0.0,0.0,0.0,0.0,0.0,-1.3922,-1.4706,-1.5676,-1.6514,-1.7339,-1.8146,-1.8406,-1.8536,-1.8536,0.0,0.0,0.0,0.0,0.0,0.0,0.0,0.0,-1.6603,-1.6548,-1.6783,-1.732,-1.668,-1.6651,-1.7135,-1.5811,-1.4979,-1.4582,-1.4101,-1.386,0.0,0.0,0.0,0.0,0.0,0.0,0.0,0.0,0.0,0.0,0.0,0.0,0.0,0.0,0.0,0.0,0.0,0.0,0.0,0.0,0.0,0.0,0.0,-0.7228,-0.386,-0.6153,-0.8717,-1.1249,-1.3358,-1.4276,0.0,-1.4547,-1.4206,-1.411,-1.48,-1.4679,-1.4617,-1.5003,-1.5277,-1.5647,-1.6247,-1.7487,0.0,0.0,-2.2481,0.0,0.0,0.0,0.0,0.0,0.0,0.0,0.0,-2.5536,-2.5837,-2.5783,-2.4173,-2.2952,-2.2396,-2.2834,-2.3027,-2.2834,-2.3305,-2.3793,-2.4176,-2.4176,0.0,0.0,0.0,0.0,0.0,-2.4811,-2.454,-2.4292,-2.4092,-2.3577,-2.2969,-2.2969,-2.2665,-2.2309,0.0,0.0,0.0,0.0,0.0,0.0,0.0,0.0,0.0,0.0,-1.5852,-1.6712,-1.7452,-1.8341,-1.887,0.0,0.0,0.0,0.0,0.0,0.0,0.0,0.0,0.0,-1.8608,-1.8596,-1.8859,-1.9376,-1.9881,-1.9975,-1.9674,-1.9937,-1.9108,-1.7455,-1.7796,-1.7762,0.0,0.0,0.0,0.0,0.0,0.0,0.0,0.0,0.0,0.0,-1.8483,-1.8383,0.0,0.0,0.0,0.0,0.0,0.0,0.0,0.0,-1.8086,-1.7591,-1.6147,0.0,-1.3253,-1.3635,-1.4248,-1.4813,0.0,-1.5355,-1.5521,-1.5725,-1.533,-1.5235,-1.6081,-1.5757,-1.5843,-1.7471,-1.7261,-1.7301,-1.839,-2.0142,0.0,-2.3216,-2.442,-2.516,0.0,0.0,0.0,0.0,0.0,0.0,0.0,-2.6162,-2.6283,-2.5783,-2.5809,-2.5522,-2.491,-2.5036,-2.5036,-2.4924,-2.4951,-2.4951,-2.4951,-2.4851,0.0,0.0,0.0,0.0,-2.5007,-2.4811,-2.454,-2.4292,-2.4092,-2.3741,-2.3471,-2.3471,-2.3352,-2.3233,0.0,0.0,0.0,0.0,0.0,0.0,0.0,0.0,0.0,0.0,0.0,-1.6854,-1.7615,-1.869,0.0,0.0,0.0,0.0,0.0,0.0,0.0,0.0,0.0,-1.9548,-1.9707,-1.9686,-2.0169,-2.1208,-2.1668,-2.2102,-2.2476,-2.2129,-2.1305,-2.0087,-1.9758,-1.9506,0.0,0.0,0.0,0.0,0.0,0.0,0.0,0.0,0.0,0.0,-1.8395,-1.8255,0.0,-1.8526,-1.8445,-1.8205,0.0,0.0,0.0,0.0,-1.8205,-1.81,-1.8061,-1.7733,-1.7345,-1.7072,-1.7018,-1.6964,-1.6843,-1.6526,-1.6351,-1.6543,-1.6297,-1.6225,-1.6691,-1.675,-1.7047,-1.8115,-1.8437,-1.9091,0.0,0.0,-2.4358,-2.5282,-2.6515,0.0,0.0,0.0,0.0,0.0,0.0,0.0,0.0,-2.7635,-2.7635,-2.7303,-2.7635,-2.7144,-2.5783,-2.5783,-2.5728,-2.5618,-2.5453,-2.5453,-2.5618,-2.5467,-2.5591,0.0,0.0,0.0,-2.5811,-2.5742,-2.5508,-2.5175,-2.4951,-2.4553,-2.4105,-2.3989,-2.3754,-2.3577,0.0,0.0,0.0,0.0,0.0,0.0,0.0,0.0,0.0,0.0,0.0,0.0,0.0,0.0,0.0,0.0,0.0,0.0,0.0,0.0,0.0,0.0,-1.9963,-2.0071,-2.0435,-2.0263,-2.0888,-2.2383,-2.253,-2.3259,-2.4502,-2.3349,-2.2591,-2.2144,-2.0687,-2.0032,0.0,0.0,0.0,0.0,0.0,0.0,0.0,0.0,0.0,0.0,0.0,0.0,0.0,-1.8371,-1.8246,-1.7949,-1.8149,0.0,0.0,0.0,0.0,0.0,-1.8838,-1.8836,-1.8643,-1.8159,-1.8114,-1.8163,-1.7997,-1.7499,-1.7052,-1.7052,-1.7002,-1.7016,-1.7175,-1.7625,-1.8076,-1.8386,0.0,0.0,-2.269,-2.4602,-2.6097,-2.6751,-2.7984,0.0,0.0,0.0,0.0,0.0,0.0,0.0,0.0,-2.8758,-2.8821,-2.8916,-2.8916,-2.8117,-2.6347,-2.6293,-2.624,-2.6133,-2.6026,-2.6094,-2.6375,-2.6244,-2.6379,0.0,0.0,0.0,-2.6779,-2.6779,-2.6606,-2.6244,-2.5988,-2.5439,-2.4751,-2.4465,-2.4176,-2.3813,0.0,0.0,0.0,0.0,0.0,0.0,0.0,0.0,0.0,0.0,0.0,0.0,0.0,0.0,0.0,0.0,0.0,0.0,0.0,0.0,0.0,-2.0426,-2.0342,-2.0697,-2.1535,-2.0818,-2.0918,-2.1909,-2.2656,-2.3124,-2.3397,-2.4483,-2.4179,-2.2613,-2.0975,-2.0152,-1.9993,-1.9993,0.0,0.0,0.0,0.0,0.0,0.0,0.0,0.0,0.0,0.0,0.0,-1.8658,-1.8582,-1.8426,-1.862,0.0,0.0,0.0,0.0,0.0,-1.9283,-1.9698,-1.9607,-1.8114,-1.8236,-1.849,-1.7623,-1.7344,-1.7261,-1.7261,-1.7077,-1.7271,-1.8478,-1.8219,-1.8519,-2.0529,0.0,-2.2422,0.0,0.0,-2.5329,-2.5983,0.0,0.0,0.0,0.0,0.0,0.0,0.0,0.0,0.0,-2.7249,-2.7517,-2.8129,-2.8189,-2.8322,-2.8607,-2.8575,-2.8575,-2.856,-2.8432,-2.8094,-2.76,-2.7485,-2.7174,0.0,0.0,-2.6779,-2.6779,-2.6779,-2.6447,-2.5948,-2.5893,-2.5495,-2.4948,-2.4892,-2.4835,-2.4708,0.0,0.0,0.0,0.0,0.0,0.0,0.0,0.0,0.0,0.0,0.0,0.0,0.0,0.0,0.0,0.0,0.0,0.0,0.0,0.0,-2.0471,-2.0501,-2.0465,-2.088,-2.1788,-2.1403,-2.1835,-2.3144,-2.3542,-2.3995,-2.4444,-2.4208,-2.3147,-2.1413,-2.0612,-2.0175,-2.0041,-2.0041,-1.9912,0.0,0.0,0.0,0.0,0.0,0.0,0.0,0.0,0.0,0.0,0.0,-1.8303,-1.8522,-1.8619,0.0,0.0,0.0,0.0,0.0,-1.8681,-1.9363,-1.9856,-1.9038,-1.9499,-2.0018,-1.9563,-1.9249,-1.9015,-1.9015,-1.8816,-1.8817,-1.9488,-1.9509,-2.0021,-2.1913,0.0,-2.4199,-2.4509,-2.5628,-2.652,0.0,0.0,0.0,0.0,0.0,0.0,0.0,0.0,0.0,0.0,0.0,-2.7891,-2.8216,-2.8572,-2.8929,-2.9253,-2.9643,-2.9617,-2.9074,-2.8951,-2.8654,-2.8207,-2.8094,-2.768,-2.7144,0.0,-2.6989,-2.6779,-2.6779,-2.6553,-2.6096,-2.5948,-2.5633,-2.5257,-2.5075,-2.5005,-2.4948,0.0,0.0,0.0,0.0,0.0,0.0,0.0,0.0,0.0,0.0,0.0,0.0,0.0,0.0,0.0,0.0,0.0,0.0,0.0,-2.0373,-2.0521,-2.0501,-2.0507,-2.0996,-2.2088,-2.1891,-2.2619,-2.4292,-2.43,-2.4637,-2.5215,-2.365,-2.2067,-2.0539,-2.028,-2.0152,-2.0088,-2.0069,-1.9991,0.0,0.0,0.0,0.0,0.0,0.0,0.0,0.0,0.0,0.0,0.0,0.0,0.0,0.0,0.0,0.0,-1.8092,-1.8252,-1.852,-1.8258,-1.8878,-1.9619,-1.9757,-2.0388,-2.1,-2.1139,-2.0735,-2.0367,-2.0535,-2.0347,-2.0228,-2.0407,-2.0853,0.0,-2.3093,-2.4437,-2.5376,-2.5531,-2.6689,0.0,0.0,0.0,0.0,0.0,0.0,0.0,0.0,0.0,0.0,0.0,0.0,-2.7942,-2.8146,-2.8638,-2.8986,-2.9168,-2.9731,-2.9828,-2.9438,-2.9273,-2.9028,-2.8654,-2.8496,-2.8125,-2.7524,-2.7524,-2.7321,-2.7063,-2.7063,-2.6788,-2.6351,-2.6096,-2.5798,-2.5369,-2.5061,-2.5005,-2.4948,0.0,0.0,0.0,0.0,0.0,0.0,0.0,0.0,0.0,0.0,0.0,0.0,0.0,0.0,0.0,0.0,0.0,0.0,0.0,-2.0111,-2.0579,-2.0508,-2.0508,-2.1288,-2.2976,-2.221,-2.262,-2.4296,-2.4307,-2.4277,-2.4188,-2.3308,-2.2337,-2.1292,-2.047,-2.0098,-2.0088,-1.9971,-1.9918,-1.9877,-1.9682,0.0,0.0,0.0,0.0,0.0,0.0,0.0,0.0,0.0,0.0,0.0,0.0,0.0,-1.9053,-1.8998,-1.8491,-1.8127,-1.8815,-1.8861,-1.887,-1.9595,-1.9899,-2.0144,-2.0697,-2.0322,-2.0012,-2.0648,-2.0558,-2.0594,-2.1275,-2.1943,-2.2852,-2.4317,-2.4688,-2.5251,0.0,0.0,0.0,0.0,0.0,0.0,0.0,0.0,0.0,0.0,0.0,0.0,0.0,0.0,0.0,-2.7367,-2.7433,-2.7798,-2.8456,-2.8506,-2.9161,-3.0384,-3.0189,-2.9766,-2.9134,-2.8935,-2.8511,-2.7864,-2.7864,-2.7864,-2.7815,-2.7815,-2.7312,-2.6457,-2.6457,-2.5865,-2.5005,-2.5005,-2.5005,-2.5005,0.0,0.0,0.0,0.0,0.0,0.0,0.0,0.0,0.0,0.0,0.0,0.0,0.0,0.0,0.0,0.0,0.0,0.0,0.0,-1.9275,-1.9763,-1.9682,-2.021,-2.1038,-2.2201,-2.2438,-2.3381,-2.5109,-2.4577,-2.3973,-2.3345,-2.2485,-2.1575,-2.0649,-2.0269,-2.0088,-2.0108,-2.005,-2.0001,-1.9903,-1.9295,0.0,0.0,0.0,0.0,0.0,0.0,0.0,0.0,0.0,-1.7103,-1.7912,-1.7687,-1.8306,-1.8888,-1.7907,-1.7744,-1.7871,-1.7672,-1.8193,-1.886,-1.9164,-1.9946,-2.0791,-2.1306,-2.1708,-2.2011,-2.2195,-2.2031,-2.1936,-2.2099,-2.2804,-2.3657,-2.456,-2.5214,-2.5932,0.0,0.0,0.0,0.0,0.0,0.0,0.0,0.0,0.0,0.0,0.0,0.0,0.0,0.0,0.0,-2.708,-2.7553,-2.7924,-2.8142,-2.8614,-2.9121,-2.9623,-2.9128,-2.8681,-2.8287,-2.8519,-2.8261,-2.7656,-2.8071,-2.811,-2.7898,-2.7898,-2.755,-2.6953,-2.6351,-2.566,-2.5005,-2.5005,-2.5005,-2.5005,0.0,0.0,0.0,0.0,0.0,0.0,0.0,0.0,0.0,0.0,0.0,0.0,0.0,0.0,0.0,0.0,0.0,0.0,-1.7518,-1.8379,-1.8865,-1.8821,-1.9661,-2.0508,-2.1309,-2.2188,-2.3326,-2.4785,-2.4183,-2.3423,-2.2501,-2.1913,-2.1278,-2.0606,-2.0267,-2.0269,-2.0499,-2.0174,-2.0021,-1.9944,-1.9301,-1.8305,0.0,0.0,0.0,0.0,0.0,0.0,0.0,0.0,-1.6292,-1.7209,0.0,-1.7835,-1.8489,-1.74,-1.7472,-1.7711,-1.6866,-1.7577,-1.8625,-1.8789,-2.0005,-2.1277,-2.1791,-2.2435,-2.3035,-2.3407,-2.3387,-2.3146,-2.2763,-2.3215,0.0,0.0,-2.5502,0.0,0.0,0.0,0.0,0.0,0.0,0.0,0.0,0.0,0.0,0.0,0.0,0.0,0.0,0.0,0.0,0.0,-2.7486,-2.7742,-2.7691,-2.8186,-2.8442,-2.8442,-2.7905,-2.7701,-2.7826,-2.7997,-2.7819,-2.7422,-2.7844,-2.7891,-2.7641,-2.7641,-2.7461,-2.7116,-2.6477,-2.5825,-2.5286,-2.5286,-2.5174,-2.5005,0.0,0.0,0.0,0.0,0.0,0.0,0.0,0.0,0.0,0.0,0.0,0.0,0.0,0.0,0.0,0.0,0.0,0.0,-1.668,-1.7501,-1.7984,-1.8008,-1.8828,-1.9685,-2.0488,-2.1349,-2.2182,-2.2998,-2.2979,-2.2555,-2.1694,-2.1694,-2.1615,-2.1451,-2.0595,-2.0649,-2.1321,-2.0332,-1.995,-1.9991,-1.9842,-1.8828,-1.7404,0.0,0.0,0.0,0.0,0.0,0.0,0.0,-1.5579,-1.5877,-1.7412,0.0,-1.7907,-1.7889,-1.7889,-1.7695,-1.6756,-1.7181,-1.8041,-1.8556,-2.0006,-2.1458,-2.199,-2.2099,-2.2517,-2.3995,-2.4304,-2.4058,-2.326,-2.3095,0.0,-2.5156,0.0,0.0,0.0,0.0,0.0,0.0,0.0,0.0,0.0,0.0,0.0,0.0,0.0,0.0,0.0,0.0,0.0,0.0,-2.7006,-2.7006,-2.7006,-2.7006,-2.7006,-2.7006,-2.6791,-2.7171,-2.8079,-2.7607,-2.728,-2.7099,-2.7099,-2.7099,-2.7099,-2.7099,-2.7005,-2.6877,-2.6878,-2.6481,-2.5879,-2.5879,-2.5495,-2.5005,0.0,0.0,0.0,0.0,0.0,0.0,0.0,0.0,0.0,0.0,0.0,0.0,0.0,0.0,0.0,0.0,0.0,0.0,-1.5779,-1.6602,-1.7359,-1.7969,-1.8828,-1.9686,-2.0474,-2.0753,-2.1572,-2.3007,-2.2392,-2.1948,-2.1694,-2.1694,-2.1294,-2.0595,-2.096,-2.0888,-2.0451,-2.0125,-1.9979,-1.9939,-1.9235,-1.8598,-1.7966,0.0,0.0,0.0,0.0,0.0,0.0,0.0,0.0,0.0,-1.62,0.0,-1.7814,-1.7322,-1.7129,-1.7001,-1.6721,-1.7152,-1.7876,-1.8646,-2.0334,-2.1856,-2.2069,-2.2546,-2.3053,-2.339,-2.347,-2.3383,-2.313,-2.3095,0.0,-2.5156,0.0,0.0,0.0,0.0,0.0,0.0,0.0,0.0,0.0,0.0,0.0,0.0,0.0,0.0,0.0,0.0,0.0,0.0,-2.7491,-2.7491,-2.7491,-2.7491,-2.7491,-2.7491,-2.7293,-2.7112,-2.6966,-2.694,-2.6848,-2.6752,-2.7005,-2.7099,-2.7099,-2.6997,-2.6636,-2.6166,-2.6063,-2.5683,-2.5112,-2.5112,-2.5066,-2.5005,0.0,0.0,0.0,0.0,0.0,0.0,0.0,0.0,0.0,0.0,-1.5189,0.0,0.0,0.0,0.0,0.0,0.0,0.0,0.0,-1.59,-1.6576,-1.744,-1.8319,-1.9335,-2.0507,-2.0205,-2.0504,-2.1486,-2.1321,-2.1216,-2.1214,-2.1214,-2.1056,-2.0773,-2.0966,-2.0903,-2.0585,-2.0203,-2.0019,-1.9922,-1.933,-1.8648,-1.7861,0.0,0.0,0.0,0.0,0.0,0.0,0.0,0.0,0.0,-1.5625,-1.635,-1.7045,-1.6904,-1.7016,-1.724,-1.7469,-1.8002,-1.8769,-1.9854,-2.1078,-2.2118,-2.2418,-2.3111,-2.3587,-2.3172,-2.3365,-2.3488,-2.3172,-2.3095,0.0,0.0,0.0,0.0,0.0,0.0,0.0,0.0,0.0,0.0,0.0,0.0,0.0,0.0,0.0,0.0,0.0,0.0,0.0,0.0,-2.7701,-2.7701,-2.7701,-2.7701,-2.7701,-2.7701,-2.7569,-2.7289,-2.6939,-2.6571,-2.6319,-2.616,-2.6261,-2.6261,-2.6277,-2.6461,-2.6255,-2.5831,-2.6031,-2.5699,-2.5056,-2.4853,-2.4693,-2.4559,0.0,0.0,0.0,0.0,0.0,0.0,0.0,0.0,0.0,0.0,-1.5189,-1.5237,0.0,0.0,0.0,0.0,0.0,0.0,0.0,0.0,-1.5812,-1.6787,-1.7724,-1.8974,-2.0573,-1.9744,-1.9315,-1.9327,-2.0032,-2.0376,-2.0371,-2.0546,-2.0928,-2.1456,-2.0792,-2.0754,-2.112,-2.0327,-1.9848,-1.9669,-1.9677,-1.8719,-1.7281,-1.7224,0.0,0.0,0.0,0.0,0.0,0.0,0.0,0.0,-1.5573,-1.5796,-1.5919,-1.6547,-1.7235,-1.7946,-1.8574,-1.9272,-2.0196,-2.167,-2.2106,-2.2359,-2.2944,-2.3664,-2.3962,-2.326,-2.3681,-2.3962,-2.3242,-2.3095,0.0,0.0,0.0,0.0,0.0,0.0,0.0,0.0,0.0,0.0,0.0,0.0,0.0,0.0,0.0,0.0,0.0,0.0,0.0,0.0,-2.7701,-2.7701,-2.7701,-2.7701,-2.7701,0.0,-2.7701,-2.7642,-2.7557,-2.6556,-2.5872,-2.5465,-2.5146,-2.5005,-2.5069,-2.5661,-2.5806,-2.5675,-2.6268,-2.6075,-2.5371,-2.4882,-2.434,-2.3807,0.0,0.0,0.0,0.0,0.0,0.0,0.0,0.0,0.0,0.0,0.0,0.0,0.0,0.0,0.0,0.0,0.0,0.0,0.0,0.0,-1.6085,-1.7645,-1.9207,-2.0222,-2.0593,-1.9744,-1.9608,-2.0223,-1.972,-1.9488,-1.9502,-2.0823,-2.1166,-2.0675,-2.1146,-2.0634,-1.9424,-1.9182,-1.8631,-1.7933,-1.7869,-1.7629,-1.7224,-1.6597,-1.6127,0.0,0.0,0.0,0.0,0.0,0.0,0.0,-1.5603,-1.5836,-1.5833,-1.6052,-1.6589,-1.7293,-1.8108,-1.8836,-1.9829,-2.1816,-2.2592,-2.2933,-2.3084,-2.3242,-2.3312,-2.3154,-2.3242,-2.3312,-2.3137,-2.3095,0.0,0.0,0.0,0.0,0.0,0.0,0.0,0.0,0.0,0.0,0.0,0.0,0.0,0.0,0.0,0.0,0.0,0.0,0.0,-2.7701,-2.7701,-2.7701,-2.7701,-2.7701,-2.7701,0.0,-2.7701,-2.7642,-2.7587,-2.6987,-2.6282,-2.5465,-2.5146,-2.5005,-2.5021,-2.5163,-2.5067,-2.4838,-2.502,-2.4912,-2.464,-2.4177,-2.3969,-2.3807,0.0,0.0,0.0,0.0,0.0,0.0,0.0,0.0,0.0,0.0,0.0,0.0,0.0,0.0,0.0,0.0,0.0,0.0,0.0,-1.5402,-1.5987,-1.7314,-1.8641,-1.9365,-1.9365,-1.8492,-1.8476,-1.9294,-1.8438,-1.8634,-1.9832,-2.0682,-2.0842,-2.0457,-2.041,-1.9838,-1.8866,-1.8417,-1.7909,-1.7387,-1.7342,-1.7087,-1.6714,-1.6279,-1.5846,-1.5423,-1.4973,0.0,0.0,0.0,0.0,0.0,0.0,0.0,-1.5402,-1.5785,-1.6404,-1.7191,-1.8372,-1.947,-2.0734,-2.2612,-2.3164,-2.3295,-2.3295,-2.3199,-2.3095,-2.3095,-2.3095,-2.3095,-2.3095,0.0,0.0,0.0,0.0,0.0,0.0,0.0,0.0,0.0,0.0,0.0,0.0,0.0,0.0,0.0,0.0,0.0,0.0,-2.7701,-2.7701,-2.7701,-2.7701,-2.7701,-2.7701,-2.7701,-2.7701,-2.7701,-2.7701,-2.7659,-2.7526,-2.6872,-2.6177,-2.5465,-2.5146,-2.5005,-2.5005,-2.5005,-2.4886,-2.4686,-2.463,-2.4559,-2.4425,-2.3656,-2.3414,-2.332,0.0,0.0,0.0,0.0,0.0,0.0,0.0,0.0,0.0,0.0,0.0,0.0,0.0,0.0,0.0,0.0,0.0,0.0,0.0,-1.5539,-1.5947,-1.6669,-1.7528,-1.7998,-1.7998,-1.7157,-1.7124,-1.8008,-1.7123,-1.8008,-2.0497,-2.0289,-2.0303,-2.0444,-1.9676,-1.9085,-1.864,-1.7911,-1.738,-1.6999,-1.6941,-1.6545,-1.5977,-1.5904,-1.5442,-1.4794,-1.4794,-1.4794,-1.4794,-1.4794,0.0,0.0,0.0,0.0,-1.4916,-1.5538,-1.6235,-1.7126,-1.8485,-2.0165,-2.1862,-2.3295,-2.3577,-2.3504,-2.3504,-2.3295,-2.3095,-2.3095,-2.3095,-2.3095,0.0,0.0,0.0,0.0,0.0,0.0,0.0,0.0,0.0,0.0,0.0,0.0,0.0,0.0,0.0,0.0,0.0,0.0,-2.7444,-2.7508,-2.7561,-2.7701,-2.7701,-2.7701,-2.7701,-2.7701,-2.7701,-2.7701,-2.7701,-2.763,-2.7465,-2.6607,-2.5999,-2.5577,-2.5185,-2.5005,-2.5005,-2.5005,-2.4886,-2.4742,-2.463,-2.4564,-2.4317,-2.329,-2.2889,-2.2754,0.0,0.0,0.0,0.0,0.0,0.0,0.0,0.0,0.0,0.0,-1.5189,-1.5237,-1.5299,-1.5303,0.0,0.0,0.0,0.0,-1.5401,0.0,0.0,-1.6689,-1.7528,-1.7998,-1.7998,-1.7157,-1.7125,-1.8008,-1.7122,-1.7998,-2.0476,-1.9709,-1.974,-2.0418,-2.0277,-1.9347,-1.7857,-1.7748,-1.6809,-1.5415,-1.5407,-1.5274,-1.5066,-1.5058,-1.496,-1.4794,-1.4794,-1.4794,-1.4794,-1.4794,-1.4794,0.0,0.0,0.0,0.0,-1.4916,-1.5504,-1.6332,-1.7223,-1.952,-2.1897,-2.2795,-2.3247,-2.3504,-2.3504,-2.3295,-2.3095,0.0,-2.3095,0.0,0.0,0.0,0.0,0.0,0.0,0.0,0.0,0.0,0.0,0.0,0.0,0.0,0.0,0.0,0.0,0.0,0.0,0.0,-2.6632,-2.6725,-2.7052,-2.7683,-2.7701,-2.7701,-2.7701,-2.7701,-2.7701,-2.7701,-2.7701,-2.763,-2.7465,-2.6724,-2.6229,-2.598,-2.5285,-2.5005,-2.5005,-2.5005,-2.4846,-2.463,-2.4589,-2.4467,-2.4219,-2.3246,-2.2889,-2.2754,0.0,0.0,0.0,0.0,0.0,0.0,0.0,0.0,0.0,0.0,0.0,-1.5201,-1.5234,-1.5234,0.0,0.0,0.0,0.0,-1.5401,-1.5753,0.0,-1.5967,-1.6339,-1.6534,-1.6534,-1.6163,-1.64,-1.7263,-1.6406,-1.7525,-2.0477,-1.9613,-2.0147,-2.1801,-2.0848,-1.9935,-1.9053,-1.7581,-1.6529,-1.5786,-1.5304,-1.5367,-1.5673,-1.5106,-1.5182,-1.5526,-1.4991,-1.4794,-1.4794,-1.4794,-1.4794,-1.4794,-1.4794,0.0,0.0,0.0,-1.5395,-1.6434,-1.8148,-1.9536,-2.0936,-2.2641,-2.3029,-2.3127,-2.3707,-2.3445,-2.3126,-2.3295,0.0,0.0,0.0,0.0,0.0,0.0,0.0,0.0,0.0,0.0,0.0,0.0,0.0,0.0,0.0,0.0,0.0,0.0,0.0,-2.5067,-2.5782,-2.5873,-2.6086,-2.6402,-2.6402,-2.663,-2.7087,-2.7087,-2.7297,-2.7701,-2.7701,-2.7504,-2.7164,-2.664,-2.6298,-2.6068,-2.5323,-2.5005,-2.5005,-2.4942,-2.4806,-2.4686,-2.4605,-2.4482,-2.4276,-2.329,-2.2889,-2.2754,0.0,0.0,0.0,0.0,0.0,0.0,0.0,0.0,0.0,0.0,0.0,0.0,-1.5189,0.0,0.0,0.0,0.0,0.0,-1.5401,0.0,0.0,0.0,0.0,-1.5402,-1.5402,-1.5402,-1.5714,-1.6377,-1.5721,-1.7143,-2.0486,-1.9814,-2.0983,-2.3566,-2.1804,-2.0643,-1.9864,-1.7909,-1.6952,-1.6682,-1.5824,-1.5843,-1.6375,-1.6067,-1.6211,-1.6464,-1.5733,-1.5348,-1.5132,-1.4888,-1.4794,-1.4794,-1.4794,-1.4794,0.0,0.0,0.0,-1.5911,-1.7905,-1.8709,-1.9521,-2.173,-2.2317,-2.2627,-2.3583,0.0,-2.3,0.0,0.0,0.0,0.0,0.0,0.0,0.0,0.0,0.0,0.0,0.0,0.0,0.0,0.0,0.0,0.0,0.0,0.0,0.0,0.0,-2.4182,-2.495,-2.504,-2.5181,-2.5374,-2.5374,-2.57,-2.6297,-2.6314,-2.6683,-2.742,-2.7391,-2.7222,-2.6888,-2.6539,-2.6193,-2.5908,-2.5285,-2.5005,-2.5005,-2.4902,-2.4822,-2.4726,-2.4564,-2.4482,-2.4317,-2.3421,-2.3024,-2.2799,0.0,0.0,0.0,0.0,0.0,0.0,0.0,0.0,0.0,0.0,0.0,0.0,-1.5189,-1.5189,-1.5224,-1.5284,0.0,0.0,0.0,0.0,0.0,0.0,0.0,0.0,-1.5402,-1.5402,-1.5421,-1.546,-1.5429,-1.7143,-2.0506,-2.0387,-2.2142,-2.529,-2.3547,-2.1424,-1.9142,-1.9026,-1.8484,-1.7653,-1.6841,-1.6461,-1.6561,-1.819,-1.8263,-1.7516,-1.7403,-1.6827,-1.5984,-1.5104,-1.4794,-1.4794,-1.4794,-1.4794,-1.4794,0.0,0.0,0.0,-1.4813,-1.6178,-1.7725,-1.9372,-2.0754,-2.1951,0.0,0.0,0.0,0.0,0.0,0.0,0.0,0.0,0.0,0.0,0.0,0.0,0.0,0.0,0.0,0.0,0.0,0.0,0.0,0.0,0.0,0.0,0.0,-2.3293,-2.4031,-2.4173,-2.4585,-2.5275,-2.5374,-2.5419,-2.5472,-2.5472,-2.5875,-2.6665,-2.658,-2.6675,-2.6888,-2.642,-2.5964,-2.5503,-2.513,-2.5005,-2.5005,-2.5005,-2.4846,-2.4589,-2.4589,-2.4467,-2.4261,-2.3739,-2.329,-2.2844,0.0,0.0,0.0,0.0,0.0,0.0,0.0,0.0,0.0,0.0,0.0,0.0,0.0,-1.5189,-1.5237,-1.5279,-1.5307,0.0,0.0,0.0,0.0,0.0,0.0,0.0,-1.5402,-1.5402,-1.5402,-1.5402,-1.5406,-1.6582,-1.8831,-1.9386,-2.0262,-2.1432,-2.2443,-2.2384,-2.143,-1.9786,-1.8916,-1.8567,-1.7716,-1.7686,-1.8146,-1.8153,-1.8299,-1.8424,-1.7791,-1.7335,-1.6979,-1.6649,-1.613,-1.5545,-1.4991,-1.4447,-1.3931,-1.3405,-1.3424,-1.3641,-1.3905,-1.5168,-1.669,-1.7795,-1.9124,-2.0404,-2.1343,-2.2027,-2.2548,0.0,0.0,0.0,0.0,0.0,0.0,0.0,0.0,0.0,0.0,0.0,0.0,0.0,0.0,0.0,0.0,0.0,0.0,0.0,0.0,0.0,-2.3215,-2.3337,-2.351,-2.3746,-2.3824,-2.4121,-2.4682,-2.5156,-2.5515,-2.5785,-2.5757,-2.5518,-2.5108,-2.538,-2.5111,-2.4477,-2.4839,-2.5005,-2.5005,-2.4902,-2.4766,-2.4589,-2.4564,-2.4441,-2.4261,-2.3767,-2.3508,-2.3246,0.0,0.0,0.0,0.0,0.0,0.0,0.0,0.0,-1.5171,-1.5209,0.0,0.0,0.0,0.0,-1.5237,-1.5279,-1.5291,-1.5295,-1.5306,-1.5357,0.0,0.0,0.0,0.0,-1.5402,-1.5402,-1.5402,-1.5402,-1.5402,-1.6269,-1.7902,-1.8494,-1.9046,-1.9594,-2.0989,-2.1798,-2.1952,-2.025,-1.9535,-1.9457,-1.8587,-1.8587,-1.9122,-1.9362,-1.9464,-1.9458,-1.9373,-1.8765,-1.8009,-1.7983,-1.7358,-1.6451,-1.5555,-1.4502,-1.3386,-1.2286,-1.2335,-1.2759,-1.2716,-1.3727,-1.5113,-1.6466,-1.73,-1.8315,-2.0336,0.0,0.0,0.0,0.0,0.0,0.0,0.0,0.0,0.0,0.0,0.0,0.0,0.0,0.0,0.0,0.0,0.0,0.0,0.0,0.0,0.0,0.0,0.0,-2.2764,-2.2842,-2.2893,-2.2893,-2.2927,-2.3239,-2.3823,-2.4305,-2.4663,-2.4898,-2.4853,-2.462,-2.424,-2.4563,-2.4356,-2.3756,-2.4395,-2.4784,-2.5005,-2.4886,-2.4766,-2.4589,-2.4564,-2.4441,-2.4261,-2.3952,-2.3739,-2.3465,0.0,0.0,0.0,0.0,0.0,0.0,0.0,0.0,-1.5158,-1.5183,0.0,0.0,0.0,0.0,0.0,-1.5338,-1.5342,-1.5321,-1.5303,-1.5354,0.0,0.0,0.0,0.0,-1.5402,-1.5402,-1.5402,-1.5402,-1.5402,-1.623,-1.7822,-1.7842,-1.8732,-2.0245,-1.9435,-1.9521,-2.0321,-2.0321,-2.0341,-2.0321,-1.9457,-1.9128,-1.9457,-2.1913,-2.1875,-2.0682,-2.2242,-2.1217,-1.9095,-1.9035,-1.8428,-1.7497,-1.6472,-1.4968,-1.3255,-1.1621,-1.1164,-1.1164,0.0,0.0,0.0,-1.53,0.0,0.0,-1.9745,0.0,0.0,0.0,0.0,0.0,0.0,0.0,0.0,0.0,0.0,0.0,0.0,0.0,0.0,0.0,0.0,0.0,0.0,0.0,0.0,0.0,0.0,-2.2712,-2.2712,-2.2764,-2.2842,-2.2876,-2.2893,-2.2893,-2.2893,-2.2893,-2.3284,-2.4059,-2.3935,-2.4076,-2.4435,-2.4046,-2.3687,-2.3393,-2.374,-2.4286,-2.4974,-2.5005,-2.4846,-2.4589,-2.4589,-2.4467,-2.4302,-2.4302,-2.3994,-2.3508,0.0,0.0,0.0,0.0,0.0,-1.5651,-1.5125,-1.5644,-1.5888,0.0,0.0,0.0,-1.5599,-1.5907,-1.6144,-1.6162,-1.6168,-1.5904,-1.5259,-1.5293,-1.5323,-1.5323,-1.5379,-1.5401,-1.5401,-1.5397,-1.5402,-1.5402,-1.5402,-1.5639,-1.6112,-1.6736,-1.7247,-1.766,-1.8053,-1.8339,-1.8529,-1.8529,-1.9244,-2.0321,-1.9457,-1.9863,-2.1069,-2.1765,-2.2114,-2.2262,-2.2712,-2.2385,-2.1751,-2.1735,-2.0694,-1.8931,-1.6195,-1.4144,-1.2643,-1.2174,-1.2455,-1.2635,-1.1427,0.0,0.0,0.0,0.0,0.0,0.0,0.0,0.0,0.0,0.0,0.0,0.0,0.0,0.0,0.0,0.0,0.0,0.0,0.0,0.0,0.0,0.0,0.0,0.0,0.0,0.0,0.0,-2.2859,-2.2764,-2.2712,-2.2712,-2.2764,-2.2842,-2.2842,-2.2868,-2.2893,-2.2893,-2.2998,-2.3154,-2.3128,-2.301,-2.2863,-2.3274,-2.3298,-2.2998,-2.3361,-2.3875,-2.4457,-2.4744,-2.4766,-2.4589,-2.4564,-2.4441,-2.4302,-2.4302,-2.3994,-2.3508,0.0,0.0,0.0,-1.5376,-1.6137,-1.6605,-1.6201,-1.6615,-1.6784,0.0,0.0,0.0,-1.6292,-1.7023,-1.726,-1.6561,-1.6503,-1.6138,-1.5266,-1.5255,-1.5303,-1.5303,-1.5349,-1.5379,-1.539,-1.5405,-1.5395,-1.5402,-1.5402,-1.5403,-1.5404,-1.5918,-1.6148,-1.6114,-1.6255,-1.6682,-1.7244,-1.6522,-1.762,-1.9877,-2.0095,-2.0798,-2.1785,-2.2481,-2.2803,-2.2997,-2.3712,-2.3497,-2.2898,-2.3265,-2.1927,-1.9571,-1.6529,-1.4828,-1.3733,-1.2707,-1.2963,-1.3311,-1.1997,-1.2692,-1.3612,-1.2834,0.0,0.0,0.0,-1.5988,0.0,0.0,0.0,0.0,0.0,0.0,0.0,0.0,0.0,0.0,0.0,0.0,0.0,0.0,0.0,0.0,0.0,0.0,0.0,-2.3025,-2.291,-2.2816,-2.279,-2.2764,-2.2764,-2.2816,-2.2764,-2.279,-2.2816,-2.2816,-2.279,-2.2764,-2.2764,-2.2642,-2.2409,-2.2711,-2.2723,-2.2578,-2.2965,-2.3237,-2.3398,-2.3909,-2.4288,-2.4564,-2.4539,-2.44,-2.4302,-2.4302,-2.4135,-2.3824,0.0,0.0,-1.6165,-1.6174,-1.6979,-1.7604,-1.7603,-1.7677,-1.7719,0.0,-1.7702,-1.7773,-1.7965,-1.8588,-1.8395,-1.6907,-1.6696,-1.6272,-1.5407,-1.5308,-1.5294,-1.5294,-1.5299,-1.5336,-1.5382,-1.5385,-1.5399,-1.54,-1.54,-1.5402,-1.5405,-1.5406,-1.5351,-1.5229,-1.4456,-1.4912,-1.6212,-1.4861,-1.6102,-1.9115,-2.0759,-2.1572,-2.2017,-2.3596,-2.377,-2.3383,-2.495,-2.4505,-2.3287,-2.3964,-2.2508,0.0,-1.7588,-1.6641,-1.5951,-1.3645,-1.3468,-1.3854,-1.3027,-1.2877,-1.3226,-1.4372,0.0,0.0,-1.6204,-1.5642,0.0,0.0,0.0,0.0,0.0,0.0,0.0,0.0,0.0,0.0,0.0,0.0,0.0,0.0,0.0,0.0,0.0,-2.3045,-2.2977,-2.2952,-2.2902,-2.2893,-2.2893,-2.2842,-2.2816,-2.2816,-2.2738,-2.2712,-2.2712,-2.2712,-2.2712,-2.2712,-2.2712,-2.2712,-2.2685,-2.2392,-2.2265,-2.2271,-2.2595,-2.2555,-2.2328,-2.2801,-2.3554,-2.4389,-2.4389,-2.4338,-2.4302,-2.4302,-2.4261,-2.4094,0.0,-1.5397,-1.598,-1.6035,-1.7296,-1.8151,-1.7666,-1.8149,-1.8354,-1.7785,-1.7702,-1.8234,-1.9638,-1.9319,-1.8876,-1.8549,-1.7876,-1.7119,-1.6292,-1.5592,-1.5212,-1.5212,-1.527,-1.5302,-1.5311,-1.5322,-1.5351,-1.5399,-1.5399,-1.5409,-1.5403,-1.5405,-1.5038,-1.4352,-1.4173,-1.4247,-1.4577,-1.5631,-1.6871,-1.8226,-1.9209,-2.083,-2.2784,-2.3809,-2.4525,-2.5047,-2.5376,-2.5279,-2.4911,-2.4389,-2.3338,-2.1952,0.0,0.0,0.0,-1.6875,-1.6611,-1.6536,-1.5631,-1.5846,-1.593,0.0,0.0,0.0,-1.4607,-1.4044,-1.4129,0.0,0.0,0.0,0.0,0.0,0.0,0.0,0.0,0.0,0.0,0.0,0.0,0.0,0.0,0.0,0.0,-2.3199,-2.3126,-2.3206,-2.2927,-2.2764,-2.2816,-2.2816,-2.2816,-2.2893,-2.2816,-2.279,-2.279,-2.2738,-2.2712,-2.2712,-2.2712,-2.2712,-2.2712,-2.2642,-2.2588,-2.2588,-2.2389,-2.2534,-2.281,-2.2408,-2.2796,-2.3677,-2.3582,-2.384,-2.4302,-2.4302,-2.4036,-2.3724,-1.4755,-1.5778,-1.6655,-1.6696,-1.8073,-1.9128,-1.8887,-1.9191,-1.9341,-1.9035,-1.9004,-1.9331,-2.0196,-1.9908,-1.9473,-1.903,-1.86,-1.783,-1.658,-1.6099,-1.5657,-1.5209,-1.5224,-1.5274,-1.5303,-1.5306,-1.5319,-1.5351,-1.5385,-1.5182,-1.4747,-1.4757,-1.4744,-1.4707,-1.3845,-1.4166,-1.5355,-1.5353,-1.6336,-1.8075,-2.0195,0.0,-2.3095,-2.4361,-2.5124,-2.5505,-2.5507,-2.5511,-2.5298,-2.3983,-2.3211,0.0,-2.0824,-2.023,-1.9886,0.0,-1.8477,-1.8507,-1.716,-1.7083,-1.7082,-1.5762,0.0,0.0,0.0,-1.4494,-1.4429,-1.5224,0.0,0.0,0.0,0.0,0.0,0.0,0.0,0.0,0.0,0.0,0.0,0.0,0.0,0.0,0.0,-2.2964,-2.3126,-2.3199,-2.2977,-2.285,-2.2893,-2.2842,-2.2816,-2.2868,-2.279,-2.2764,-2.2764,-2.2712,-2.2712,-2.2712,-2.2712,-2.2712,-2.2712,-2.2712,-2.2712,-2.2685,-2.2517,-2.2457,-2.2475,-2.2125,-2.226,-2.2702,-2.3118,-2.3502,-2.384,-2.4179,-2.4135,-2.3909,-1.4776,-1.6045,-1.7103,-1.7103,-1.8491,-1.965,-1.9802,-1.9974,-2.0126,-2.0277,-2.0427,-2.0542,-2.0542,-2.0542,-2.0312,-1.9781,-1.9273,-1.8504,-1.7311,-1.6772,-1.6253,-1.5715,-1.5362,-1.5295,-1.5541,-1.5367,-1.5293,-1.5295,-1.519,-1.4778,-1.4106,-1.4106,-1.4389,-1.4862,-1.3789,-1.447,-1.6379,-1.5122,-1.5972,-1.844,0.0,-2.2764,-2.2937,-2.4637,-2.5277,-2.5284,-2.5439,-2.5495,-2.5263,-2.3681,-2.3114,-2.2778,-2.1089,-2.1081,0.0,0.0,0.0,-2.002,-1.8422,-1.8108,0.0,0.0,0.0,-1.6634,0.0,0.0,0.0,-1.5448,0.0,0.0,0.0,0.0,0.0,0.0,0.0,0.0,0.0,0.0,0.0,0.0,0.0,0.0,0.0,-2.2084,-2.2481,-2.2639,-2.2566,-2.2611,-2.2768,-2.2807,-2.2816,-2.2816,-2.2764,-2.2712,-2.2712,-2.2712,-2.2712,-2.2712,-2.2712,-2.2712,-2.2712,-2.2712,-2.2712,-2.2712,-2.2685,-2.2453,-2.2084,-2.194,-2.182,-2.1777,-2.2689,-2.3072,-2.3163,-2.3717,-2.3917,-2.3892,-1.4703,-1.5439,-1.6064,-1.6064,-1.7404,-1.8572,-1.8818,-1.9465,-2.0001,-2.0269,-2.0927,-2.137,-2.137,-2.137,-2.1639,-2.2312,-2.03,-1.9261,-1.9831,-1.7753,-1.6772,-1.7388,-1.5984,-1.5561,-1.6342,-1.5611,-1.5234,-1.5293,-1.4527,-1.4138,-1.4106,-1.4093,-1.3772,-1.3237,-1.4528,-1.5273,-1.5581,-1.6151,-1.7458,0.0,-2.1248,-2.195,0.0,-2.3785,-2.4438,-2.4538,-2.5246,-2.5492,-2.5344,0.0,-2.4053,-2.3744,0.0,-2.2093,-2.2381,-2.0577,0.0,0.0,0.0,0.0,0.0,0.0,-1.844,0.0,0.0,0.0,-1.4626,-1.3997,0.0,0.0,0.0,0.0,0.0,0.0,0.0,0.0,0.0,0.0,0.0,0.0,0.0,0.0,0.0,0.0,-2.0206,-2.0928,-2.0912,-2.1179,-2.1892,-2.2554,-2.2893,-2.2893,-2.2816,-2.279,-2.279,-2.2738,-2.2712,-2.2712,-2.2712,-2.2712,-2.2712,-2.2712,-2.2712,-2.2685,-2.2632,-2.2552,-2.2388,-2.1751,-2.1419,-2.1407,-2.1827,-2.2165,-2.2409,-2.2486,-2.2517,-2.2594,-1.4701,-1.5351,-1.5912,-1.5951,-1.6922,-1.7949,-1.865,-1.9936,-2.0708,-2.0353,-2.1004,-2.1504,-2.1504,-2.1504,-2.185,-2.2716,-2.135,-2.0408,0.0,-1.8831,-1.7876,-1.7722,-1.658,-1.6138,-1.6484,-1.5657,-1.5207,-1.5234,-1.4903,-1.4256,-1.3293,-1.3841,-1.3921,-1.3641,-1.4859,-1.5957,-1.6933,-1.7305,-1.7871,0.0,0.0,0.0,0.0,-2.4066,-2.5083,-2.5109,-2.5435,-2.5552,-2.5415,0.0,-2.3931,0.0,0.0,0.0,0.0,-2.184,0.0,0.0,0.0,0.0,0.0,0.0,0.0,0.0,-1.6158,0.0,-1.4832,0.0,0.0,0.0,0.0,0.0,0.0,0.0,0.0,0.0,0.0,0.0,0.0,0.0,0.0,0.0,0.0,0.0,0.0,0.0,0.0,-2.0657,-2.1808,-2.2076,-2.2391,-2.2825,-2.279,-2.2738,-2.2738,-2.2712,-2.2712,-2.2712,-2.2712,-2.2712,-2.2712,-2.2712,-2.2712,-2.2685,-2.2632,-2.2569,-2.247,-2.2118,-2.1721,-2.1293,-2.144,-2.1613,-2.1784,-2.2147,-2.2286,-2.2332,-1.498,-1.5314,-1.5588,-1.5635,-1.6525,-1.7651,-1.8916,-2.0276,-2.0966,-2.0389,-2.1004,-2.16,-2.1831,-2.187,-2.2293,-2.3389,-2.2485,-2.162,0.0,-1.9965,-1.9069,-1.8446,-1.7407,-1.683,-1.683,-1.5984,-1.5445,-1.5189,-1.5008,-1.4275,-1.3077,-1.3749,-1.408,-1.4159,-1.5498,-1.6794,-1.8027,0.0,-1.8633,-1.918,-2.0449,-2.1347,-2.2181,-2.4461,-2.5466,-2.5629,-2.5619,-2.5636,-2.5499,-2.4596,-2.3875,0.0,-2.3825,0.0,0.0,0.0,0.0,0.0,-2.0923,0.0,0.0,0.0,0.0,0.0,0.0,0.0,0.0,0.0,0.0,0.0,0.0,0.0,0.0,-1.2705,0.0,0.0,0.0,0.0,0.0,0.0,0.0,0.0,0.0,0.0,0.0,0.0,0.0,0.0,-2.092,-2.1464,-2.1975,-2.2487,-2.2634,-2.2712,-2.2712,-2.2712,-2.2712,-2.2712,-2.2712,-2.2712,-2.2712,-2.2712,-2.2712,-2.2685,-2.2605,-2.2525,-2.2487,-2.2304,-2.1915,-2.1432,-2.1339,-2.1229,-2.1197,-2.1599,-2.1732,-2.1763,-1.5704,-1.5258,-1.4738,-1.4749,-1.6049,-1.7732,-1.9582,-2.0135,-2.0331,-2.0312,-2.1004,-2.1812,-2.2658,-2.2754,-2.3428,-2.5072,-2.3716,-2.2754,-2.2716,-2.1177,-2.0254,-2.0215,-1.8581,-1.7664,-1.7664,-1.6869,-1.6042,-1.5189,-1.4363,-1.3942,-1.3966,-1.3988,-1.4034,-1.4204,-1.6709,-1.7896,-1.8064,-1.8905,-2.0234,-2.1777,-2.1836,-2.332,-2.5449,0.0,-2.4957,-2.5703,-2.5693,0.0,0.0,-2.4625,-2.4284,0.0,0.0,0.0,0.0,0.0,0.0,0.0,0.0,0.0,0.0,-1.8549,0.0,0.0,0.0,0.0,-1.7065,0.0,0.0,0.0,0.0,-1.6388,-1.5258,-1.3709,-1.3457,0.0,0.0,0.0,0.0,0.0,0.0,0.0,0.0,0.0,0.0,0.0,0.0,0.0,-1.862,-2.0683,-2.1781,-2.1742,-2.2358,-2.2712,-2.2712,-2.2712,-2.2712,-2.2712,-2.2712,-2.2712,-2.2712,-2.2712,-2.2712,-2.2685,-2.2569,-2.2515,-2.246,-2.2003,-2.1827,-2.1751,-2.1432,-2.1103,-2.076,-2.0469,-2.0366,-2.0424,-1.6632,-1.6483,-1.6135,-1.5644,-1.6009,-1.6993,-1.8888,-2.0222,-2.1032,-2.1092,-2.1831,0.0,0.0,-2.3667,-2.4101,0.0,0.0,-2.3667,-2.3667,-2.2043,-2.135,-2.1927,-1.9781,-1.8838,-1.9408,-1.8023,-1.6888,-1.6061,-1.5772,-1.5047,-1.3942,-1.4569,-1.4566,-1.415,-1.6741,-1.7913,0.0,0.0,0.0,0.0,0.0,-2.3906,-2.5664,0.0,0.0,-2.5703,-2.5702,-2.5702,0.0,-2.5327,-2.4832,-2.4413,-2.4703,-2.416,-2.3494,-2.3786,-2.3599,0.0,0.0,0.0,-2.301,-2.0179,0.0,0.0,0.0,0.0,0.0,0.0,0.0,0.0,0.0,-1.6526,-1.5555,-1.446,-1.3857,-1.3012,0.0,0.0,0.0,0.0,0.0,0.0,0.0,0.0,0.0,0.0,0.0,0.0,0.0,-2.0118,-2.1248,-2.1764,-2.2367,-2.2712,-2.2712,-2.2712,-2.2712,-2.2712,-2.2712,-2.2712,-2.2712,-2.2712,-2.2712,-2.2685,-2.2569,-2.2515,-2.2487,-2.222,-2.1991,-2.1797,-2.1691,-2.1293,-2.0794,-2.0662,-2.0494,-2.03,-1.7467,-1.73,-1.6953,-1.6474,-1.6678,-1.7411,-1.8964,-2.0442,-2.1426,0.0,-2.2254,0.0,-2.3995,0.0,-2.4409,0.0,-2.4832,-2.4274,-2.3687,-2.287,0.0,-2.2331,-2.107,-2.0331,-2.0312,-1.9196,-1.7927,-1.6503,-1.6503,-1.5772,-1.4382,-1.4984,-1.4975,-1.4558,-1.6878,-1.7901,-1.8088,-2.0759,-2.1758,0.0,0.0,-2.4707,0.0,0.0,-2.5703,-2.5703,0.0,-2.5703,-2.5703,-2.5703,-2.5331,-2.4956,-2.5521,-2.4896,-2.407,-2.4593,-2.4313,-2.3767,-2.3449,-2.377,0.0,-2.143,-2.0823,0.0,-1.787,0.0,0.0,0.0,0.0,0.0,0.0,0.0,-1.6575,-1.5785,-1.4446,-1.2808,0.0,-1.0822,0.0,0.0,0.0,0.0,0.0,0.0,-1.4107,-1.4788,0.0,0.0,0.0,0.0,-2.0854,-2.147,-2.2279,-2.2712,-2.2712,-2.2712,-2.2712,-2.2712,-2.2712,-2.2712,-2.2712,-2.2712,-2.2712,-2.2685,-2.2569,-2.2515,-2.2487,-2.2366,-2.218,-2.1961,-2.1857,-2.1479,-2.0974,-2.086,-2.0527,-2.0166,-1.8209,-1.7782,-1.7263,-1.7226,-1.7943,0.0,0.0,0.0,-2.1445,0.0,-2.2312,-2.3186,-2.4072,-2.4168,-2.4466,-2.5226,-2.5303,-2.462,-2.3024,-2.3667,0.0,0.0,-2.2389,-2.2062,-2.0523,-2.0408,-1.9158,-1.6696,-1.6599,-1.6118,-1.5266,-1.5209,-1.5229,-1.5362,-1.707,0.0,-1.8067,-2.0717,-2.2381,-2.3398,-2.5039,-2.5703,-2.5703,-2.5703,-2.5703,-2.5703,-2.5703,-2.5703,-2.5703,-2.5703,-2.5703,-2.5703,-2.5703,-2.57,-2.5683,-2.5616,-2.5571,-2.5317,-2.4496,-2.4254,-2.3867,-2.223,0.0,0.0,0.0,0.0,-2.1297,0.0,0.0,0.0,0.0,0.0,-1.8358,-1.7528,-1.5197,-1.2687,-1.0302,0.0,0.0,0.0,0.0,0.0,0.0,-1.1902,-1.193,-1.3943,-1.4082,-1.4819,0.0,0.0,0.0,-2.0872,-2.2017,-2.2677,-2.2712,-2.2712,-2.2712,-2.2712,-2.2712,-2.2712,-2.2712,-2.2712,-2.2712,-2.2685,-2.2569,-2.2515,-2.2487,-2.2349,-2.231,-2.2282,-2.1945,-2.1601,-2.1276,-2.0909,-2.0426,-2.0005,-1.923,-1.9583,-1.9657,0.0,-1.8696,-1.8821,0.0,0.0,0.0,0.0,-2.3225,-2.4082,-2.4909,-2.4986,-2.5082,-2.5284,-2.5303,0.0,0.0,0.0,0.0,-2.4322,-2.3351,-2.2889,-2.3129,-2.185,-2.0581,-1.9331,-1.8023,-1.6965,-1.6157,-1.5503,-1.5201,-1.5281,-1.6421,-1.7281,-1.8022,-2.0072,-2.2168,-2.4199,-2.5273,-2.5703,0.0,0.0,-2.5703,-2.5703,-2.5703,-2.5703,-2.5703,-2.5703,-2.5703,-2.5703,-2.5703,-2.57,-2.5705,-2.5681,-2.5593,-2.544,-2.5227,-2.5168,-2.4911,-2.3828,-2.3074,-2.23,0.0,0.0,0.0,0.0,0.0,0.0,0.0,0.0,0.0,-1.7654,-1.5168,-1.3281,-1.265,0.0,0.0,-1.2501,0.0,0.0,0.0,-1.1836,-1.2524,-1.2423,-1.3413,0.0,0.0,0.0,0.0,-2.0552,-2.1489,-2.2211,-2.2712,-2.2712,-2.2712,-2.2712,-2.2712,-2.2712,-2.2712,-2.2712,-2.2659,-2.2605,-2.2542,-2.246,-2.2405,-2.2338,-2.231,-2.2282,-2.2209,-2.1811,-2.1214,-2.053,-2.017,-2.0045,-2.0047,-2.0771,0.0,-2.0734,0.0,0.0,-2.0363,-2.0907,0.0,-2.2595,-2.3515,0.0,-2.4736,-2.5101,-2.5303,-2.5303,-2.5303,0.0,-2.4793,0.0,0.0,-2.4774,-2.4216,-2.3966,-2.411,-2.2774,0.0,-2.0312,-1.8542,-1.7292,-1.6484,-1.5618,-1.5189,-1.5234,0.0,-1.7066,-1.8066,-2.0588,-2.271,-2.4472,-2.5329,0.0,0.0,-2.5703,-2.5703,-2.5703,-2.5703,-2.5703,-2.5703,-2.5703,-2.5703,-2.5703,-2.5703,-2.5702,-2.5697,-2.5709,-2.5645,-2.5565,-2.5515,-2.5493,-2.5381,-2.488,-2.4409,-2.3828,-2.2977,-2.3144,-2.333,0.0,0.0,0.0,0.0,0.0,0.0,-1.6782,-1.5067,-1.3868,-1.3122,0.0,0.0,0.0,-1.2492,0.0,0.0,0.0,0.0,0.0,0.0,0.0,0.0,0.0,0.0,-1.9735,-2.1074,-2.201,-2.2461,-2.2818,-2.3017,-2.3,-2.2927,-2.285,-2.2868,-2.2764,-2.2659,-2.2596,-2.2542,-2.246,-2.2377,-2.2338,-2.231,-2.2282,-2.2152,-2.1751,-2.1229,-2.0681,-2.0308,-2.001,-2.079,-2.1606,0.0,0.0,0.0,0.0,0.0,-2.145,0.0,-2.2645,0.0,-2.4264,-2.4264,-2.4889,-2.5303,-2.5303,0.0,-2.5005,-2.4302,-2.4909,-2.4986,-2.4302,-2.4928,-2.4966,-2.4264,-2.3302,-2.2023,0.0,-1.86,-1.7292,-1.6484,-1.5618,-1.5189,-1.5234,0.0,0.0,0.0,-2.1591,-2.3528,-2.4443,-2.5249,-2.5629,-2.5682,-2.5683,-2.5683,-2.5703,-2.5703,-2.5703,-2.5703,-2.5703,-2.5703,-2.5703,-2.5703,-2.5703,-2.5703,-2.5696,-2.5709,-2.5679,-2.5552,-2.5521,-2.5517,-2.5503,-2.5507,-2.5306,-2.4544,-2.437,-2.437,-2.437,-2.3775,-2.3671,0.0,0.0,0.0,-1.6016,0.0,0.0,0.0,0.0,0.0,0.0,0.0,0.0,0.0,0.0,0.0,0.0,0.0,0.0,0.0,0.0,0.0,0.0,-2.0721,0.0,-2.2206,0.0,-2.3392,-2.3392,-2.3212,-2.3151,-2.3126,-2.285,-2.2712,-2.2632,-2.2542,-2.246,-2.2394,-2.2338,-2.231,-2.2282,-2.1991,-2.1661,-2.1339,-2.1134,-2.0663,-2.0096,-2.1625,0.0,0.0,0.0,0.0,-2.3039,-2.3059,-2.3228,-2.34,-2.3564,-2.4474,-2.5101,-2.5101,-2.5207,-2.5303,-2.5303,-2.5303,0.0,0.0,0.0,0.0,-2.5101,-2.5207,-2.5226,-2.5101,-2.3581,-2.2293,-2.1293,-1.8869,-1.7292,-1.6484,-1.5618,-1.5189,-1.5214,0.0,0.0,-1.9072,-2.1822,0.0,-2.43,-2.5176,-2.5558,-2.5627,-2.5629,-2.5659,-2.5703,-2.5703,-2.5703,-2.5703,-2.5703,-2.5703,-2.5703,-2.5703,-2.5703,-2.5703,-2.5703,-2.5698,-2.5685,-2.5676,-2.5616,-2.5576,-2.5504,-2.5505,-2.5454,-2.5313,-2.5279,-2.5279,-2.5279,-2.5155,-2.4923,-2.4501,0.0,0.0,0.0,0.0,0.0,0.0,0.0,0.0,0.0,0.0,0.0,0.0,0.0,0.0,0.0,0.0,0.0,0.0,0.0,0.0,0.0,0.0,0.0,0.0,0.0,0.0,-2.3392,-2.3364,-2.3341,-2.3341,-2.3133,-2.2977,-2.2833,-2.2605,-2.2432,-2.231,-2.231,-2.231,-2.2282,-2.2254,-2.1961,-2.1617,-2.1462,-2.115,-2.0663,-2.2539,0.0,0.0,0.0,0.0,0.0,0.0,-2.4162,0.0,-2.3839,-2.4302,-2.4678,-2.4678,-2.5063,-2.5303,-2.5303,-2.5303,-2.5303,-2.5303,-2.5303,-2.5303,-2.5303,-2.5303,-2.5303,-2.5303,-2.4101,-2.3052,-2.2177,-1.9619,-1.7946,-1.708,-1.5811,-1.5189,-1.5234,0.0,-1.7762,0.0,0.0,0.0,-2.4272,-2.511,-2.5493,-2.5543,-2.5593,-2.5629,-2.5659,-2.5683,-2.5703,-2.5703,-2.5703,-2.5703,-2.5703,-2.5703,-2.5703,-2.5703,-2.5703,-2.5702,-2.5698,-2.5709,-2.5679,-2.5642,-2.558,-2.5547,-2.5542,-2.5554,-2.5518,-2.5492,-2.5492,-2.5503,-2.5232,-2.4366,-2.3102,0.0,0.0,0.0,0.0,0.0,0.0,-1.6847,0.0,0.0,0.0,0.0,0.0,0.0,0.0,0.0,0.0,0.0,0.0,0.0,0.0,0.0,0.0,0.0,0.0,0.0,-2.3816,-2.3671,-2.361,-2.3588,-2.3359,-2.314,-2.2892,-2.2756,-2.2552,-2.231,-2.231,-2.231,-2.2282,-2.2254,-2.214,-2.1949,-2.1781,-2.1354,-2.0828,0.0,-2.4096,0.0,0.0,-2.4541,0.0,-2.4515,-2.4613,-2.452,-2.4049,-2.4183,-2.4303,-2.4303,-2.4899,-2.5303,-2.5303,-2.5303,-2.5303,-2.5303,-2.5303,-2.5293,-2.5253,-2.5253,-2.5243,-2.5222,-2.4447,-2.3535,0.0,-2.0334,-1.865,-1.7426,-1.6272,-1.583,0.0,0.0,0.0,0.0,0.0,-2.3654,-2.4497,-2.5112,-2.542,-2.5477,-2.5539,-2.5584,-2.5618,-2.5659,-2.5683,-2.5703,-2.5703,-2.5703,-2.5703,-2.5703,-2.5703,-2.5703,-2.5703,-2.5703,-2.5703,-2.5697,-2.5693,-2.5689,-2.5623,-2.5613,-2.5613,-2.5601,-2.5552,-2.5521,-2.5521,-2.5512,-2.5236,-2.435,-2.3779,0.0,0.0,0.0,0.0,0.0,0.0,0.0,0.0,0.0,0.0,0.0,0.0,0.0,0.0,0.0,0.0,-1.3066,-1.3841,0.0,0.0,0.0,-2.0696,-2.151,0.0,-2.419,0.0,-2.3996,-2.3855,-2.3795,-2.3522,-2.3224,-2.291,-2.2833,-2.2615,-2.231,-2.231,-2.231,-2.2282,-2.2225,-2.2197,-2.2123,-2.1986,-2.1584,-2.1023,0.0,0.0,0.0,0.0,0.0,0.0,-2.4559,-2.4607,-2.462,-2.4625,-2.4835,-2.5011,-2.5011,-2.5175,-2.5303,-2.5303,-2.5303,-2.5303,-2.5303,-2.5303,-2.5243,-2.5107,-2.5126,-2.5049,-2.4942,-2.4217,-2.304,0.0,0.0,-1.8946,-1.6619,-1.7196,0.0,0.0,0.0,0.0,0.0,-2.358,-2.4466,-2.5197,-2.5284,-2.5346,-2.5401,-2.5415,-2.549,-2.5598,-2.5615,-2.5648,-2.5693,-2.5703,-2.5703,-2.5703,-2.5703,-2.5703,-2.5703,-2.5703,-2.5703,-2.5703,-2.5703,-2.5703,-2.5702,-2.5689,-2.5683,-2.5679,-2.5609,-2.5598,-2.5593,-2.5593,-2.5537,-2.524,-2.4354,-2.4725,-2.4133,0.0,0.0,0.0,0.0,0.0,-1.7622,-1.7485,0.0,0.0,0.0,0.0,0.0,0.0,0.0,0.0,-1.3106,-1.3811,0.0,-1.5569,0.0,-2.0388,-2.0613,-2.2997,0.0,-2.419,-2.417,-2.4054,-2.3795,-2.3522,-2.3224,-2.291,-2.2642,-2.246,-2.231,-2.231,-2.231,-2.231,-2.2282,-2.2192,-2.2027,-2.1998,-2.1882,-2.1631,0.0,0.0,0.0,0.0,0.0,0.0,0.0,-2.4742,-2.4426,-2.4515,-2.479,-2.4975,-2.4975,-2.5103,-2.5182,-2.5182,-2.5253,-2.5303,-2.5303,-2.5303,-2.5243,-2.5115,-2.5096,-2.5043,-2.4902,-2.4613,-2.3933,0.0,0.0,0.0,0.0,0.0,0.0,0.0,0.0,-2.1966,-2.361,-2.3956,-2.4562,-2.5303,-2.5303,-2.5322,-2.5337,-2.5383,-2.5441,-2.5485,-2.5574,-2.5613,-2.5639,-2.5637,-2.5676,-2.5703,-2.5703,-2.5703,-2.5703,-2.5703,-2.5703,-2.5703,-2.5703,-2.5703,-2.5703,-2.5702,-2.5701,-2.5699,-2.5675,-2.5664,-2.5654,-2.5654,-2.5605,-2.5289,-2.4422,-2.4058,-2.3441,0.0,0.0,0.0,0.0,0.0,0.0,-1.7725,0.0,-1.5708,0.0,0.0,0.0,0.0,0.0,0.0,0.0,0.0,0.0,-1.4867,0.0,-1.9959,-2.0484,-2.296,-2.419,-2.419,-2.419,-2.4074,-2.3795,-2.3692,-2.3364,-2.2867,-2.2525,-2.2366,-2.231,-2.231,-2.231,-2.2282,-2.2271,-2.2197,-2.2106,-2.1986,-2.1764,-2.1509,-2.6988,0.0,-2.6751,0.0,-2.6364,-2.5833,-2.5852,-2.5372,-2.5023,-2.506,-2.5271,-2.5273,-2.4889,-2.4949,-2.5037,-2.5037,-2.5126,-2.5171,-2.5171,-2.5222,-2.5171,-2.5056,-2.5037,0.0,-2.4847,-2.4832,-2.4458,-2.3676,-2.316,0.0,0.0,0.0,0.0,0.0,-2.2254,-2.3081,-2.4447,-2.4447,-2.4774,-2.5303,-2.5303,-2.5303,-2.5313,-2.5354,-2.5387,-2.541,-2.5504,-2.5556,-2.5561,-2.5589,-2.5632,-2.5677,-2.5677,-2.5682,-2.5703,-2.5702,-2.5703,-2.5703,-2.5703,-2.5703,-2.5703,-2.5703,-2.5703,-2.5703,-2.5703,-2.5701,-2.5696,-2.5696,-2.5464,-2.5063,-2.4432,-2.3558,-2.2771,-2.2255,0.0,0.0,0.0,0.0,0.0,0.0,-1.6542,-1.5581,-1.5165,0.0,0.0,0.0,0.0,0.0,0.0,0.0,0.0,0.0,0.0,0.0,0.0,-2.296,-2.419,-2.419,-2.419,-2.4054,-2.3774,-2.3667,-2.3399,-2.296,-2.2579,-2.2405,-2.2405,-2.2338,-2.231,-2.2282,-2.2254,-2.2214,-2.2168,-2.2003,-2.1781,-2.1509,-2.7622,-2.7145,-2.6851,-2.764,-2.7126,-2.6615,-2.6675,-2.6675,-2.6677,-2.6663,-2.6683,-2.6172,-2.4845,-2.4818,-2.4902,-2.4902,-2.4902,-2.4915,-2.4915,-2.5024,-2.5037,0.0,0.0,-2.4832,-2.4707,-2.4707,-2.4279,-2.3405,0.0,0.0,-2.1309,0.0,-2.2408,-2.4072,-2.4072,-2.4524,-2.5284,-2.5284,-2.5284,-2.5303,-2.5303,-2.5303,-2.5303,-2.5313,-2.5332,-2.5388,-2.5395,-2.5439,-2.5512,-2.5586,-2.5604,-2.5609,-2.5598,-2.5646,-2.5703,-2.5693,-2.5699,-2.5703,-2.5703,-2.5703,-2.5703,-2.5703,-2.5703,-2.5703,-2.5703,-2.5703,-2.5703,-2.5703,-2.5015,-2.4417,-2.4397,-2.3637,-2.2445,-2.0709,0.0,0.0,0.0,0.0,0.0,-1.7702,-1.5459,-1.4266,-1.5112,0.0,0.0,0.0,0.0,0.0,0.0,0.0,0.0,-1.5852,-1.8994,0.0,-2.0503,-2.296,-2.419,-2.419,-2.419,-2.4016,-2.3692,-2.3348,-2.3217,-2.3193,-2.2842,-2.2685,-2.2659,-2.2405,-2.231,-2.231,-2.231,-2.2254,-2.2168,-2.2044,-2.194,-2.1794,-2.8576,-2.8411,-2.8338,-2.8576,-2.7952,-2.742,-2.7442,-2.6982,-2.6654,-2.6696,-2.6696,-2.6554,-2.6098,-2.6222,-2.5904,0.0,-2.5343,-2.5494,0.0,-2.4942,-2.4902,-2.4764,-2.4764,-2.4689,-2.4566,-2.4566,-2.4484,-2.4298,0.0,0.0,0.0,-2.39,-2.4241,-2.4788,-2.4879,-2.5063,-2.5303,-2.5303,-2.5303,-2.5303,-2.5303,-2.5303,-2.5303,-2.5303,-2.5313,-2.5351,-2.5378,-2.5404,-2.544,-2.5468,-2.5486,-2.5523,-2.5479,-2.5542,-2.5632,-2.5623,-2.5661,-2.5696,-2.5696,-2.5701,-2.5703,-2.5703,-2.5703,-2.5703,-2.5703,-2.5703,-2.5703,-2.5703,-2.5488,-2.4919,-2.3739,-2.3276,-2.2471,-2.069,-2.0604,0.0,0.0,0.0,0.0,-1.8647,-1.7369,-1.6599,0.0,-1.6144,0.0,0.0,0.0,0.0,0.0,0.0,0.0,0.0,-1.8763,0.0,-2.064,-2.3014,-2.419,-2.419,-2.419,-2.4016,-2.3692,-2.3348,-2.3193,-2.3193,-2.3035,-2.296,-2.296,-2.2884,-2.2747,-2.2579,-2.2579,-2.2405,-2.2168,-2.2044,-2.1969,-2.1853,-2.8994,-2.8994,-2.8994,-2.8994,-2.8594,-2.8246,-2.8246,-2.7824,-2.7512,-2.7573,-2.7573,-2.7466,-2.7177,-2.7544,0.0,-2.5593,-2.601,-2.6151,-2.5659,-2.5401,-2.5231,-2.5158,-2.4858,-2.466,-2.4582,0.0,0.0,-2.4613,-2.4676,-2.4734,-2.4818,-2.4949,-2.5012,-2.5024,-2.516,-2.5214,-2.5233,-2.5274,-2.5303,-2.5303,-2.5303,-2.5303,-2.5303,-2.5303,-2.5303,-2.5313,-2.5351,-2.5361,-2.5361,-2.5388,-2.5429,-2.5464,-2.5418,-2.5466,-2.5571,-2.5571,-2.5605,-2.5654,-2.5654,-2.5666,-2.5676,-2.5681,-2.5701,-2.5702,-2.5703,-2.5703,-2.5703,-2.5703,-2.5449,-2.4883,-2.3786,-2.3078,-2.2268,-2.1104,-2.0655,-2.0426,-2.0405,0.0,0.0,0.0,0.0,0.0,0.0,-1.7549,0.0,0.0,0.0,0.0,0.0,0.0,0.0,-1.6706,-1.972,0.0,-2.1764,-2.3432,-2.4266,-2.4266,-2.419,-2.4036,-2.3837,-2.3576,-2.3463,-2.344,-2.3324,-2.3253,-2.3253,-2.314,-2.301,-2.285,-2.2738,-2.2552,-2.2304,-2.2101,-2.1969,-2.1869,-2.8994,-2.8994,0.0,0.0,-2.8994,0.0,-2.8994,-2.8994,-2.8994,-2.8994,-2.8994,-2.8723,-2.8055,-2.8647,-2.8482,-2.6995,0.0,0.0,0.0,-2.6281,-2.5953,-2.597,-2.5239,-2.4842,-2.4767,-2.4659,-2.4555,-2.45,-2.4613,-2.4692,-2.4692,-2.4818,-2.4888,-2.4888,-2.5043,-2.5091,-2.5084,-2.5233,-2.5293,-2.5293,-2.5303,-2.5303,-2.5303,-2.5303,-2.5303,-2.5303,-2.5303,-2.5303,-2.5313,-2.5361,-2.5407,-2.5395,-2.5393,-2.5429,-2.548,-2.5499,-2.5537,-2.5598,-2.5598,-2.5598,-2.5609,-2.5679,-2.5705,-2.5693,-2.5703,-2.5703,-2.5703,-2.5703,-2.5059,-2.4473,-2.4414,-2.3085,-2.1947,-2.1832,-2.1079,-2.0494,-2.0418,0.0,0.0,0.0,0.0,0.0,0.0,-1.8614,-1.9095,0.0,0.0,0.0,0.0,0.0,-1.7652,-1.9842,-2.1592,-2.2816,-2.3526,-2.4116,-2.4407,-2.4389,-2.421,-2.4113,-2.4094,-2.3976,-2.3896,-2.3896,-2.362,-2.3508,-2.3486,-2.3236,-2.3116,-2.3084,-2.2825,-2.2668,-2.2517,-2.2141,-2.1969,-2.184,0.0,0.0,-2.8994,-2.8994,-2.8994,-2.8994,-2.8994,-2.8994,-2.8994,-2.8994,-2.8994,-2.8943,-2.876,-2.8906,-2.8874,-2.8489,-2.7988,-2.7463,-2.6837,-2.6673,-2.66,-2.6656,-2.6488,-2.6097,-2.5482,-2.5428,-2.5113,-2.45,-2.4515,-2.4568,-2.4549,-2.4692,-2.4749,-2.4749,-2.4888,-2.4955,-2.4968,-2.5103,-2.5149,-2.516,-2.5253,-2.5303,-2.5303,-2.5303,-2.5303,-2.5303,-2.5303,-2.5303,-2.5303,-2.5313,-2.5361,-2.5407,-2.5387,-2.5412,-2.5437,-2.5488,-2.5512,-2.5521,-2.5521,-2.5556,-2.5601,-2.5613,-2.5654,-2.5709,-2.5693,-2.5701,-2.5703,-2.5703,-2.5547,-2.5195,-2.4511,-2.3534,-2.2614,-2.1982,-2.1139,-2.057,-2.0543,-2.0327,0.0,0.0,-1.9943,-1.9759,-1.969,-1.9877,-1.9966,0.0,0.0,0.0,0.0,0.0,-2.0155,-2.006,-2.2208,-2.3486,-2.365,-2.4306,-2.4543,-2.4389,-2.4301,-2.4192,-2.4094,-2.3976,-2.3896,-2.3896,-2.3774,-2.3732,-2.371,-2.3667,-2.3405,-2.3091,-2.3035,-2.2721,-2.2265,-2.2073,-2.1969,-2.1899,-2.8767,-2.8834,-2.8858,-2.8994,-2.8994,-2.8994,-2.8994,-2.8994,-2.8994,-2.8994,-2.8994,-2.8994,-2.8994,-2.8994,-2.8994,-2.8994,-2.8699,-2.8304,-2.7885,-2.7539,-2.7357,-2.7397,-2.7083,-2.6712,-2.6265,-2.5894,-2.5317,-2.45,-2.45,-2.45,-2.45,-2.4566,-2.4615,-2.4596,-2.4749,-2.4997,-2.537,-2.5506,-2.5558,-2.5571,-2.5692,-2.5538,-2.5222,-2.5293,-2.5303,-2.5303,-2.5303,-2.5303,-2.5303,-2.5303,-2.5351,-2.5398,-2.5388,-2.5387,-2.5412,-2.544,-2.5488,-2.5492,-2.5492,-2.5525,-2.5554,-2.5542,-2.5605,-2.5651,-2.5651,-2.5689,-2.57,-2.57,-2.5703,-2.5566,-2.5078,-2.3964,-2.2966,-2.2514,-2.1418,-2.0596,-2.0594,-2.0566,0.0,-2.05,-2.0814,-2.1016,-2.0942,-2.1275,-2.1475,-2.1432,0.0,0.0,-2.134,-2.2106,-2.2133,-2.1263,-2.2898,-2.3966,-2.4378,-2.4671,-2.467,-2.4389,-2.4353,-2.4266,-2.4094,-2.3996,-2.3917,-2.3896,-2.3816,-2.3795,-2.3795,-2.3795,-2.3667,-2.3405,-2.3324,-2.2943,-2.2446,-2.2248,-2.2039,-2.184,-2.8456,-2.8507,-2.8601,-2.8881,-2.8929,-2.8952,-2.8994,-2.8994,-2.8994,-2.8994,-2.8994,-2.8994,-2.8994,-2.8994,-2.8994,-2.8994,-2.9044,-2.9108,-2.9089,-2.8513,-2.817,-2.817,-2.7582,-2.7193,-2.7063,-2.6265,-2.5523,-2.4817,-2.4835,-2.4854,-2.4854,-2.4871,-2.4853,-2.4871,-2.4987,-2.541,-2.6047,-2.6204,-2.6246,-2.6261,-2.6401,-2.6028,-2.5454,-2.5587,-2.5638,-2.5629,-2.5534,-2.5485,-2.5456,-2.5341,-2.5313,-2.5351,-2.5389,-2.5388,-2.5406,-2.5406,-2.544,-2.5484,-2.5484,-2.5484,-2.5507,-2.5493,-2.5532,-2.557,-2.557,-2.5642,-2.5683,-2.5683,-2.5697,-2.5703,-2.5703,-2.4277,-2.3102,-2.3102,-2.1692,-2.0594,-2.0593,0.0,-2.0627,-2.0703,-2.1363,-2.1838,-2.1915,-2.253,-2.2979,-2.3108,-2.3044,0.0,0.0,-2.3658,-2.3703,-2.2821,-2.3632,-2.4454,-2.5191,-2.5,-2.4741,-2.4441,-2.4407,-2.4284,-2.4094,-2.4016,-2.3937,-2.3896,-2.3816,-2.3795,-2.3795,-2.3795,-2.3774,-2.3732,-2.3531,-2.3194,-2.2789,-2.2476,-2.2181,-2.1886,-2.8129,-2.8183,-2.8281,-2.8601,-2.8651,-2.8743,-2.897,-2.8994,-2.8994,-2.8994,-2.8994,-2.8994,-2.8994,-2.8994,-2.8994,-2.8994,-2.9017,-2.904,-2.9108,-2.9001,-2.895,-2.9015,-2.8907,-2.8516,-2.7851,-2.698,-2.6482,-2.6371,-2.643,-2.6431,-2.6431,-2.6488,-2.6544,-2.6526,-2.6544,-2.6637,-2.6749,-2.689,-2.6942,-2.6958,-2.7081,-2.7081,-2.6982,-2.7172,-2.7243,-2.7172,-2.6598,-2.6327,-2.6125,-2.5503,-2.5233,-2.519,-2.5341,-2.5398,-2.5407,-2.5406,-2.5404,-2.5429,-2.5429,-2.5456,-2.5492,-2.5507,-2.5506,-2.5515,-2.5515,-2.558,-2.5609,-2.5609,-2.5657,-2.5693,-2.5696,-2.4277,-2.3103,-2.3099,-2.1692,-2.0597,-2.0594,0.0,-2.0866,-2.1602,-2.1798,-2.214,-2.2819,-2.3003,-2.3353,-2.4028,-2.3978,-2.3898,-2.3887,-2.4581,-2.4594,-2.3722,-2.4541,-2.5057,-2.5191,-2.5,-2.4818,-2.4642,-2.4424,-2.4229,-2.4094,-2.3976,-2.3917,-2.3896,-2.3816,-2.3795,-2.3795,-2.3795,-2.3689,-2.3531,-2.3407,-2.3151,-2.285,-2.248,-2.2287,-2.2175,-2.7811,-2.7908,-2.802,-2.8281,-2.843,-2.8576,-2.8743,-2.8791,-2.8834,-2.8994,-2.8994,-2.8994,-2.8994,-2.8994,-2.8994,-2.8994,-2.8994,-2.9017,-2.904,-2.9085,-2.9112,-2.9134,-2.9178,-2.8809,-2.8012,-2.7606,-2.7182,-2.67,-2.6722,-2.6762,-2.6801,-2.6821,-2.6878,-2.6916,-2.6916,-2.7139,-2.7548,-2.7606,-2.7643,-2.7643,-2.7823,-2.7608,-2.721,-2.738,-2.7438,-2.7414,-2.7211,-2.6753,-2.6205,-2.596,-2.5485,-2.5019,-2.5091,-2.5179,-2.5233,-2.5243,-2.5322,-2.5401,-2.5437,-2.5484,-2.5511,-2.5511,-2.5495,-2.5505,-2.5505,-2.5517,-2.5542,-2.5542,-2.5601,-2.5651,-2.5687,-2.4662,-2.3808,-2.3805,-2.2397,0.0,0.0,-2.1296,-2.1452,-2.184,-2.2699,-2.34,-2.3762,-2.4193,-2.4604,-2.4972,-2.491,-2.4844,-2.4791,-2.5081,-2.5061,-2.4613,-2.4992,-2.5191,-2.5191,-2.5113,-2.4993,-2.4808,-2.4651,-2.4474,-2.4302,-2.4097,-2.4018,-2.3996,-2.3876,-2.3795,-2.3795,-2.3795,-2.3753,-2.3664,-2.3549,-2.3319,-2.301,-2.2616,-2.2364,-2.2141,-2.7569,-2.7642,-2.7754,-2.7964,-2.8147,-2.8281,-2.8456,-2.8551,-2.8669,-2.8749,-2.8905,-2.8994,-2.8905,-2.8905,-2.8905,-2.8905,-2.8905,-2.8905,-2.8905,-2.8998,-2.9085,-2.9085,-2.913,-2.8857,-2.8246,-2.8227,-2.7896,-2.7232,-2.7232,-2.7274,-2.7354,-2.7335,-2.7375,-2.7453,-2.7453,-2.7807,-2.8383,-2.8402,-2.8402,-2.8403,-2.8558,-2.8222,-2.766,-2.7775,-2.784,-2.7837,-2.7832,-2.7329,-2.6601,-2.6395,-2.5804,-2.5111,-2.4945,-2.4962,-2.5049,-2.5084,-2.5244,-2.5412,-2.5456,-2.5484,-2.5484,-2.5484,-2.5484,-2.5511,-2.5484,-2.5498,-2.5499,-2.5499,-2.5551,-2.5598,-2.5645,-2.4954,-2.4385,-2.4394,0.0,0.0,0.0,-2.2172,-2.225,-2.2465,-2.3617,-2.4475,-2.467,-2.5258,-2.5616,-2.5616,-2.5571,-2.5505,-2.5456,-2.5371,-2.5293,-2.5241,-2.5225,-2.5191,-2.5191,-2.5137,-2.5057,-2.4902,-2.4804,-2.467,-2.4495,-2.4284,-2.4173,-2.4133,-2.3978,-2.3899,-2.3876,-2.3876,-2.3837,-2.3795,-2.3682,-2.3504,-2.3206,-2.2755,-2.2412,-2.2169,-2.733,-2.7345,-2.7421,-2.7672,-2.7742,-2.7829,-2.8102,-2.8404,-2.85,-2.821,-2.8633,-2.8905,-2.8669,-2.8626,-2.8626,-2.8626,-2.8626,-2.8626,-2.8626,-2.8881,-2.9017,-2.9017,-2.9017,-2.8998,-2.8925,-2.8925,-2.8888,-2.8833,-2.8901,-2.8924,-2.8946,-2.8993,-2.9055,-2.9116,-2.9116,-2.9196,-2.9314,-2.9251,-2.9251,-2.9314,-2.9251,-2.9235,-2.9262,-2.9383,-2.9438,-2.9344,-2.8742,-2.8407,-2.8007,-2.6586,-2.5993,-2.5716,-2.5106,-2.4915,-2.4942,-2.5061,-2.5233,-2.5388,-2.5412,-2.5401,-2.5401,-2.5401,-2.5456,-2.5484,-2.5429,-2.5464,-2.5499,-2.5499,-2.5499,-2.551,-2.5515,-2.4851,-2.4333,-2.4387,0.0,0.0,-2.3017,-2.3013,-2.3306,-2.4124,-2.4319,-2.4729,-2.5531,-2.5666,-2.5685,-2.5685,-2.5625,-2.5586,-2.56,-2.5452,-2.5385,-2.5397,-2.5261,-2.5191,-2.5191,-2.5032,-2.4915,-2.4902,-2.4716,-2.4575,-2.4495,-2.4425,-2.4338,-2.4284,-2.4266,-2.4191,-2.4074,-2.4074,-2.3976,-2.3774,-2.3589,-2.3517,-2.3407,-2.2764,-2.2497,-2.2415,-2.7282,-2.7299,-2.7313,-2.7452,-2.7434,-2.7539,-2.7829,-2.7971,-2.8055,-2.8102,-2.829,-2.8412,-2.8308,-2.8281,-2.8281,-2.8281,-2.8281,-2.836,-2.8576,-2.8694,-2.8834,-2.8994,-2.8994,-2.8994,-2.8994,-2.8994,-2.8994,-2.8994,-2.904,-2.9062,-2.9089,-2.913,-2.9156,-2.924,-2.924,-2.9262,-2.9283,-2.9262,-2.9262,-2.9283,-2.9283,-2.9323,-2.9344,-2.9431,-2.9471,-2.9455,-2.9287,-2.8782,-2.8147,-2.7671,-2.6756,-2.5739,-2.5471,-2.5117,-2.4804,-2.5043,-2.5149,-2.5243,-2.5379,-2.5395,-2.5404,-2.5404,-2.5423,-2.5432,-2.5421,-2.5429,-2.5456,-2.5484,-2.5495,-2.5492,-2.5492,-2.5249,-2.507,-2.5122,0.0,-2.3903,-2.3906,-2.392,-2.4026,-2.4358,-2.4885,-2.5336,-2.5668,-2.5707,-2.5707,-2.5707,-2.5673,-2.5632,-2.5591,-2.5459,-2.5393,-2.5387,-2.5361,-2.5302,-2.5269,-2.5149,-2.5101,-2.5069,-2.4985,-2.4851,-2.4727,-2.4588,-2.4493,-2.4409,-2.4339,-2.4266,-2.4228,-2.4133,-2.4036,-2.3955,-2.3721,-2.3611,-2.3567,-2.3003,-2.2816,-2.2721,-2.7186,-2.7218,-2.7233,-2.7233,-2.7282,-2.7376,-2.7539,-2.7659,-2.776,-2.7858,-2.7992,-2.8075,-2.7964,-2.7964,-2.7964,-2.7964,-2.7964,-2.8065,-2.8299,-2.8404,-2.8626,-2.8994,-2.8994,-2.8994,-2.8994,-2.8994,-2.8994,-2.8994,-2.8994,-2.9017,-2.9085,-2.9085,-2.9089,-2.9156,-2.9156,-2.9178,-2.92,-2.9178,-2.9178,-2.92,-2.9218,-2.924,-2.928,-2.9344,-2.9365,-2.9368,-2.9492,-2.9099,-2.8497,-2.8353,-2.7475,-2.6377,-2.5856,-2.5235,-2.4753,-2.4929,-2.5,-2.5068,-2.522,-2.5264,-2.5313,-2.5369,-2.5406,-2.5395,-2.5404,-2.5393,-2.5401,-2.5456,-2.5484,-2.5507,-2.5499,-2.5512,-2.5517,-2.5565,-2.5113,-2.4746,-2.4779,-2.4785,-2.4778,-2.4816,-2.5338,-2.5707,-2.5707,-2.5707,-2.5707,-2.5707,-2.5705,-2.5668,-2.5591,-2.5518,-2.5456,-2.5453,-2.5429,-2.5415,-2.5361,-2.528,-2.5225,-2.5225,-2.5132,-2.5025,-2.4902,-2.4731,-2.4642,-2.4561,-2.4409,-2.4339,-2.4284,-2.4152,-2.4074,-2.3976,-2.3786,-2.3678,-2.3589,-2.3168,-2.2952,-2.285,-2.7007,-2.7055,-2.7103,-2.7103,-2.7201,-2.7299,-2.7299,-2.7509,-2.76,-2.7345,-2.7771,-2.7992,-2.773,-2.7701,-2.7701,-2.7701,-2.7701,-2.7701,-2.7701,-2.7936,-2.836,-2.897,-2.8994,-2.8994,-2.8994,-2.8994,-2.8994,-2.8994,-2.8994,-2.8994,-2.8994,-2.8994,-2.904,-2.9089,-2.9089,-2.9152,-2.9178,-2.913,-2.9152,-2.9178,-2.913,-2.9134,-2.9218,-2.9262,-2.9302,-2.9302,-2.9386,-2.9407,-2.9277,-2.8403,-2.8104,-2.7807,-2.621,-2.5235,-2.4707,-2.4707,-2.4794,-2.4902,-2.4902,-2.5006,-2.5149,-2.5341,-2.5397,-2.5406,-2.5398,-2.5395,-2.5401,-2.5401,-2.5456,-2.5511,-2.5511,-2.5511,-2.5503,-2.551,-2.5502,-2.5517,-2.5583,-2.56,-2.5625,-2.5683,-2.5696,-2.5707,-2.5707,-2.5707,-2.5707,-2.5707,-2.5698,-2.5675,-2.5591,-2.561,-2.5595,-2.5601,-2.555,-2.5495,-2.5495,-2.537,-2.5292,-2.5311,-2.5156,-2.5025,-2.4902,-2.4837,-2.4749,-2.4692,-2.4561,-2.4445,-2.4284,-2.4152,-2.3996,-2.3795,-2.3725,-2.3611,-2.3471,-2.3144,-2.2919,-2.2721,-2.6975,-2.6975,-2.6975,-2.704,-2.7072,-2.7105,-2.7152,-2.723,-2.7293,-2.7282,-2.7452,-2.7496,-2.7421,-2.7421,-2.7421,-2.7421,-2.7421,-2.7496,-2.7701,-2.7936,-2.8183,-2.836,-2.8583,-2.8791,-2.8994,-2.8994,-2.8994,-2.8994,-2.8994,-2.8994,-2.8994,-2.8994,-2.9017,-2.904,-2.904,-2.904,-2.9062,-2.904,-2.904,-2.9044,-2.9108,-2.9112,-2.9152,-2.92,-2.9262,-2.9302,-2.9323,-2.9365,-2.937,-2.9109,-2.8626,-2.7919,-2.6879,-2.6023,-2.5405,-2.5504,-2.517,-2.4779,-2.4874,-2.4942,-2.5006,-2.5149,-2.5253,-2.5341,-2.5389,-2.5397,-2.5404,-2.5401,-2.5456,-2.5511,-2.5511,-2.5511,-2.5499,-2.551,-2.5505,-2.5512,-2.5522,-2.5567,-2.5609,-2.5637,-2.5621,-2.5644,-2.5701,-2.57,-2.5697,-2.5707,-2.5698,-2.5684,-2.5675,-2.5628,-2.5605,-2.5595,-2.5582,-2.5577,-2.5577,-2.5448,-2.5379,-2.5379,-2.5282,-2.5153,-2.4968,-2.4896,-2.4808,-2.4707,-2.466,-2.4561,-2.4426,-2.4303,-2.4153,-2.3996,-2.3834,-2.3725,-2.3611,-2.343,-2.3168,-2.2893,-2.7743,-2.7522,-2.7351,-2.7385,-2.7179,-2.7007,-2.7055,-2.7055,-2.7087,-2.7201,-2.7233,-2.7233,-2.7282,-2.725,-2.7233,-2.7299,-2.7299,-2.7376,-2.7509,-2.7701,-2.7811,-2.7954,-2.8138,-2.843,-2.8834,-2.8858,-2.8858,-2.8858,-2.8858,-2.8767,-2.8651,-2.8791,-2.8858,-2.8858,-2.8952,-2.8994,-2.8994,-2.8994,-2.8994,-2.9017,-2.904,-2.9062,-2.9085,-2.9134,-2.9197,-2.9218,-2.924,-2.9304,-2.9365,-2.9365,-2.879,-2.7992,-2.751,-2.6804,-2.6154,-2.6262,-2.5718,-2.5115,-2.5189,-2.5005,-2.4832,-2.4929,-2.5091,-2.5243,-2.5341,-2.5332,-2.5293,-2.5376,-2.5395,-2.5415,-2.5484,-2.5511,-2.5511,-2.5511,-2.5498,-2.5499,-2.5498,-2.5532,-2.5574,-2.5595,-2.5605,-2.5636,-2.5683,-2.5703,-2.5703,-2.5696,-2.5705,-2.5696,-2.571,-2.5652,-2.5628,-2.561,-2.559,-2.5593,-2.5601,-2.5517,-2.5472,-2.5448,-2.5332,-2.5252,-2.5118,-2.4975,-2.4855,-2.4775,-2.4673,-2.4578,-2.4495,-2.4357,-2.4247,-2.4171,-2.3996,-2.3855,-2.3747,-2.3567,-2.3336,-2.307,-2.8803,-2.8437,-2.7998,-2.8066,-2.7487,-2.6992,-2.7077,-2.7026,-2.7007,-2.707,-2.7103,-2.7169,-2.7353,-2.7255,-2.7272,-2.7439,-2.7405,-2.7385,-2.7385,-2.7333,-2.739,-2.7642,-2.7742,-2.7986,-2.85,-2.8551,-2.8551,-2.8551,-2.8551,-2.8404,-2.8102,-2.8404,-2.8551,-2.8576,-2.8839,-2.8952,-2.897,-2.8994,-2.8994,-2.897,-2.8994,-2.8994,-2.8975,-2.9062,-2.9089,-2.9108,-2.9156,-2.924,-2.9302,-2.9302,-2.8765,-2.8116,-2.8177,-2.7601,-2.6912,-2.6971,-2.6414,-2.5801,-2.5726,-2.5254,-2.4786,-2.4711,-2.4888,-2.5103,-2.5233,-2.5163,-2.5133,-2.5322,-2.5274,-2.5264,-2.544,-2.5484,-2.5511,-2.5511,-2.5511,-2.5507,-2.5505,-2.5505,-2.5512,-2.5582,-2.5609,-2.5629,-2.5697,-2.5699,-2.5702,-2.5703,-2.5697,-2.5705,-2.5696,-2.569,-2.5675,-2.5615,-2.5591,-2.5595,-2.5607,-2.5601,-2.5577,-2.5503,-2.5378,-2.5313,-2.5284,-2.5018,-2.4917,-2.4891,-2.4654,-2.4528,-2.4495,-2.4375,-2.4303,-2.4303,-2.4171,-2.4036,-2.3876,-2.3616,-2.343,-2.3199,-2.8439,-2.8132,-2.8046,-2.8655,-2.7674,-2.7012,-2.7692,-2.7283,-2.6959,-2.7007,-2.704,-2.7262,-2.7844,-2.7895,-2.8134,-2.8716,-2.8271,-2.7946,-2.7995,-2.7478,-2.7215,-2.739,-2.793,-2.815,-2.7904,-2.8093,-2.821,-2.821,-2.821,-2.8156,-2.8102,-2.8183,-2.821,-2.821,-2.8533,-2.8694,-2.8694,-2.8905,-2.8881,-2.8718,-2.8905,-2.8881,-2.8718,-2.8929,-2.9044,-2.9089,-2.913,-2.9156,-2.9218,-2.9218,-2.9089,-2.8923,-2.8963,-2.841,-2.7746,-2.7746,-2.723,-2.6507,-2.5875,-2.5577,-2.5368,-2.4826,-2.4734,-2.4818,-2.4955,-2.4956,-2.4981,-2.5122,-2.5182,-2.5235,-2.533,-2.544,-2.5511,-2.5511,-2.5511,-2.5492,-2.5499,-2.5495,-2.5505,-2.5531,-2.556,-2.56,-2.5626,-2.5672,-2.5701,-2.5702,-2.5703,-2.57,-2.5699,-2.5703,-2.5687,-2.5678,-2.5628,-2.5605,-2.56,-2.5593,-2.5595,-2.5583,-2.5437,-2.5351,-2.5284,-2.5118,-2.5006,-2.4883,-2.4775,-2.4689,-2.4575,-2.4495,-2.4392,-2.4303,-2.4284,-2.4135,-2.3961,-2.3753,-2.345,-2.3038,-2.8936,-2.8596,-2.8412,-2.9075,-2.7925,-2.7125,-2.7809,-2.7572,-2.7369,-2.747,-2.7794,-2.8152,-2.8596,-2.8612,-2.8731,-2.9123,-2.8834,-2.8682,-2.8768,-2.8339,-2.8184,-2.8351,-2.8612,-2.8697,-2.8528,-2.8652,-2.8451,-2.7897,-2.7897,-2.784,-2.773,-2.784,-2.8092,-2.8428,-2.8774,-2.9007,-2.9137,-2.9264,-2.9064,-2.8601,-2.8743,-2.8718,-2.8619,-2.8743,-2.8905,-2.9044,-2.9044,-2.9108,-2.9175,-2.9178,-2.9178,-2.9175,-2.9178,-2.8883,-2.8532,-2.8595,-2.8044,-2.7268,-2.647,-2.5987,-2.5521,-2.4787,-2.4596,-2.466,-2.4861,-2.4842,-2.4842,-2.4981,-2.4987,-2.501,-2.5225,-2.5303,-2.5387,-2.5484,-2.5511,-2.5511,-2.5511,-2.5511,-2.5507,-2.5492,-2.5531,-2.5568,-2.5609,-2.5629,-2.5668,-2.5693,-2.5701,-2.5703,-2.5703,-2.5702,-2.5694,-2.5703,-2.5623,-2.5598,-2.561,-2.5605,-2.5609,-2.5601,-2.5531,-2.5488,-2.5437,-2.5273,-2.5164,-2.508,-2.4915,-2.4775,-2.4685,-2.4657,-2.4578,-2.4497,-2.4392,-2.4284,-2.4155,-2.3939,-2.3522,-2.2996,-2.9548,-2.9167,-2.8842,-2.9362,-2.8279,-2.7466,-2.7984,-2.8024,-2.8046,-2.815,-2.8693,-2.9153,-2.9327,-2.9408,-2.9457,-2.9457,-2.9394,-2.9433,-2.9538,-2.9296,-2.9246,-2.9438,-2.9418,-2.94,-2.9368,-2.9505,-2.8972,-2.7774,-2.7927,-2.784,-2.7489,-2.784,-2.8329,-2.8924,-2.9278,-2.954,-2.9746,-2.9801,-2.935,-2.8629,-2.8699,-2.8626,-2.8448,-2.85,-2.8694,-2.8929,-2.8929,-2.8975,-2.9021,-2.9134,-2.9089,-2.9021,-2.9134,-2.9152,-2.913,-2.9218,-2.8762,-2.8061,-2.7286,-2.6507,-2.5708,-2.4908,-2.4592,-2.4566,-2.4775,-2.4749,-2.4704,-2.4809,-2.4766,-2.4814,-2.5118,-2.5184,-2.5254,-2.544,-2.5476,-2.5476,-2.5511,-2.5511,-2.5507,-2.5498,-2.5492,-2.5518,-2.5595,-2.5589,-2.5616,-2.569,-2.5691,-2.5698,-2.5698,-2.5699,-2.5703,-2.5698,-2.5652,-2.5615,-2.5617,-2.5605,-2.5593,-2.559,-2.559,-2.5599,-2.5583,-2.5404,-2.5322,-2.5284,-2.5024,-2.4888,-2.4837,-2.4794,-2.4753,-2.4673,-2.451,-2.4441,-2.4408,-2.4096,-2.3606,-2.2989,-2.9196,-2.8906,-2.8919,-2.9637,-2.8854,-2.8367,-2.9059,-2.8988,-2.8822,-2.8859,-2.8943,-2.9265,-2.9926,-3.0552,-3.0942,-3.0942,-3.0349,-3.0014,-3.0091,-2.9459,-2.9157,-2.9246,-2.9877,-2.9928,-2.9228,-2.9911,-2.9572,-2.8147,-2.8902,-2.8902,-2.8265,-2.8936,-2.9315,-2.9402,-2.9764,-2.9924,-2.9969,-3.0196,-2.9704,-2.8787,-2.9098,-2.8632,-2.7858,-2.8093,-2.836,-2.8651,-2.8651,-2.8651,-2.87,-2.8952,-2.8881,-2.8718,-2.8952,-2.9062,-2.9089,-2.913,-2.9123,-2.8931,-2.8079,-2.7304,-2.6544,-2.5745,-2.502,-2.4517,-2.4549,-2.4532,-2.4549,-2.4629,-2.467,-2.4775,-2.4987,-2.5068,-2.5152,-2.5293,-2.533,-2.5367,-2.5484,-2.5511,-2.5492,-2.5499,-2.549,-2.5531,-2.5582,-2.56,-2.5595,-2.56,-2.5665,-2.5703,-2.5703,-2.5696,-2.5701,-2.5702,-2.5683,-2.5681,-2.5699,-2.5631,-2.5603,-2.5601,-2.5601,-2.5574,-2.551,-2.5432,-2.535,-2.5283,-2.5077,-2.4987,-2.4955,-2.4779,-2.4707,-2.4707,-2.4676,-2.4629,-2.4513,-2.4019,-2.3513,-2.301,-2.87,-2.8638,-2.8742,-2.93,-2.8693,-2.8343,-2.8927,-2.8918,-2.892,-2.9187,-2.9577,-3.0079,-3.0627,-3.1004,-3.119,-3.119,-3.0903,-3.0738,-3.0819,-3.0493,-3.0323,-3.0455,-3.0721,-3.07,-3.0384,-3.0742,-3.0384,-2.9329,-2.9385,-2.9265,-2.899,-2.9334,-2.9696,-3.0074,-3.03,-3.0436,-3.0501,-3.073,-3.029,-2.9492,-2.9616,-2.9422,-2.8947,-2.8623,-2.8696,-2.8937,-2.847,-2.8308,-2.8334,-2.8464,-2.8533,-2.8626,-2.8743,-2.8905,-2.9021,-2.8905,-2.9021,-2.899,-2.8018,-2.7331,-2.6655,-2.5894,-2.5094,-2.45,-2.45,-2.45,-2.4517,-2.4551,-2.4582,-2.4642,-2.479,-2.4883,-2.4993,-2.5163,-2.5215,-2.5274,-2.5367,-2.536,-2.5332,-2.5332,-2.5376,-2.5406,-2.5483,-2.557,-2.559,-2.5605,-2.5664,-2.5697,-2.5697,-2.571,-2.5701,-2.5691,-2.57,-2.5703,-2.5702,-2.5662,-2.5638,-2.5609,-2.5638,-2.562,-2.556,-2.5493,-2.5437,-2.5401,-2.5245,-2.5099,-2.5,-2.4902,-2.4808,-2.4707,-2.4695,-2.4582,-2.4338,-2.3979,-2.3642,-2.323]},{"header":{"parameterUnit":"m.s-1","parameterCategory":1,"la1":30.6,"la2":28.766,"lo1":-90.7593,"lo2":-88.6598,"dy":0.0162,"dx":0.0183,"nx":116,"ny":114,"refTime":"2024-05-26T06:00:00:Z","depth":0,"parameterNumber":3,"parameterNumberName":"V-component_of_WINDS"},"data":[0.0,0.0,0.0,0.0,0.0,0.0,0.0,0.0,0.0,0.0,0.0,0.0,0.0,0.0,0.0,0.0,0.0,0.0,0.0,0.0,0.0,0.0,0.0,0.0,0.0,0.0,0.0,0.0,0.0,0.0,0.0,0.0,0.0,0.0,0.0,0.0,0.0,0.0,0.0,0.0,0.0,0.0,0.0,0.0,0.0,0.0,0.0,0.0,0.0,0.0,0.0,0.0,0.0,0.0,0.0,0.0,0.0,0.0,0.0,0.0,0.0,0.0,0.0,0.0,0.0,0.0,0.0,0.0,0.0,0.0,0.0,0.0,0.0,0.0,0.0,0.0,0.0,0.0,0.0,0.0,0.0,0.0,0.0,0.0,0.0,0.0,0.0,0.0,0.0,0.0,0.0,0.0,0.0,0.0,0.0,0.0,0.0,0.0,0.0,0.0,0.0,0.0,0.0,0.0,0.0,0.0,0.0,0.0,0.0,0.0,0.0,0.0,0.0,0.0,0.0,0.0,0.0,0.0,0.0,0.0,0.0,0.0,0.0,0.0,0.0,0.0,0.0,0.0,0.0,0.0,0.0,0.0,0.0,0.0,0.0,0.0,0.0,0.0,0.0,0.0,0.0,0.0,0.0,0.0,0.0,0.0,0.0,0.0,0.0,0.0,0.0,0.0,0.0,0.0,0.0,0.0,0.0,0.0,0.0,0.0,0.0,0.0,0.0,0.0,0.0,0.0,0.0,0.0,0.0,0.0,0.0,0.0,0.0,0.0,0.0,0.0,0.0,0.0,0.0,0.0,0.0,0.0,0.0,0.0,0.0,0.0,0.0,0.0,0.0,0.0,0.0,0.0,0.0,0.0,0.0,0.0,0.0,0.0,0.0,0.0,0.0,0.0,0.0,0.0,0.0,0.0,0.0,0.0,0.0,0.0,0.0,0.0,0.0,0.0,0.0,0.0,0.0,0.0,0.0,0.0,0.0,0.0,0.0,0.0,0.0,0.0,0.0,0.0,0.0,0.0,0.0,0.0,0.0,0.0,0.0,0.0,0.0,0.0,0.0,0.0,0.0,0.0,0.0,0.0,0.0,0.0,0.0,0.0,0.0,0.0,0.0,0.0,0.0,0.0,0.0,0.0,0.0,0.0,0.0,0.0,0.0,0.0,0.0,0.0,0.0,0.0,0.0,0.0,0.0,0.0,0.0,0.0,0.0,0.0,0.0,0.0,0.0,0.0,0.0,0.0,0.0,0.0,0.0,0.0,0.0,0.0,0.0,0.0,0.0,0.0,0.0,0.0,0.0,0.0,0.0,0.0,0.0,0.0,0.0,0.0,0.0,0.0,0.0,0.0,0.0,0.0,0.0,0.0,0.0,0.0,0.0,0.0,0.0,0.0,0.0,0.0,0.0,0.0,0.0,0.0,0.0,0.0,0.0,0.0,0.0,0.0,0.0,0.0,0.0,0.0,0.0,0.0,0.0,0.0,0.0,0.0,0.0,0.0,0.0,0.0,0.0,0.0,0.0,0.0,0.0,0.0,0.0,0.0,0.0,0.0,0.0,0.0,0.0,0.0,0.0,0.0,0.0,0.0,0.0,0.0,0.0,0.0,0.0,0.0,0.0,0.0,0.0,0.0,0.0,0.0,0.0,0.0,0.0,0.0,0.0,0.0,0.0,0.0,0.0,0.0,0.0,0.0,0.0,0.0,0.0,0.0,0.0,0.0,0.0,0.0,0.0,0.0,0.0,0.0,0.0,0.0,0.0,0.0,0.0,0.0,0.0,0.0,0.0,0.0,0.0,0.0,0.0,0.0,0.0,0.0,0.0,0.0,0.0,0.0,0.0,0.0,0.0,0.0,0.0,0.0,0.0,0.0,0.0,0.0,0.0,0.0,0.0,0.0,0.0,0.0,0.0,0.0,0.0,0.0,0.0,0.0,0.0,0.0,0.0,0.0,0.0,0.0,0.0,0.0,0.0,0.0,0.0,0.0,0.0,0.0,0.0,0.0,0.0,0.0,0.0,0.0,0.0,0.0,0.0,0.0,0.0,0.0,0.0,0.0,0.0,0.0,0.0,0.0,0.0,0.0,0.0,0.0,0.0,0.0,0.0,0.0,0.0,0.0,0.0,0.0,0.0,0.0,0.0,0.0,0.0,0.0,0.0,0.0,0.0,0.0,0.0,0.0,0.0,0.0,0.0,0.0,0.0,0.0,0.0,0.0,0.0,0.0,0.0,0.0,0.0,0.0,0.0,0.0,0.0,0.0,0.0,0.0,0.0,0.0,0.0,0.0,0.0,0.0,0.0,0.0,0.0,0.0,0.0,0.0,0.0,0.0,0.0,0.0,0.0,0.0,0.0,0.0,0.0,0.0,0.0,0.0,0.0,0.0,0.0,0.0,0.0,0.0,0.0,0.0,0.0,0.0,0.0,0.0,0.0,0.0,0.0,0.0,0.0,0.0,0.0,0.0,0.0,0.0,0.0,0.0,0.0,0.0,0.0,0.0,0.0,0.0,0.0,0.0,0.0,0.0,0.0,0.0,0.0,0.0,0.0,0.0,0.0,0.0,0.0,0.0,0.0,0.0,0.0,0.0,0.0,0.0,0.0,0.0,0.0,0.0,0.0,0.0,0.0,0.0,0.0,0.0,0.0,0.0,0.0,0.0,0.0,0.0,0.0,0.0,0.0,0.0,0.0,0.0,0.0,0.0,0.0,0.0,0.0,0.0,0.0,0.0,0.0,0.0,0.0,0.0,0.0,0.0,0.0,0.0,0.0,0.0,0.0,0.0,0.0,0.0,0.0,0.0,0.0,0.0,0.0,0.0,0.0,0.0,0.0,0.0,0.0,0.0,0.0,0.0,0.0,0.0,0.0,0.0,0.0,0.0,0.0,0.0,0.0,0.0,0.0,0.0,0.0,0.0,0.0,0.0,0.0,0.0,0.0,0.0,0.0,0.0,0.0,0.0,0.0,0.0,0.0,0.0,0.0,0.0,0.0,0.0,0.0,0.0,0.0,0.0,0.0,0.0,0.0,0.0,0.0,0.0,0.0,0.0,0.0,0.0,0.0,0.0,0.0,0.0,0.0,0.0,0.0,0.0,0.0,0.0,0.0,0.0,0.0,0.0,0.0,0.0,0.0,0.0,0.0,0.0,0.0,0.0,0.0,0.0,0.0,0.0,0.0,0.0,0.0,0.0,0.0,0.0,0.0,0.0,0.0,0.0,0.0,0.0,0.0,0.0,0.0,0.0,0.0,0.0,0.0,0.0,0.0,0.0,0.0,0.0,0.0,0.0,0.0,0.0,0.0,0.0,0.0,0.0,0.0,0.0,0.0,0.0,0.0,0.0,0.0,0.0,0.0,0.0,0.0,0.0,0.0,0.0,0.0,0.0,0.0,0.0,0.0,0.0,0.0,0.0,0.0,0.0,0.0,0.0,0.0,0.0,0.0,0.0,0.0,0.0,0.0,0.0,0.0,0.0,0.0,0.0,0.0,0.0,0.0,0.0,0.0,0.0,0.0,0.0,0.0,0.0,0.0,0.0,0.0,0.0,0.0,0.0,0.0,0.0,0.0,0.0,0.0,0.0,0.0,0.0,0.0,0.0,0.0,0.0,0.0,0.0,0.0,0.0,0.0,0.0,0.0,0.0,0.0,0.0,0.0,0.0,0.0,0.0,0.0,0.0,0.0,0.0,0.0,0.0,0.0,0.0,0.0,0.0,0.0,0.0,0.0,0.0,0.0,0.0,0.0,0.0,0.0,0.0,0.0,0.0,0.0,0.0,0.0,0.0,0.0,0.0,0.0,0.0,0.0,0.0,0.0,0.0,0.0,0.0,0.0,0.0,0.0,0.0,0.0,0.0,0.0,0.0,0.0,0.0,0.0,0.0,0.0,0.0,0.0,0.0,0.0,0.0,0.0,0.0,0.0,0.0,0.0,0.0,0.0,0.0,0.0,0.0,0.0,0.0,0.0,0.0,0.0,0.0,0.0,0.0,0.0,0.0,0.0,0.0,0.0,0.0,0.0,0.0,0.0,0.0,0.0,0.0,0.0,0.0,0.0,0.0,0.0,0.0,0.0,0.0,0.0,0.0,0.0,0.0,0.0,0.0,0.0,0.0,0.0,0.0,0.0,0.0,0.0,0.0,0.0,0.0,0.0,0.0,0.0,0.0,0.0,0.0,0.0,0.0,0.0,0.0,0.0,0.0,0.0,0.0,0.0,0.0,0.0,0.0,0.0,0.0,0.0,0.0,0.0,0.0,0.0,0.0,0.0,0.0,0.0,0.0,0.0,0.0,0.0,0.0,0.0,0.0,0.0,0.0,0.0,0.0,0.0,0.0,0.0,0.0,0.0,0.0,0.0,0.0,0.0,0.0,0.0,0.0,0.0,0.0,0.0,0.0,0.0,0.0,0.0,0.0,0.0,0.0,0.0,0.0,0.0,0.0,0.0,0.0,0.0,0.0,0.0,0.0,0.0,0.0,0.0,0.0,0.0,0.0,0.0,0.0,0.0,0.0,0.0,0.0,0.0,0.0,0.0,0.0,0.0,0.0,0.0,0.0,0.0,0.0,0.0,0.0,0.0,0.0,0.0,0.0,0.0,0.0,0.0,0.0,0.0,0.0,0.0,0.0,0.0,0.0,0.0,0.0,0.0,0.0,0.0,0.0,0.0,0.0,0.0,0.0,0.0,0.0,0.0,0.0,0.0,0.0,0.0,0.0,0.0,0.0,0.0,0.0,0.0,0.0,0.0,0.0,0.0,0.0,0.0,0.0,0.0,0.0,0.0,0.0,0.0,0.0,0.0,0.0,0.0,0.0,0.0,0.0,0.0,0.0,0.0,0.0,0.0,0.0,0.0,0.0,0.0,0.0,0.0,0.0,0.0,0.0,0.0,0.0,0.0,0.0,0.0,0.0,0.0,0.0,0.0,0.0,0.0,0.0,0.0,0.0,0.0,0.0,0.0,0.0,0.0,0.0,0.0,0.0,0.0,0.0,0.0,0.0,0.0,0.0,0.0,0.0,0.0,0.0,0.0,0.0,0.0,0.0,0.0,0.0,0.0,0.0,0.0,0.0,0.0,0.0,0.0,0.0,0.0,0.0,0.0,0.0,0.0,0.0,0.0,0.0,0.0,0.0,0.0,0.0,0.0,0.0,0.0,0.0,0.0,0.0,0.0,0.0,0.0,0.0,0.0,0.0,0.0,0.0,0.0,0.0,0.0,0.0,0.0,0.0,0.0,0.0,0.0,0.0,0.0,0.0,0.0,0.0,0.0,0.0,0.0,0.0,0.0,0.0,0.0,0.0,0.0,0.0,0.0,0.0,0.0,0.0,0.0,0.0,0.0,0.0,0.0,0.0,0.0,0.0,0.0,0.0,0.0,0.0,0.0,0.0,0.0,0.0,0.0,0.0,0.0,0.0,0.0,0.0,0.0,0.0,0.0,0.0,0.0,0.0,0.0,0.0,0.0,0.0,0.0,0.0,0.0,0.0,0.0,0.0,0.0,0.0,0.0,0.0,0.0,0.0,0.0,0.0,0.0,0.0,0.0,0.0,0.0,0.0,0.0,0.0,0.0,0.0,0.0,0.0,0.0,0.0,0.0,0.0,0.0,0.0,0.0,0.0,0.0,0.0,0.0,0.0,0.0,0.0,0.0,0.0,0.0,0.0,0.0,0.0,0.0,0.0,0.0,0.0,0.0,0.0,0.0,0.0,0.0,0.0,0.0,0.0,0.0,0.0,0.0,0.0,0.0,0.0,0.0,0.0,0.0,0.0,0.0,0.0,0.0,0.0,0.0,0.0,0.0,0.0,0.0,0.0,0.0,0.0,0.0,0.0,0.0,0.0,0.0,0.0,0.0,0.0,0.0,0.0,0.0,0.0,0.0,0.0,0.0,0.0,0.0,0.0,0.0,0.0,0.0,0.0,0.0,0.0,0.0,0.0,0.0,0.0,0.0,0.0,0.0,0.0,0.0,0.0,0.0,0.0,0.0,0.0,0.0,0.0,0.0,0.0,0.0,0.0,0.0,0.0,0.0,0.0,0.0,0.0,0.0,0.0,0.0,0.0,0.0,0.0,0.0,0.0,0.0,0.0,0.0,0.0,0.0,0.0,0.0,0.0,-1.8943,0.0,0.0,0.0,0.0,0.0,0.0,0.0,0.0,0.0,0.0,0.0,0.0,0.0,0.0,0.0,0.0,0.0,0.0,0.0,0.0,0.0,0.0,0.0,0.0,1.0568,1.0815,1.0815,1.0756,1.0706,1.0689,0.0,0.0,0.0,0.0,0.0,0.9798,0.9695,0.9997,1.0703,1.1061,1.1816,1.2962,1.2448,1.1529,1.0295,0.0,0.0,0.0,0.0,0.0,0.0,0.0,0.0,0.0,0.0,0.0,0.0,0.0,0.0,0.0,0.0,0.0,0.0,0.0,0.0,0.0,0.0,0.0,0.0,0.0,0.0,0.0,0.0,0.0,0.0,0.0,0.0,0.0,0.0,0.0,0.0,0.0,0.0,0.0,0.0,0.0,0.0,0.0,0.0,0.0,0.0,0.0,0.0,0.0,0.0,0.0,0.0,0.0,0.0,0.0,0.0,0.0,0.0,0.0,0.0,0.0,0.0,0.0,0.0,0.0,0.0,0.0,0.0,0.0,0.0,0.0,-2.0147,0.0,0.0,0.0,0.0,0.0,0.0,0.0,0.0,0.0,0.0,0.0,0.0,0.0,0.0,0.0,0.0,0.0,0.0,0.0,0.0,0.0,1.0269,1.0419,1.1064,1.1612,1.1914,1.1748,1.1601,1.1542,1.0766,0.0,0.0,0.0,0.9863,0.9799,0.9832,1.0546,1.1947,1.2455,1.3853,1.6081,1.5998,1.4809,1.2759,1.2266,0.0,0.0,0.0,0.0,0.0,0.0,0.0,0.0,0.0,0.0,0.0,0.0,0.0,0.0,0.0,0.0,0.0,0.0,0.0,0.0,0.0,0.0,0.0,0.0,0.0,0.0,0.0,0.0,0.0,0.0,0.0,0.0,0.0,0.0,0.0,0.0,0.0,0.0,0.0,0.0,0.0,0.0,0.0,0.0,0.0,0.0,0.0,0.0,0.0,0.0,0.0,0.0,0.0,0.0,0.0,0.0,0.0,0.0,0.0,0.0,0.0,0.0,0.0,-2.4228,-2.4554,-2.3812,-2.4522,-2.4469,-2.3734,-2.3068,-2.247,-2.1881,0.0,0.0,0.0,0.0,0.0,0.0,0.0,0.0,0.0,0.0,0.0,0.0,0.0,0.0,0.0,0.0,0.0,0.0,0.0,0.0,1.0547,1.1249,1.143,1.2093,1.3539,1.2972,1.2526,1.2517,1.1657,0.0,0.0,0.9899,0.9869,0.9796,1.0465,1.1253,1.2159,1.489,1.7096,1.8782,1.8663,1.8318,1.7752,1.5589,1.4834,1.502,0.0,0.0,0.0,0.0,0.0,0.0,0.0,0.0,0.0,0.0,0.0,0.0,0.0,0.0,0.0,0.0,0.0,0.0,0.0,0.0,0.0,0.0,0.0,0.0,0.0,0.0,0.0,0.0,0.0,0.0,0.0,0.0,0.0,0.0,0.0,0.0,0.0,0.0,0.0,0.0,0.0,-1.6425,-1.7532,0.0,0.0,0.0,0.0,0.0,0.0,0.0,0.0,0.0,0.0,0.0,0.0,0.0,-2.3349,-2.4931,-2.5812,-2.6218,-2.6146,-2.7129,-2.7503,-2.7329,-2.7445,-2.74,-2.7238,-2.7123,0.0,-2.2815,-2.2648,0.0,0.0,0.0,0.0,0.0,0.0,0.0,0.0,0.0,0.0,0.0,0.0,0.0,0.0,0.0,0.0,0.0,0.0,0.0,0.0,0.0,1.3078,1.4132,1.5341,1.5526,1.513,1.4126,1.3212,1.2077,1.0684,1.0157,1.0082,1.0469,1.1291,1.2966,1.5526,1.8258,2.0142,2.1207,2.1327,2.1496,2.1563,2.0119,1.818,1.5888,1.4145,0.0,0.0,0.0,0.0,0.0,0.0,0.0,0.0,0.0,0.0,0.0,0.0,0.0,0.0,0.0,0.0,0.0,0.0,0.0,0.0,0.0,0.0,0.0,0.0,0.0,0.0,0.0,0.0,0.0,0.0,0.0,0.0,0.0,0.0,0.0,0.0,0.0,0.0,0.0,-1.6476,-1.8254,-1.8672,-1.912,-1.9076,0.0,0.0,0.0,0.0,0.0,0.0,0.0,0.0,0.0,-2.5141,-2.5195,-2.5775,-2.6985,-2.7373,-2.7537,-2.7478,-2.8318,-2.8451,-2.7962,-2.8454,-2.8377,-2.7894,-2.7952,-2.714,-2.5724,-2.4757,-2.3867,-2.2977,0.0,0.0,0.0,0.0,-2.1488,-2.1201,0.0,0.0,0.0,0.0,0.0,0.0,0.0,0.0,0.0,0.0,0.0,0.0,1.3327,1.4773,1.6173,1.7452,1.7929,1.7542,0.0,1.4891,1.338,1.1604,1.0917,1.0801,1.1304,1.3027,1.5639,1.9179,2.1163,2.2482,2.314,2.3343,2.3566,2.378,2.3341,2.1186,1.7837,1.65,1.4803,0.0,0.0,0.0,0.0,0.0,0.0,0.0,0.0,0.0,0.0,0.0,0.0,0.0,0.0,0.0,0.0,0.0,0.0,0.0,0.0,0.0,0.0,0.0,0.0,0.0,0.0,0.0,0.0,0.0,0.0,0.0,0.0,0.0,0.0,0.0,0.0,0.0,0.0,-1.808,-1.9648,-1.9916,-2.0676,-2.0749,0.0,0.0,0.0,0.0,0.0,0.0,-2.3988,-2.4005,-2.5152,-2.776,-2.7796,-2.8286,-2.9338,-2.9338,-2.9317,-2.9255,-2.9661,-2.9505,-2.889,-2.9316,-2.9156,-2.857,-2.8628,-2.8521,-2.8219,-2.6749,-2.5762,-2.5047,-2.3797,-2.3313,-2.3391,-2.4064,-2.3837,-2.3492,0.0,0.0,0.0,0.0,0.0,0.0,0.0,0.0,0.0,0.0,0.0,1.2535,1.4997,1.6087,1.7605,1.9997,1.9488,1.8977,0.0,0.0,1.4328,1.2503,1.2401,1.2305,1.214,1.6182,1.9531,2.2079,2.2914,2.3665,2.4316,2.4137,2.3964,2.3795,2.378,2.3512,2.2923,1.9765,1.8339,1.793,0.0,0.0,0.0,0.0,0.0,0.0,0.0,0.0,0.0,0.0,0.0,0.0,0.0,0.0,0.0,0.0,0.0,0.0,0.0,0.0,0.0,0.0,0.0,0.0,0.0,0.0,0.0,0.0,0.0,0.0,0.0,0.0,0.0,0.0,0.0,0.0,0.0,0.0,0.0,-2.1583,-2.244,0.0,0.0,0.0,0.0,-2.2971,-2.4414,-2.5735,-2.6665,-2.6651,-2.7775,-3.0326,-3.0416,-3.1161,-3.2745,-3.2745,-3.2731,-3.2653,-3.1922,-3.1545,-3.1487,-3.0698,-3.0348,-3.0364,-3.0374,-2.9931,-2.9166,-2.8238,-2.786,-2.7802,-2.7724,-2.7686,-2.7705,-2.7803,-2.7724,-2.7605,0.0,0.0,0.0,0.0,0.0,1.0202,1.0207,1.0229,1.0362,1.0721,1.2187,1.3979,1.6023,1.7981,1.9951,2.1956,2.1808,2.1127,1.9979,0.0,1.6458,1.5695,1.4571,1.4945,1.6974,1.9457,2.1429,2.2871,2.3654,2.4145,2.4338,2.4392,2.4266,2.3981,2.3981,2.3939,2.3671,2.142,1.9794,1.8539,1.6349,1.4506,0.0,0.0,0.0,0.0,0.0,0.0,0.0,0.0,0.0,0.0,0.0,0.0,0.0,0.0,0.0,0.0,0.0,0.0,0.0,0.0,0.0,0.0,0.0,0.0,0.0,0.0,0.0,0.0,0.0,0.0,0.0,0.0,0.0,0.0,0.0,0.0,0.0,-2.3449,-2.4697,0.0,-2.3959,-2.5157,-2.5862,-2.5512,-2.6551,-2.7796,-2.914,-2.9193,-3.0095,-3.2086,-3.2095,-3.2351,-3.2933,-3.2933,-3.2921,-3.2891,-3.2602,-3.2468,-3.2468,-3.2208,-3.1788,-3.127,-3.1321,-3.0869,-3.0114,-2.9805,-2.9012,-2.7995,-2.7995,-2.7995,-2.7995,-2.8023,-2.8023,-2.8031,0.0,0.0,0.0,0.0,1.0106,1.0173,1.021,1.0195,1.0526,1.1454,1.3301,1.5427,1.7731,2.0002,2.1954,2.3387,2.3193,2.2502,2.132,1.9291,1.7944,1.7498,1.6564,1.7479,2.0545,2.1809,2.2861,2.3742,2.4313,2.4526,2.4445,2.4564,2.4478,2.4192,2.4211,2.4211,2.41,2.2996,2.1643,2.0102,1.8713,1.7232,1.5645,0.0,0.0,0.0,0.0,0.0,0.0,0.0,0.0,0.0,0.0,0.0,0.0,0.0,0.0,0.0,0.0,0.0,0.0,0.0,0.0,0.0,0.0,0.0,0.0,0.0,0.0,0.0,0.0,0.0,0.0,0.0,0.0,0.0,0.0,0.0,-2.4741,-2.4773,-2.652,-2.7425,-2.6588,-2.777,-2.8571,-2.8528,-2.9261,-3.0197,-3.1284,-3.132,-3.1954,-3.3357,-3.3364,-3.3487,-3.3776,-3.3776,-3.3776,-3.3776,-3.3487,-3.3333,-3.3333,-3.3075,-3.2656,-3.2138,-3.219,-3.1758,-3.1004,-3.1004,-3.0153,-2.8876,-2.8876,-2.8876,-2.8876,-2.8876,-2.8913,-2.8938,0.0,0.0,0.0,1.0074,1.0094,1.0121,1.0185,1.02,1.1131,1.3724,1.486,1.6738,2.0137,2.2085,2.3474,2.4261,2.3513,2.2979,2.2908,2.0455,1.8631,1.7738,1.8362,1.9894,2.242,2.3168,2.3963,2.4794,2.4931,2.4889,2.4707,2.4707,2.4591,2.4424,2.4476,2.4491,2.4505,2.4572,2.4014,2.2942,2.1745,2.0444,1.8977,0.0,0.0,0.0,0.0,0.0,0.0,0.0,0.0,0.0,0.0,0.0,0.0,0.0,0.0,0.0,0.0,0.0,0.0,0.0,0.0,0.0,0.0,0.0,0.0,0.0,0.0,0.0,0.0,0.0,0.0,0.0,0.0,0.0,-2.2975,-2.4424,-2.5514,-2.5592,-2.7898,-2.9149,-2.8295,-3.0462,-3.193,-3.193,-3.2529,-3.294,-3.3022,-3.2968,-3.3333,-3.4199,-3.4237,-3.4641,-3.5474,-3.5493,-3.5493,-3.5474,-3.4641,-3.4237,-3.4199,-3.3372,-3.3005,-3.3045,-3.3037,-3.2596,-3.1835,-3.1816,-3.1352,-3.0636,-3.0617,-3.0598,-3.0598,-3.0598,-3.0598,-3.0579,0.0,0.0,0.9927,1.0006,1.0078,1.0124,1.0183,1.02,1.0919,1.2905,1.5015,1.7402,2.0195,2.2611,2.4395,2.5249,2.3937,2.3062,2.3046,0.0,1.942,2.0249,2.2171,2.3556,2.4271,2.4473,2.4661,2.4795,2.4929,2.4961,2.4926,2.4877,2.4818,2.4756,2.4637,2.4576,2.4572,2.4591,2.4463,2.4137,2.3081,2.2004,2.0873,0.0,0.0,0.0,0.0,0.0,0.0,0.0,0.0,0.0,0.0,0.0,0.0,0.0,0.0,0.0,0.0,0.0,0.0,0.0,0.0,0.0,0.0,0.0,0.0,0.0,0.0,0.0,0.0,0.0,0.0,0.0,0.0,-2.4568,-2.4638,-2.6176,-2.7516,-2.8103,-2.99,-3.0974,-3.0732,-3.1913,-3.2676,-3.264,-3.2805,-3.3154,-3.3774,-3.378,-3.4178,-3.5122,-3.5141,-3.5257,-3.5507,-3.5493,-3.5493,-3.5507,-3.5257,-3.5141,-3.5141,-3.4944,-3.4518,-3.3952,-3.3978,-3.3527,-3.2676,-3.2068,-3.1681,-3.141,-3.083,-3.0598,-3.0598,-3.0598,-3.0569,-3.051,0.0,0.9752,0.9838,0.9941,1.0044,1.0102,1.0154,1.0493,1.149,1.3564,1.5802,1.8181,2.076,2.2733,2.4054,2.4578,2.3341,2.2552,2.2558,2.1048,2.0861,2.245,2.3851,2.4769,2.5154,2.5111,2.5053,2.4968,2.5061,2.5134,2.5122,2.5091,2.5256,2.5585,2.513,2.5132,2.5438,2.5063,2.4872,2.4826,2.4214,2.3581,2.2866,2.1585,2.0513,1.9546,1.8304,1.7978,1.805,1.7368,0.0,0.0,0.0,0.0,0.0,0.0,0.0,0.0,0.0,0.0,0.0,0.0,0.0,0.0,0.0,0.0,0.0,0.0,0.0,0.0,0.0,0.0,0.0,0.0,-2.4917,-2.6346,-2.6711,-2.7695,-2.8702,-2.9562,-3.1174,-3.2331,-3.2679,-3.3489,-3.3986,-3.3949,-3.3895,-3.4084,-3.4591,-3.4602,-3.4861,-3.5441,-3.5493,-3.5493,-3.5493,-3.5493,-3.5493,-3.5493,-3.5493,-3.5493,-3.5507,-3.5547,-3.5297,0.0,-3.4894,-3.4425,-3.3615,-3.3093,-3.2667,0.0,0.0,0.0,0.0,0.0,-3.1021,-3.0953,0.0,0.9647,0.9733,0.9874,0.9996,1.0085,1.0106,1.0818,1.2267,1.4837,1.6675,1.8752,2.1377,2.2519,2.3103,2.3099,2.2381,2.194,0.0,0.0,2.2596,2.4141,2.4184,2.4567,2.5398,2.5299,2.5274,2.5389,2.5457,2.5523,2.5591,2.5625,2.6036,2.6743,2.6025,2.613,2.6796,2.5964,2.5476,2.5282,2.5218,2.4985,2.4618,2.3798,2.3074,2.2362,2.1424,2.0828,2.0367,1.9574,0.0,0.0,0.0,0.0,0.0,0.0,0.0,0.0,0.0,0.0,0.0,0.0,0.0,0.0,0.0,0.0,0.0,0.0,0.0,0.0,0.0,0.0,0.0,0.0,-2.6333,-2.8127,-2.8846,-2.9169,-2.9601,-3.033,-3.1962,-3.3301,-3.4019,-3.4878,-3.5378,-3.5378,-3.527,-3.5226,-3.5312,0.0,0.0,0.0,0.0,-3.5493,-3.5493,-3.5493,-3.5493,-3.5493,-3.5493,-3.5493,-3.5507,-3.5507,-3.5528,-3.5591,-3.5604,-3.5195,-3.4524,-3.4427,-3.3886,-3.2947,-3.1468,-3.0888,-3.0965,-3.1671,-3.1804,0.0,0.0,0.962,0.9752,0.9875,0.9971,1.0044,1.0083,1.0306,1.1394,1.3995,1.5847,1.7909,2.0468,2.2165,2.3096,2.3097,2.2958,2.2855,0.0,0.0,2.3932,2.4272,2.4882,2.5329,2.5552,2.5479,2.579,2.6481,2.6564,2.6885,2.7473,2.759,2.7697,2.7809,2.7647,2.764,2.7745,2.754,2.7067,2.6378,2.6378,2.5734,2.4766,2.4695,2.4511,2.4231,2.3651,2.3722,2.3984,2.3295,2.2535,2.1881,2.1714,1.96,0.0,0.0,0.0,0.0,0.0,0.0,0.0,0.0,0.0,0.0,0.0,0.0,0.0,0.0,0.0,0.0,0.0,0.0,0.0,-2.6829,-2.8493,-2.9665,-2.9827,-3.1073,-3.1771,-3.1245,-3.2732,-3.3857,-3.3995,-3.476,-3.5239,-3.5239,-3.5207,-3.5226,-3.5312,-3.5304,-3.533,-3.5398,-3.546,-3.5493,-3.5493,-3.5493,-3.5493,-3.5493,0.0,0.0,-3.5507,-3.5495,-3.5502,-3.5528,-3.5577,-3.5504,-3.5322,-3.4668,-3.3886,-3.3063,-3.2734,-3.2618,-3.2618,-3.2679,-3.2628,-3.256,0.9403,0.9532,0.9688,0.9825,0.9925,1.0015,1.0094,1.0531,1.1637,1.3809,1.52,1.6821,1.9001,2.0039,2.0546,2.0541,2.1343,0.0,0.0,2.3871,2.455,2.4982,2.5395,2.5613,2.5654,2.6009,2.6412,2.6856,2.7309,2.7747,2.8093,2.8168,2.8405,2.8784,2.834,2.8369,2.8727,2.8247,2.7566,2.6796,2.676,2.6114,2.5138,2.5197,2.5166,2.5077,2.4863,2.499,2.5197,2.4907,2.4271,2.3597,2.3601,2.1896,1.9717,0.0,0.0,0.0,0.0,0.0,0.0,0.0,0.0,0.0,0.0,0.0,0.0,0.0,0.0,-2.2797,-2.4234,0.0,-2.7507,-2.8319,-2.9765,-3.0787,-3.0757,-3.2237,-3.3032,-3.2153,-3.3203,-3.4159,-3.456,-3.4961,-3.5209,-3.5209,-3.5209,-3.54,-3.5892,-3.5937,-3.5967,-3.5998,-3.6075,-3.5911,-3.5493,-3.5493,-3.5493,-3.5493,-3.5493,-3.5493,-3.5507,-3.5501,-3.5509,-3.5496,-3.5565,-3.5608,-3.5562,-3.519,-3.4754,-3.4303,-3.4303,-3.377,-3.3045,-3.3353,-3.3398,-3.3337,0.9293,0.9421,0.9607,0.9759,0.9886,0.9987,1.007,1.0729,1.1799,1.3383,1.4442,1.5694,1.7311,1.7783,1.8121,0.0,0.0,0.0,0.0,2.4165,2.4965,2.5673,2.5691,2.5771,2.5952,2.6577,2.7062,2.7427,2.812,2.8533,2.8709,2.871,2.9079,2.9725,2.9016,2.9098,2.9707,2.8942,2.8053,2.7156,2.7082,2.6442,2.5503,2.5453,2.542,2.5425,2.548,2.537,2.5193,2.5428,2.4963,2.4333,2.4493,2.3563,2.2201,2.1289,1.9823,0.0,0.0,0.0,0.0,0.0,0.0,0.0,0.0,0.8379,-0.0986,-0.369,-1.4796,-2.4635,-2.6484,-2.8244,-2.9463,-2.9594,-3.0976,-3.1952,-3.1728,-3.3177,-3.3957,-3.3066,-3.3735,-3.4483,-3.5152,-3.5209,-3.5209,-3.5209,-3.5209,-3.5531,-3.6252,-3.6492,-3.6615,-3.6627,-3.6671,-3.6392,-3.5738,-3.5584,-3.5493,-3.5493,-3.5493,-3.5493,-3.5493,-3.5493,-3.5501,-3.5502,-3.5579,-3.5584,-3.5577,-3.5631,-3.5584,-3.5457,-3.543,-3.4551,-3.339,-3.3997,-3.414,-3.4154,0.0,0.933,0.9483,0.9681,0.9781,0.9861,0.9992,1.0159,1.0634,1.1665,1.3223,1.4602,1.5574,1.7021,1.8528,2.0095,0.0,0.0,2.414,2.5071,2.5597,2.5703,2.5698,2.6051,2.6835,2.6874,2.7695,2.9291,2.9342,2.9743,3.0518,3.0504,3.0562,3.0643,3.0552,3.0558,3.0657,3.0536,2.956,2.806,2.7988,2.6992,2.5583,2.5574,2.5539,2.5492,2.5498,2.4993,2.4457,2.5246,2.4966,2.4436,2.5219,2.4838,2.3945,2.3066,2.1619,2.0281,2.0181,2.0091,2.0147,2.0703,2.0677,2.058,0.0,0.9421,-0.1896,-0.396,-1.5716,-2.626,-2.8319,-2.9513,-3.0477,-3.1352,-3.2852,-3.3628,-3.2839,-3.4178,-3.4927,-3.405,-3.4607,-3.5095,-3.519,-3.5209,-3.5209,-3.5209,-3.5209,-3.5293,-3.5518,-3.6209,-3.6656,-3.6762,-3.6727,-3.6661,-3.6584,-3.5872,-3.5493,-3.5493,-3.5493,-3.5493,-3.5493,-3.5493,-3.5507,-3.5488,-3.5566,-3.5528,-3.5438,-3.5496,-3.5443,-3.5296,-3.5187,-3.5024,-3.4852,-3.495,-3.4971,-3.4954,0.0,0.9249,0.9338,0.9499,0.9669,0.9825,0.9922,1.0024,1.0425,1.1315,1.2101,1.3116,1.4498,1.5721,1.6939,1.8132,1.9941,2.1562,2.2811,2.4648,2.5703,2.5703,2.5703,2.5879,2.6245,2.6714,2.7567,2.8784,2.9276,2.9694,3.0041,3.0033,3.0048,3.0048,3.0005,3.0271,3.0719,3.0248,2.9322,2.8147,2.7629,2.667,2.5592,2.5603,2.5566,2.5506,2.5593,2.5028,0.0,2.5303,2.5066,2.4413,2.4742,2.4646,2.4121,2.2749,2.2207,2.2149,2.2578,2.2577,2.2483,2.2601,2.2978,2.2972,2.164,1.0452,-0.0584,-0.3882,-1.606,-2.6884,-2.9319,-3.01,-3.0687,0.0,-3.2819,-3.3577,-3.3641,-3.4661,-3.529,-3.4956,-3.5158,-3.5281,-3.5209,-3.5209,-3.5209,-3.5209,-3.5209,-3.5643,-3.6664,-3.7086,-3.7559,-3.8112,-3.8151,-3.7689,-3.6719,-3.6372,-3.5968,-3.5493,-3.5493,-3.5493,-3.5493,-3.5493,-3.552,-3.5573,-3.5515,-3.5476,-3.5451,-3.5397,-3.5296,-3.5171,-3.5122,-3.5053,-3.4982,-3.4982,-3.4982,-3.4963,0.0,0.9196,0.9239,0.9358,0.9565,0.9752,0.9862,0.9962,1.0272,1.0946,1.1501,1.2484,1.4244,1.4993,1.5708,1.6527,1.8771,2.0615,2.1731,2.4019,2.5447,2.5682,2.5699,2.5811,2.6041,2.6654,2.7384,2.8197,2.8821,2.9143,2.9143,2.9127,2.911,2.9104,2.9065,2.9389,2.9936,2.9362,2.8621,2.7791,2.715,2.6386,2.5606,2.559,2.5402,2.518,2.5293,2.4744,2.4003,2.4473,2.4198,2.3668,2.3634,2.3808,2.3846,2.282,2.3125,2.3823,2.3864,2.4268,2.4591,2.4081,2.4733,2.4878,2.2468,1.1332,0.0484,-0.3277,-1.5682,-2.6669,-2.9288,-3.0094,-3.0772,-3.2068,-3.2947,-3.375,-3.4506,-3.5079,-3.5457,-3.5519,-3.5418,-3.5326,-3.527,-3.5254,-3.5239,-3.5209,-3.5209,-3.5742,-3.6996,-3.7532,-3.8101,-3.8792,-3.908,-3.852,-3.7065,-3.6815,-3.6315,-3.5493,-3.5493,-3.5493,-3.5493,-3.5493,-3.5501,-3.5509,-3.5422,-3.5393,-3.5374,-3.5281,-3.5171,-3.5035,-3.4982,-3.4908,-3.4811,-3.4732,-3.4752,-3.4791,0.0,0.0,0.9219,0.929,0.9421,0.9583,0.9777,0.9863,0.996,1.0129,1.1607,1.3329,1.5065,1.5292,1.5644,1.6525,1.8228,1.9968,2.1684,2.346,2.4813,2.5661,2.5709,2.6108,2.6947,2.6926,2.7324,2.8197,2.8233,2.8237,2.8237,2.8165,2.8138,2.8138,2.8138,2.8138,2.8184,2.8159,2.768,2.6928,2.6909,2.6384,2.5587,2.5521,2.501,2.4355,2.4405,0.0,2.2909,2.2177,2.1904,2.1874,2.1876,2.2452,2.3308,2.4089,2.4941,2.523,2.3513,2.4736,2.6217,2.4908,2.5281,2.5571,2.4083,1.1992,0.0441,-0.1876,-1.4296,-2.5514,-2.7994,-2.9408,-3.0878,-3.2917,-3.3926,-3.4739,-3.554,-3.555,-3.5519,-3.5596,-3.5369,-3.5254,0.0,-3.5391,-3.534,-3.5226,-3.5209,-3.5289,-3.5455,-3.6945,-3.7897,-3.8111,-3.8819,-3.8808,-3.7969,-3.7123,-3.6315,-3.5493,-3.5493,-3.5493,-3.5493,-3.5493,-3.5427,-3.5315,-3.5364,-3.5293,-3.511,-3.5107,-3.5018,-3.4889,-3.4689,-3.4604,-3.4561,-3.4316,-3.4386,-3.4561,0.0,0.0,0.0,0.9231,0.9311,0.9412,0.9524,0.9752,1.0112,1.0744,1.2388,0.0,0.0,0.0,0.0,0.0,1.7303,1.8811,1.9931,2.223,2.392,2.4732,2.5378,2.5824,2.6065,2.6046,2.6456,2.7333,2.7296,2.7278,2.7278,2.7246,2.7244,2.7244,2.7244,2.7561,2.8061,2.7472,2.709,2.6773,2.6198,2.581,2.5609,2.557,2.5014,2.4083,0.0,2.2068,2.1399,2.1706,2.1413,2.1032,2.1562,2.1967,2.2411,2.3278,2.3744,2.4193,2.5231,2.6013,2.6484,2.6307,2.65,2.6308,2.4768,1.6041,0.6371,-0.0336,-1.0543,-2.0135,-2.6284,-2.851,-3.0037,-3.1929,-3.3072,-3.4167,-3.551,-3.5667,-3.5659,-3.5727,-3.5611,0.0,0.0,0.0,0.0,-3.519,-3.5209,-3.5703,-3.6859,-3.7439,-3.8314,-3.958,-3.9874,-3.9621,-3.8873,-3.8007,-3.7142,-3.6295,-3.5603,-3.5308,-3.5308,-3.5157,-3.5088,-3.5032,-3.507,-3.4963,-3.4773,-3.4772,-3.4649,-3.4435,-3.4363,-3.434,-3.4293,-3.4023,-3.3998,-3.4049,0.0,0.0,0.0,0.0,0.0,0.0,0.0,0.0,0.0,0.0,0.0,0.0,0.0,0.0,0.0,0.0,0.0,1.7718,1.8552,2.0811,2.2489,2.3337,2.4222,2.4689,2.4661,2.4652,2.5068,2.5968,2.5939,2.6055,2.6346,2.6345,2.6331,2.6331,2.6331,2.6648,2.7128,2.6558,2.6333,2.6269,2.5362,2.5026,2.5026,2.466,2.3995,0.0,2.1314,2.04,2.0071,2.0328,2.0237,2.0182,2.1012,2.1936,2.2823,2.3377,2.3971,2.4803,2.6362,2.7094,2.7412,2.7513,2.7537,2.7084,2.5368,1.8392,0.9747,0.0916,-0.7954,-1.6622,-2.4726,-2.7201,-2.8821,-3.1328,-3.2324,-3.3479,-3.5433,-3.5665,-3.5669,-3.5782,-3.565,-3.5601,0.0,0.0,0.0,-3.5266,-3.5223,-3.5821,-3.7196,-3.754,-3.8395,-3.9898,-4.0243,-4.0046,-3.9315,-3.843,-3.7382,-3.6151,-3.5441,-3.5089,-3.5089,-3.4964,-3.487,-3.4832,-3.4793,-3.4672,-3.4505,-3.4476,-3.434,-3.4197,-3.4099,-3.4049,-3.4023,-3.3753,-3.3661,-3.3661,0.0,0.0,0.0,0.0,0.0,0.0,0.0,0.0,0.0,0.0,0.0,0.0,0.0,0.0,0.0,0.0,0.0,0.0,1.7567,1.9283,0.0,2.1575,2.239,2.2888,2.2982,2.2921,2.3321,2.4232,2.4238,2.462,2.5376,2.5374,2.536,2.536,2.536,2.536,2.5367,2.5369,2.5376,2.5298,2.4393,2.4033,2.3948,2.2988,2.2181,2.1377,1.9619,1.9079,1.9075,1.8235,1.8597,1.9539,2.0374,2.2332,2.4346,2.4354,2.5535,2.6844,2.6916,2.795,2.8898,2.8458,2.8315,2.7797,2.5932,1.918,1.0816,0.1904,-0.6384,-1.4647,-2.3211,-2.5528,-2.7351,-3.1053,-3.1792,-3.2784,-3.5336,-3.563,-3.5642,-3.5832,-3.562,-3.5541,-3.5734,0.0,0.0,-3.554,0.0,-3.5649,-3.6528,-3.733,-3.8204,-3.9131,-3.9974,-4.0065,-3.9373,-3.845,-3.7053,-3.525,-3.5001,-3.487,-3.487,-3.4851,-3.4773,-3.4653,-3.4529,-3.4416,-3.434,-3.4221,-3.4173,-3.4124,-3.3868,-3.3734,-3.3707,-3.3433,-3.3334,-3.3334,0.0,0.0,0.0,0.0,0.0,0.0,0.0,0.0,0.0,0.0,0.0,0.0,0.0,0.0,0.0,0.0,0.0,0.0,1.6524,1.7727,0.0,0.0,2.1417,2.2217,2.2844,2.2881,2.2984,2.3183,2.3269,2.3437,2.3638,2.3598,2.3565,2.3565,2.3565,2.3591,2.3624,2.3579,2.3585,2.3612,2.3273,2.3184,2.3236,2.2874,2.2273,2.1462,2.0392,1.9638,1.9098,1.8935,2.0273,2.2076,2.2354,2.2888,2.3669,2.4919,2.5576,2.6335,2.823,2.8869,2.9034,2.9212,2.8516,2.7375,2.5842,2.2427,1.607,0.3672,-0.1873,-0.8023,-1.966,-2.372,-2.6273,-2.924,-3.094,-3.2783,-3.5336,-3.6237,-3.6667,-3.6762,-3.7277,-3.7644,-3.7739,-3.7559,0.0,0.0,-3.6631,-3.6528,-3.7349,-3.8209,-3.9085,-3.998,-4.0264,-4.0317,-4.0191,-3.8594,-3.7141,-3.5856,-3.5054,-3.4668,-3.4668,-3.4321,-3.4154,-3.4105,-3.3949,-3.3839,-3.3726,-3.3807,-3.3753,-3.3559,-3.3184,-3.3045,-3.3032,-3.2684,-3.2586,-3.2586,0.0,0.0,0.0,0.0,0.0,0.0,0.0,0.0,0.0,0.0,0.0,0.0,0.0,0.0,0.0,0.0,0.0,0.0,0.0,1.6521,0.0,1.8351,1.9681,2.0646,2.112,2.1536,2.1944,2.2325,0.0,0.0,2.2959,2.2926,2.29,2.29,2.29,2.2926,2.2959,2.2926,2.2926,0.0,0.0,2.2273,2.2291,2.1798,2.1355,2.088,2.0043,1.9967,2.0316,2.0763,2.2103,2.3591,2.3614,2.4178,2.4979,2.5868,2.6672,2.7565,2.8899,2.9415,2.9549,2.9523,2.8456,2.6922,2.5005,2.2879,1.74,0.3483,-0.0841,-0.5924,-1.8481,-2.2735,-2.5254,-2.8027,-3.0011,-3.2085,-3.4642,-3.6034,-3.682,-3.6906,-3.7644,-3.8169,-3.8229,-3.809,-3.7995,0.0,-3.737,-3.7387,-3.8228,-3.8725,-3.9392,-4.0269,-4.0362,-4.0206,-3.9804,-3.8194,-3.6917,-3.5958,-3.4914,-3.4381,-3.4269,-3.4023,-3.3842,-3.378,0.0,-3.3541,-3.3491,-3.3339,-3.322,-3.3099,-3.2716,-3.2568,-3.2568,-3.2385,-3.2317,-3.2283,0.0,0.0,0.0,0.0,0.0,0.0,0.0,0.0,0.0,0.0,1.3743,0.0,0.0,0.0,0.0,0.0,0.0,0.0,0.0,0.0,0.0,1.6183,1.7811,1.8795,1.8965,1.985,2.0689,2.1468,2.1501,2.1817,0.0,0.0,2.2397,2.2397,2.2404,2.2462,2.2571,2.2578,2.2578,2.2494,2.1668,2.1344,2.1255,0.0,0.0,2.0111,1.9346,2.0192,2.1812,2.275,2.3692,2.4495,2.4479,2.5642,2.6973,2.6988,2.8139,2.9376,2.9303,2.9759,3.0075,2.9399,2.8104,2.6357,2.3846,2.1248,1.5613,0.2374,-0.2044,-0.7048,-1.8528,-2.2144,-2.4327,-2.7164,-2.9049,-3.1084,-3.3727,-3.5391,-3.6474,-3.6781,-3.7482,-3.799,-3.8139,-3.8143,-3.8098,-3.7981,-3.7964,-3.8232,-3.8917,-3.907,-3.9452,-4.0177,-4.0271,-3.9832,-3.8804,-3.7605,-3.655,-3.5693,-3.466,-3.4049,-3.3842,-3.3815,-3.3707,-3.3549,0.0,0.0,-3.3298,-3.283,-3.2651,-3.2666,-3.2334,-3.2214,-3.2196,-3.2179,-3.2144,-3.2109,0.0,0.0,0.0,0.0,0.0,0.0,0.0,0.0,0.0,0.0,1.3878,1.3853,0.0,0.0,0.0,0.0,0.0,0.0,0.0,0.0,0.0,0.0,1.716,1.807,1.8745,1.9777,2.0265,2.0221,2.0489,2.0295,0.0,1.9742,1.9767,1.9767,1.9759,2.0166,2.083,2.0824,2.083,2.0804,2.0603,2.0539,2.0559,0.0,0.0,0.0,1.9999,2.0589,2.1671,2.2557,2.4011,2.5469,2.5464,2.6132,2.7032,2.7698,2.8602,2.9516,3.0027,3.0081,2.9715,2.8666,2.7172,2.5379,2.3232,1.7606,1.0479,0.22,-0.4297,-1.0691,-1.7907,-2.1218,-2.3689,-2.6295,-2.8213,-3.0494,-3.3671,-3.4966,-3.6059,-3.7297,-3.8191,-3.8922,-3.9505,-3.9452,0.0,0.0,0.0,-3.9037,-3.8702,-3.9349,-3.9702,-3.9641,-3.9766,-3.9305,-3.8254,-3.7427,-3.639,-3.5206,-3.436,-3.386,-3.3643,-3.3426,-3.3309,-3.325,-3.2719,0.0,-3.2553,-3.2231,-3.2162,-3.2196,-3.1914,-3.1787,-3.175,-3.1504,-3.1406,-3.1368,0.0,0.0,0.0,0.0,0.0,0.0,0.0,1.3143,1.3589,1.4349,1.4578,1.457,1.4261,1.4364,1.437,0.0,0.0,0.0,0.0,0.0,0.0,0.0,0.0,1.7216,1.8051,1.9096,1.978,2.0105,0.0,2.0167,1.9729,1.9761,1.9784,1.9771,1.9771,2.0001,2.0395,2.04,2.0405,2.0405,0.0,0.0,0.0,0.0,0.0,0.0,0.0,2.0807,2.1656,2.2053,2.3431,2.5089,2.5468,2.6195,2.7062,2.7868,2.867,2.9442,3.0163,3.0109,2.9553,2.8259,2.6834,2.5013,2.2158,1.5844,0.8556,0.1221,-0.5733,-1.2219,-1.7939,-2.0633,-2.2656,-2.4754,-2.6473,-2.8666,-3.1927,-3.35,-3.502,-3.6952,-3.7998,-3.8893,-3.9627,-3.963,-3.9599,-3.9599,0.0,-3.9363,-3.9086,-3.9467,-3.9632,-3.9505,-3.8964,-3.8427,-3.7965,-3.6556,-3.5549,-3.4926,-3.3915,-3.3419,-3.3368,-3.2858,-3.2684,-3.2702,-3.2179,0.0,-3.2092,-3.1841,-3.164,-3.1459,-3.1189,-3.0931,-3.069,-3.0518,-3.0452,-3.0452,0.0,0.0,0.0,0.0,0.0,0.0,0.0,1.361,1.3926,1.4829,1.5389,1.5487,1.4924,1.4971,1.4813,0.0,0.0,0.0,0.0,0.0,0.0,0.0,0.0,1.6772,1.7728,0.0,0.0,2.0235,2.0321,0.0,0.0,0.0,0.0,0.0,2.0133,2.0231,2.0406,2.0402,2.0406,0.0,0.0,0.0,0.0,0.0,0.0,0.0,0.0,2.0781,2.143,2.1485,2.2516,2.3874,2.459,2.5761,2.7015,2.7589,2.8396,2.9206,2.9658,2.9661,2.9177,2.7653,2.6291,2.4112,1.9545,1.3034,0.5839,-0.1604,-0.8397,-1.432,-1.8531,-2.0391,-2.1846,-2.3487,-2.4891,-2.6864,-2.998,-3.1742,-3.3556,-3.5857,-3.7056,-3.804,-3.8854,-3.9024,0.0,-3.9063,0.0,0.0,-3.9268,-3.9144,-3.9005,-3.8854,-3.7942,-3.7302,-3.7063,-3.553,-3.4604,-3.4304,-3.3376,-3.2903,-3.2876,-3.2282,-3.2056,-3.2127,-3.1768,0.0,0.0,-3.1317,-3.0948,-3.0575,-3.0418,-3.014,-2.9793,-2.9793,-2.9793,-2.9793,0.0,0.0,0.0,0.0,0.0,0.0,0.0,1.3541,1.4394,1.5631,1.5887,1.5982,1.6033,1.6047,1.5801,0.0,0.0,0.0,0.0,0.0,0.0,0.0,0.0,0.0,0.0,0.0,0.0,2.0026,2.0215,0.0,0.0,0.0,0.0,0.0,0.0,1.9714,2.039,2.0391,0.0,0.0,0.0,0.0,0.0,0.0,0.0,0.0,0.0,2.0385,2.0589,2.106,2.1439,2.1776,2.2392,2.459,2.6865,2.6708,2.7701,2.872,2.8165,2.8371,2.8246,2.6351,2.4769,2.1655,1.3848,0.6322,-0.0957,-0.7946,-1.4462,-1.9124,-1.9789,-2.0679,-2.1808,-2.3371,-2.4395,-2.5995,-2.878,-3.0076,-3.1563,-3.3713,-3.502,-3.6108,-3.7067,-3.7478,-3.7685,0.0,0.0,0.0,-3.8566,-3.7993,-3.7362,-3.6696,-3.664,-3.6002,-3.4715,-3.4613,-3.396,-3.2784,-3.2681,-3.2366,-3.1823,-3.175,-3.175,-3.1714,-3.1338,0.0,0.0,-3.0368,-3.0027,-2.9569,-2.9793,-2.9837,-2.9793,-2.9793,-2.9793,-2.9793,0.0,0.0,0.0,0.0,0.0,0.0,1.2439,1.265,1.3219,1.4592,1.5062,1.5227,1.5123,1.5696,1.5737,1.486,0.0,0.0,0.0,0.0,0.0,0.0,0.0,0.0,0.0,0.0,1.922,1.9881,2.0041,0.0,0.0,0.0,0.0,0.0,0.0,2.0009,2.0342,0.0,0.0,0.0,0.0,0.0,0.0,0.0,0.0,0.0,0.0,0.0,1.8601,1.783,1.8027,1.8591,1.8764,1.9357,2.0689,2.4352,2.6283,2.7351,2.7899,2.7596,2.6834,2.5482,2.0865,1.5475,1.0954,0.1628,-0.6953,-0.9944,-1.5365,-1.957,-1.9538,-1.9871,-2.0455,-2.1342,-2.1729,-2.2923,-2.5932,-2.6663,-2.8252,-3.1928,-3.2829,-3.4056,0.0,0.0,-3.6412,0.0,0.0,0.0,-3.5614,-3.6381,-3.6702,-3.6416,-3.5208,-3.4287,-3.3736,-3.3053,-3.2441,-3.1951,-3.1754,-3.1716,-3.1677,-3.1201,-3.0948,-3.0897,-3.0485,0.0,0.0,-2.9689,-2.9422,-2.9012,-2.9241,-2.9227,-2.8967,-2.8967,-2.8967,-2.8967,0.0,0.0,0.0,0.0,0.0,1.1211,1.1776,1.1885,1.236,1.3661,1.41,1.4296,1.4297,1.4855,1.4907,1.4145,1.4353,0.0,0.0,0.0,0.0,0.0,0.0,0.0,0.0,0.0,1.854,1.9396,1.9623,1.9733,0.0,0.0,2.0056,2.0118,0.0,0.0,0.0,0.0,0.0,0.0,0.0,0.0,0.0,0.0,0.0,0.0,0.0,0.0,0.0,0.0,0.0,1.3526,1.3353,1.3252,1.4323,2.0122,2.2762,2.399,2.4766,2.3566,2.1868,2.0901,1.4563,0.7712,0.4419,-0.3483,-1.0677,-1.2538,-1.63,-1.9139,-1.8843,-1.888,-1.9129,-1.9612,-1.9679,-2.0646,-2.3404,-2.3995,-2.5526,-2.9242,0.0,-3.1633,0.0,-3.4804,-3.4901,0.0,0.0,0.0,0.0,-3.4128,-3.4763,-3.5076,-3.3656,-3.283,-3.2641,-3.1716,-3.1159,-3.1099,-3.0818,-3.0778,-3.0897,-3.0335,-3.0038,-2.9989,0.0,0.0,0.0,-2.9088,-2.8919,-2.8527,-2.8779,-2.87,-2.8411,-2.8411,-2.8411,-2.8411,0.0,0.0,0.0,0.0,0.0,0.0,1.076,1.1438,1.226,1.327,1.3243,1.3377,1.4016,1.3706,1.3347,1.3137,1.3608,0.0,0.0,0.0,0.0,0.0,0.0,0.0,0.0,0.0,1.806,1.8414,1.8883,1.9113,1.9128,1.9585,1.983,1.9897,0.0,0.0,0.0,0.0,0.0,0.0,0.0,0.0,0.0,0.0,0.0,0.0,0.0,0.0,0.0,0.0,0.0,0.0,0.0,0.6813,0.8912,1.3701,1.6561,1.8059,1.7547,1.499,1.2211,1.1283,0.5601,-0.1399,-0.7605,-0.953,-1.1507,-1.6839,-1.8302,-1.8445,-1.7906,-1.7872,-1.8086,-1.8625,-1.8957,-1.9774,-2.1664,-2.2739,-2.3852,0.0,-2.7117,-2.8748,-3.0057,-3.1979,0.0,0.0,0.0,0.0,0.0,-3.1135,-3.0929,-3.2001,-3.2026,-3.1739,-3.114,-3.0721,-3.0402,-3.0227,-2.9854,-2.9508,-2.912,-2.912,-2.912,0.0,0.0,0.0,0.0,-2.8591,-2.8431,-2.8005,-2.8299,-2.8396,-2.8411,-2.8411,-2.8411,-2.8411,0.0,0.0,0.0,0.0,0.0,0.0,0.0,0.9878,1.0332,1.1455,1.1472,1.1623,1.2242,1.2138,1.2022,1.1926,1.2914,0.0,0.0,0.0,0.0,0.0,0.0,0.0,0.0,1.5371,1.577,1.6614,1.6832,1.7153,1.7659,1.7855,1.8083,1.8302,1.779,1.7595,0.0,0.0,0.0,0.0,0.0,0.0,0.0,0.0,0.0,0.0,0.0,0.0,0.0,0.0,0.0,0.0,0.0,0.0,0.0,0.3011,0.7069,1.1039,1.0973,0.9035,0.6995,0.6843,0.0803,-0.5544,-0.7306,-1.166,-1.5578,-1.6393,-1.7015,-1.7269,-1.6726,-1.6654,-1.6887,-1.7572,-1.7545,-1.8079,-1.9874,-2.0814,0.0,-2.4709,-2.7786,-2.975,0.0,0.0,0.0,0.0,0.0,0.0,0.0,-2.8805,-2.9155,-3.0851,-3.0206,-2.9701,-2.952,-2.9268,-2.9148,-2.9148,-2.918,-2.915,-2.9074,-2.9074,0.0,0.0,0.0,0.0,0.0,-2.8122,-2.8137,-2.802,-2.8314,-2.8411,-2.8411,-2.8411,-2.8411,-2.8411,0.0,0.0,0.0,0.0,0.0,0.0,0.0,0.8741,0.901,0.9791,0.988,1.0043,1.0527,1.0454,1.0357,1.0357,1.1099,0.0,0.0,0.0,0.0,0.0,0.0,0.0,1.2805,1.2996,1.3462,1.4337,1.4526,1.4996,1.5696,1.5754,1.5991,1.6313,1.5233,1.4789,0.0,0.0,0.0,0.0,0.0,0.0,0.0,0.0,0.0,0.0,0.0,0.0,0.0,0.0,0.0,0.0,0.0,0.0,0.0,0.0,-0.1595,0.1882,0.3997,0.2381,0.0115,0.0138,-0.563,-1.1191,-1.0667,-1.3941,-1.6764,-1.557,-1.574,-1.5933,-1.5427,-1.5414,-1.5591,-1.598,-1.6125,-1.6686,-1.8029,0.0,0.0,-2.3379,0.0,0.0,0.0,0.0,0.0,0.0,0.0,0.0,0.0,-2.6799,-2.7049,-2.8308,-2.8284,-2.8355,-2.8623,-2.8336,-2.8271,-2.84,-2.8319,-2.8286,-2.8192,-2.8192,0.0,0.0,0.0,0.0,0.0,-2.7188,-2.7291,-2.7473,-2.766,-2.7925,-2.8152,-2.8152,-2.825,-2.8411,0.0,0.0,0.0,0.0,0.0,0.0,0.0,0.7957,0.8236,0.8335,0.846,0.8645,0.8998,0.873,0.8496,0.8496,0.0,0.0,0.0,0.0,0.0,0.0,0.0,0.0,1.0174,1.0593,1.1056,1.1519,1.1898,1.2434,1.3089,1.3091,1.337,1.3717,1.215,1.1374,0.0,0.0,0.0,0.0,0.0,0.0,0.0,0.0,0.0,0.0,0.0,0.0,0.0,0.0,0.0,0.0,0.0,0.0,0.0,0.0,0.0,0.0,0.0,-0.4649,-0.77,-0.7982,-1.2684,-1.7077,-1.635,-1.5925,0.0,-1.4483,-1.4519,-1.4612,-1.4168,-1.4237,-1.4301,-1.4238,-1.4883,-1.5647,-1.6318,-1.7564,0.0,0.0,-2.328,0.0,0.0,0.0,0.0,0.0,0.0,0.0,0.0,-2.5204,-2.4951,-2.5007,-2.6381,-2.7475,-2.803,-2.77,-2.7565,-2.77,-2.7408,-2.7011,-2.6616,-2.6616,0.0,0.0,0.0,0.0,0.0,-2.5918,-2.6201,-2.651,-2.664,-2.7122,-2.774,-2.774,-2.7989,-2.8299,0.0,0.0,0.0,0.0,0.0,0.0,0.0,0.0,0.0,0.0,0.7775,0.7971,0.8371,0.7927,0.7624,0.0,0.0,0.0,0.0,0.0,0.0,0.0,0.0,0.0,0.7004,0.7092,0.7334,0.7779,0.7882,0.8274,0.8966,0.8566,0.8607,0.8894,0.7462,0.6246,0.0,0.0,0.0,0.0,0.0,0.0,0.0,0.0,0.0,0.0,-0.8472,-0.8867,0.0,0.0,0.0,0.0,0.0,0.0,0.0,0.0,-0.9667,-0.9801,-0.8859,0.0,-1.0974,-1.134,-1.2605,-1.3813,0.0,-1.3887,-1.3672,-1.3195,-1.3563,-1.396,-1.404,-1.3758,-1.3956,-1.512,-1.5271,-1.5578,-1.6558,-1.8866,0.0,-2.2715,-2.3998,-2.4833,0.0,0.0,0.0,0.0,0.0,0.0,0.0,-2.461,-2.4509,-2.5007,-2.4924,-2.519,-2.5795,-2.57,-2.57,-2.5809,-2.5837,-2.5837,-2.5837,-2.596,0.0,0.0,0.0,0.0,-2.5783,-2.5918,-2.6201,-2.651,-2.664,-2.6953,-2.724,-2.724,-2.7342,-2.7444,0.0,0.0,0.0,0.0,0.0,0.0,0.0,0.0,0.0,0.0,0.0,0.6981,0.7387,0.6895,0.0,0.0,0.0,0.0,0.0,0.0,0.0,0.0,0.0,0.5375,0.4504,0.4681,0.4842,0.4945,0.4953,0.5154,0.5604,0.5211,0.5213,0.5476,0.3885,0.2007,0.0,0.0,0.0,0.0,0.0,0.0,0.0,0.0,0.0,0.0,-0.9022,-0.9301,0.0,-0.8886,-0.9096,-0.9527,0.0,0.0,0.0,0.0,-0.9527,-0.9725,-0.9755,-1.076,-1.1866,-1.229,-1.2364,-1.2438,-1.2634,-1.2567,-1.2378,-1.2186,-1.2449,-1.2733,-1.2866,-1.2853,-1.314,-1.4089,-1.447,-1.5186,0.0,0.0,-2.0439,-2.1403,-2.2546,0.0,0.0,0.0,0.0,0.0,0.0,0.0,0.0,-2.2882,-2.2882,-2.3217,-2.2882,-2.3492,-2.5007,-2.5007,-2.5063,-2.5175,-2.5342,-2.5342,-2.5175,-2.5356,-2.5258,0.0,0.0,0.0,-2.5034,-2.5077,-2.5287,-2.5618,-2.5837,-2.6215,-2.6654,-2.6759,-2.6967,-2.7122,0.0,0.0,0.0,0.0,0.0,0.0,0.0,0.0,0.0,0.0,0.0,0.0,0.0,0.0,0.0,0.0,0.0,0.0,0.0,0.0,0.0,0.0,0.4152,0.3811,0.2645,0.2893,0.2936,0.2649,0.2567,0.2547,0.2683,0.2248,0.2175,0.2327,0.0813,-0.1357,0.0,0.0,0.0,0.0,0.0,0.0,0.0,0.0,0.0,0.0,0.0,0.0,0.0,-0.9159,-0.9448,-1.0,-0.9549,0.0,0.0,0.0,0.0,0.0,-0.8635,-0.9963,-1.1481,-1.1736,-1.1876,-1.1908,-1.1912,-1.1637,-1.1394,-1.1394,-1.1468,-1.1586,-1.1804,-1.2114,-1.2423,-1.2696,0.0,0.0,-1.6486,-1.7875,-1.8874,-1.9436,-2.0331,0.0,0.0,0.0,0.0,0.0,0.0,0.0,0.0,-2.0894,-2.094,-2.1009,-2.1009,-2.2066,-2.4355,-2.4412,-2.4469,-2.4584,-2.4697,-2.4654,-2.4381,-2.458,-2.4492,0.0,0.0,0.0,-2.4112,-2.4112,-2.4274,-2.458,-2.4878,-2.5439,-2.6082,-2.6351,-2.6616,-2.6916,0.0,0.0,0.0,0.0,0.0,0.0,0.0,0.0,0.0,0.0,0.0,0.0,0.0,0.0,0.0,0.0,0.0,0.0,0.0,0.0,0.0,0.1832,0.2273,0.2267,0.1695,0.1319,0.0913,0.0478,0.0,-0.0202,-0.0204,-0.1176,-0.1956,-0.2526,-0.2575,-0.3237,-0.4295,-0.4295,0.0,0.0,0.0,0.0,0.0,0.0,0.0,0.0,0.0,0.0,0.0,-0.8651,-0.8814,-0.9136,-0.8732,0.0,0.0,0.0,0.0,0.0,-0.9249,-1.0254,-1.1037,-1.0617,-1.0795,-1.1055,-1.1012,-1.0943,-1.0891,-1.0891,-1.1249,-1.187,-1.27,-1.2698,-1.2847,-1.3782,0.0,-1.541,0.0,0.0,-1.8403,-1.8965,0.0,0.0,0.0,0.0,0.0,0.0,0.0,0.0,0.0,-1.998,-2.0176,-2.0531,-2.0481,-2.0862,-2.1655,-2.1729,-2.1729,-2.1717,-2.1916,-2.2347,-2.2955,-2.3062,-2.3518,0.0,0.0,-2.4112,-2.4112,-2.4112,-2.4447,-2.4948,-2.5005,-2.5384,-2.5948,-2.6002,-2.6056,-2.615,0.0,0.0,0.0,0.0,0.0,0.0,0.0,0.0,0.0,0.0,0.0,0.0,0.0,0.0,0.0,0.0,0.0,0.0,0.0,0.0,0.1521,0.103,0.0983,0.0866,0.0618,0.0374,-0.0143,-0.096,-0.1234,-0.152,-0.1817,-0.2491,-0.2996,-0.3391,-0.3449,-0.3785,-0.4351,-0.4351,-0.4826,0.0,0.0,0.0,0.0,0.0,0.0,0.0,0.0,0.0,0.0,0.0,-0.8535,-0.8984,-0.8781,0.0,0.0,0.0,0.0,0.0,-0.8317,-0.9081,-0.99,-0.97,-1.0587,-1.1499,-1.1466,-1.1113,-1.0813,-1.0813,-1.1194,-1.1645,-1.2119,-1.2489,-1.3064,-1.4095,0.0,-1.5342,-1.6299,-1.6802,-1.7222,0.0,0.0,0.0,0.0,0.0,0.0,0.0,0.0,0.0,0.0,0.0,-1.8725,-1.8942,-1.9182,-1.9421,-1.9639,-1.99,-2.0355,-2.1123,-2.1325,-2.169,-2.2237,-2.2347,-2.2919,-2.37,0.0,-2.3878,-2.4112,-2.4112,-2.4332,-2.4765,-2.4948,-2.53,-2.5702,-2.5853,-2.5893,-2.5948,0.0,0.0,0.0,0.0,0.0,0.0,0.0,0.0,0.0,0.0,0.0,0.0,0.0,0.0,0.0,0.0,0.0,0.0,0.0,0.1514,0.1031,0.0537,0.0179,-0.0092,-0.0241,-0.0382,-0.0889,-0.1752,-0.1912,-0.2318,-0.2984,-0.3061,-0.3249,-0.3529,-0.3759,-0.4008,-0.4316,-0.4403,-0.4661,0.0,0.0,0.0,0.0,0.0,0.0,0.0,0.0,0.0,0.0,0.0,0.0,0.0,0.0,0.0,0.0,-0.8008,-0.7984,-0.8005,-0.7469,-0.8111,-0.8993,-0.916,-1.0277,-1.1343,-1.1537,-1.0967,-1.049,-1.0633,-1.099,-1.1328,-1.1487,-1.2161,0.0,-1.4013,-1.4467,-1.4873,-1.5416,-1.58,0.0,0.0,0.0,0.0,0.0,0.0,0.0,0.0,0.0,0.0,0.0,0.0,-1.746,-1.7503,-1.7895,-1.8112,-1.8226,-1.8578,-1.9371,-2.0613,-2.088,-2.1187,-2.169,-2.1865,-2.2372,-2.3198,-2.3198,-2.3437,-2.3734,-2.3734,-2.4015,-2.4465,-2.4765,-2.5131,-2.5592,-2.5839,-2.5893,-2.5948,0.0,0.0,0.0,0.0,0.0,0.0,0.0,0.0,0.0,0.0,0.0,0.0,0.0,0.0,0.0,0.0,0.0,0.0,0.0,0.101,0.0539,0.0089,0.0,-0.0232,-0.0752,-0.1261,-0.1582,-0.1699,-0.2287,-0.2927,-0.3723,-0.3535,-0.3788,-0.438,-0.4304,-0.4272,-0.4316,-0.4748,-0.4966,-0.5048,-0.569,0.0,0.0,0.0,0.0,0.0,0.0,0.0,0.0,0.0,0.0,0.0,0.0,0.0,-0.7795,-0.7724,-0.7518,-0.7324,-0.7602,-0.8201,-0.8799,-0.9137,-0.9226,-0.9393,-1.0094,-0.9748,-0.9491,-1.0015,-1.0588,-1.1066,-1.1491,-1.2101,-1.2798,-1.3618,-1.3755,-1.4069,0.0,0.0,0.0,0.0,0.0,0.0,0.0,0.0,0.0,0.0,0.0,0.0,0.0,0.0,0.0,-1.7018,-1.7059,-1.7286,-1.7781,-1.7812,-1.8311,-1.9264,-1.9605,-2.0172,-2.0974,-2.1313,-2.1877,-2.2665,-2.2665,-2.2665,-2.2725,-2.2725,-2.3327,-2.435,-2.435,-2.4978,-2.5893,-2.5893,-2.5893,-2.5893,0.0,0.0,0.0,0.0,0.0,0.0,0.0,0.0,0.0,0.0,0.0,0.0,0.0,0.0,0.0,0.0,0.0,0.0,0.0,0.0926,0.0345,-0.0472,-0.0441,-0.0827,-0.1699,-0.1667,-0.1891,-0.2307,-0.2529,-0.2837,-0.3281,-0.336,-0.361,-0.4014,-0.4216,-0.4316,-0.432,-0.4491,-0.4618,-0.4778,-0.5035,0.0,0.0,0.0,0.0,0.0,0.0,0.0,0.0,0.0,-0.678,-0.6966,-0.7056,-0.735,-0.7631,-0.719,-0.7124,-0.7175,-0.7095,-0.7676,-0.8348,-0.8482,-0.8933,-0.953,-1.0449,-1.0471,-1.0381,-1.0765,-1.1226,-1.1663,-1.2061,-1.2317,-1.2711,-1.3544,-1.369,-1.4007,0.0,0.0,0.0,0.0,0.0,0.0,0.0,0.0,0.0,0.0,0.0,0.0,0.0,0.0,0.0,-1.5713,-1.5988,-1.6204,-1.6412,-1.6687,-1.6983,-1.7362,-1.829,-1.8984,-1.9532,-2.0155,-2.0912,-2.1705,-2.203,-2.2359,-2.2592,-2.2592,-2.3015,-2.3741,-2.4465,-2.5216,-2.5893,-2.5893,-2.5893,-2.5893,0.0,0.0,0.0,0.0,0.0,0.0,0.0,0.0,0.0,0.0,0.0,0.0,0.0,0.0,0.0,0.0,0.0,0.0,0.1187,0.0843,0.0288,-0.0534,-0.0515,-0.0895,-0.1817,-0.16,-0.1836,-0.2605,-0.2542,-0.2669,-0.2962,-0.308,-0.337,-0.3819,-0.4031,-0.4216,-0.4357,-0.4473,-0.453,-0.4604,-0.4857,-0.5033,0.0,0.0,0.0,0.0,0.0,0.0,0.0,0.0,-0.6336,-0.6563,0.0,-0.7161,-0.747,-0.6986,-0.7015,-0.7156,-0.69,-0.7326,-0.7858,-0.8121,-0.8802,-0.9641,-1.0569,-1.0761,-1.0864,-1.1353,-1.166,-1.1921,-1.2104,-1.2085,0.0,0.0,-1.3275,0.0,0.0,0.0,0.0,0.0,0.0,0.0,0.0,0.0,0.0,0.0,0.0,0.0,0.0,0.0,0.0,0.0,-1.5235,-1.5378,-1.5349,-1.5704,-1.5847,-1.5847,-1.685,-1.7733,-1.8505,-1.9332,-2.0026,-2.0664,-2.1077,-2.1402,-2.1693,-2.1693,-2.2138,-2.2955,-2.4155,-2.5048,-2.5619,-2.5619,-2.5729,-2.5893,0.0,0.0,0.0,0.0,0.0,0.0,0.0,0.0,0.0,0.0,0.0,0.0,0.0,0.0,0.0,0.0,0.0,0.0,0.113,0.0802,0.0392,-0.0079,-0.0041,-0.0301,-0.0895,-0.0885,-0.1405,-0.2417,-0.2415,-0.252,-0.2808,-0.2808,-0.323,-0.3976,-0.3771,-0.4014,-0.4532,-0.4834,-0.4836,-0.4661,-0.541,-0.5266,-0.4623,0.0,0.0,0.0,0.0,0.0,0.0,0.0,-0.5903,-0.6055,-0.6903,0.0,-0.719,-0.7182,-0.7182,-0.7194,-0.7113,-0.716,-0.7381,-0.8213,-0.8751,-0.933,-1.0196,-1.0423,-1.068,-1.1574,-1.1788,-1.1669,-1.1345,-1.1326,0.0,-1.2269,0.0,0.0,0.0,0.0,0.0,0.0,0.0,0.0,0.0,0.0,0.0,0.0,0.0,0.0,0.0,0.0,0.0,0.0,-1.4893,-1.4893,-1.4893,-1.4893,-1.4893,-1.4893,-1.5235,-1.6326,-1.7975,-1.8797,-1.9369,-1.9688,-1.9688,-1.9688,-1.9688,-1.9688,-2.0535,-2.1959,-2.3262,-2.4266,-2.4991,-2.4991,-2.5384,-2.5893,0.0,0.0,0.0,0.0,0.0,0.0,0.0,0.0,0.0,0.0,0.0,0.0,0.0,0.0,0.0,0.0,0.0,0.0,0.1138,0.0797,0.0379,-0.0078,-0.0041,-0.0258,-0.076,-0.1088,-0.1461,-0.1912,-0.2205,-0.2501,-0.2808,-0.2808,-0.3135,-0.3771,-0.3837,-0.4013,-0.4394,-0.46,-0.4797,-0.4879,-0.5109,-0.5289,-0.5364,0.0,0.0,0.0,0.0,0.0,0.0,0.0,0.0,0.0,-0.6138,0.0,-0.7107,-0.6649,-0.6661,-0.6826,-0.6841,-0.728,-0.7819,-0.8107,-0.9213,-1.025,-1.0349,-1.0573,-1.0872,-1.1345,-1.1447,-1.1404,-1.1344,-1.1326,0.0,-1.2269,0.0,0.0,0.0,0.0,0.0,0.0,0.0,0.0,0.0,0.0,0.0,0.0,0.0,0.0,0.0,0.0,0.0,0.0,-1.3932,-1.3932,-1.3932,-1.3932,-1.3932,-1.3932,-1.4359,-1.5183,-1.6364,-1.7579,-1.828,-1.8558,-1.9351,-1.9688,-1.9688,-1.9795,-2.0439,-2.1378,-2.187,-2.3024,-2.4463,-2.4463,-2.5066,-2.5893,0.0,0.0,0.0,0.0,0.0,0.0,0.0,0.0,0.0,0.0,0.2712,0.0,0.0,0.0,0.0,0.0,0.0,0.0,0.0,0.0764,0.0434,0.019,0.02,0.0127,-0.0134,-0.0617,-0.0985,-0.1267,-0.1912,-0.237,-0.2558,-0.2558,-0.2866,-0.343,-0.3462,-0.3827,-0.4329,-0.4433,-0.4714,-0.5106,-0.5134,-0.5259,-0.5376,0.0,0.0,0.0,0.0,0.0,0.0,0.0,0.0,0.0,-0.561,-0.6072,-0.65,-0.632,-0.6575,-0.6965,-0.7281,-0.7874,-0.8504,-0.8996,-0.9885,-1.0609,-1.0753,-1.1023,-1.125,-1.1302,-1.1396,-1.1456,-1.1302,-1.1326,0.0,0.0,0.0,0.0,0.0,0.0,0.0,0.0,0.0,0.0,0.0,0.0,0.0,0.0,0.0,0.0,0.0,0.0,0.0,0.0,-1.3511,-1.3511,-1.3511,-1.3511,-1.3511,-1.3511,-1.3821,-1.4282,-1.4932,-1.6523,-1.742,-1.7728,-1.8645,-1.908,-1.9091,-1.9402,-1.9875,-2.0455,-2.0706,-2.1756,-2.3161,-2.3379,-2.4055,-2.4882,0.0,0.0,0.0,0.0,0.0,0.0,0.0,0.0,0.0,0.0,0.2712,0.255,0.0,0.0,0.0,0.0,0.0,0.0,0.0,0.0,0.0518,0.0586,0.0619,0.0621,0.0718,0.0258,-0.0211,-0.059,-0.1621,-0.2142,-0.2186,-0.2205,-0.2477,-0.2968,-0.2922,-0.3427,-0.4345,-0.4321,-0.4674,-0.5224,-0.5272,-0.5147,-0.4996,-0.498,0.0,0.0,0.0,0.0,0.0,0.0,0.0,0.0,-0.5286,-0.5478,-0.5598,-0.6104,-0.6659,-0.7251,-0.8028,-0.848,-0.9045,-1.0278,-1.0544,-1.0605,-1.119,-1.1541,-1.1687,-1.1345,-1.155,-1.1687,-1.1336,-1.1326,0.0,0.0,0.0,0.0,0.0,0.0,0.0,0.0,0.0,0.0,0.0,0.0,0.0,0.0,0.0,0.0,0.0,0.0,0.0,0.0,-1.3511,-1.3511,-1.3511,-1.3511,-1.3511,0.0,-1.3511,-1.3631,-1.389,-1.5565,-1.6641,-1.7257,-1.7854,-1.8084,-1.813,-1.8644,-1.9008,-1.9347,-1.9794,-2.0556,-2.1479,-2.2014,-2.2698,-2.3396,0.0,0.0,0.0,0.0,0.0,0.0,0.0,0.0,0.0,0.0,0.0,0.0,0.0,0.0,0.0,0.0,0.0,0.0,0.0,0.0,0.0527,0.0616,0.0671,0.0706,0.0719,0.0258,-0.0214,-0.0662,-0.1336,-0.1791,-0.205,-0.2189,-0.2458,-0.2768,-0.2925,-0.3314,-0.3864,-0.4165,-0.4473,-0.4763,-0.4998,-0.5055,-0.498,-0.4759,-0.4624,0.0,0.0,0.0,0.0,0.0,0.0,0.0,-0.507,-0.5299,-0.549,-0.5332,-0.5753,-0.6337,-0.6725,-0.723,-0.8012,-0.9486,-1.0475,-1.1123,-1.1259,-1.1336,-1.137,-1.1293,-1.1336,-1.137,-1.1285,-1.1326,0.0,0.0,0.0,0.0,0.0,0.0,0.0,0.0,0.0,0.0,0.0,0.0,0.0,0.0,0.0,0.0,0.0,0.0,0.0,-1.3511,-1.3511,-1.3511,-1.3511,-1.3511,-1.3511,0.0,-1.3511,-1.3631,-1.383,-1.4805,-1.5948,-1.7257,-1.7854,-1.8084,-1.8096,-1.8199,-1.8464,-1.8802,-1.8854,-1.9728,-2.0952,-2.1484,-2.2351,-2.3396,0.0,0.0,0.0,0.0,0.0,0.0,0.0,0.0,0.0,0.0,0.0,0.0,0.0,0.0,0.0,0.0,0.0,0.0,0.0,0.0504,0.0523,0.0605,0.0651,0.0634,0.0634,0.0403,0.0081,-0.0337,-0.0845,-0.1467,-0.2084,-0.2219,-0.2375,-0.2467,-0.2687,-0.3098,-0.3667,-0.3915,-0.4217,-0.4537,-0.485,-0.4819,-0.4557,-0.4591,-0.4544,-0.4459,-0.4329,0.0,0.0,0.0,0.0,0.0,0.0,0.0,-0.493,-0.5015,-0.5449,-0.6045,-0.6687,-0.7376,-0.8168,-0.9308,-1.0253,-1.0863,-1.0863,-1.1065,-1.1326,-1.1326,-1.1326,-1.1326,-1.1326,0.0,0.0,0.0,0.0,0.0,0.0,0.0,0.0,0.0,0.0,0.0,0.0,0.0,0.0,0.0,0.0,0.0,0.0,-1.3511,-1.3511,-1.3511,-1.3511,-1.3511,-1.3511,-1.3511,-1.3511,-1.3511,-1.3511,-1.364,-1.395,-1.4972,-1.612,-1.7257,-1.7854,-1.8084,-1.8084,-1.8084,-1.8247,-1.8518,-1.856,-1.9102,-1.9867,-2.0746,-2.1455,-2.2129,0.0,0.0,0.0,0.0,0.0,0.0,0.0,0.0,0.0,0.0,0.0,0.0,0.0,0.0,0.0,0.0,0.0,0.0,0.0,0.0509,0.0557,0.0582,0.0612,0.0589,0.0589,0.0599,0.0411,0.0079,-0.0448,-0.118,-0.2109,-0.2222,-0.2268,-0.2239,-0.2416,-0.2852,-0.3497,-0.3563,-0.3813,-0.4238,-0.4539,-0.4433,-0.4058,-0.4336,-0.4392,-0.4312,-0.4312,-0.4312,-0.4312,-0.4312,0.0,0.0,0.0,0.0,-0.4383,-0.4825,-0.5275,-0.5814,-0.6774,-0.769,-0.8556,-0.9235,-0.9887,-1.0403,-1.0403,-1.0863,-1.1326,-1.1326,-1.1326,-1.1326,0.0,0.0,0.0,0.0,0.0,0.0,0.0,0.0,0.0,0.0,0.0,0.0,0.0,0.0,0.0,0.0,0.0,0.0,-1.3459,-1.3417,-1.3442,-1.3511,-1.3511,-1.3511,-1.3511,-1.3511,-1.3511,-1.3511,-1.3511,-1.37,-1.407,-1.5439,-1.6404,-1.709,-1.7799,-1.8084,-1.8084,-1.8084,-1.8247,-1.8476,-1.856,-1.8679,-1.8999,-2.0156,-2.061,-2.0759,0.0,0.0,0.0,0.0,0.0,0.0,0.0,0.0,0.0,0.0,0.2712,0.255,0.215,0.2117,0.0,0.0,0.0,0.0,0.0538,0.0,0.0,0.0583,0.0612,0.0589,0.0589,0.0599,0.0374,-0.0079,-0.0486,-0.1022,-0.1701,-0.1941,-0.2206,-0.2462,-0.249,-0.2676,-0.2988,-0.305,-0.3191,-0.3382,-0.3416,-0.3561,-0.3756,-0.3789,-0.4009,-0.4312,-0.4312,-0.4312,-0.4312,-0.4312,-0.4312,0.0,0.0,0.0,0.0,-0.4383,-0.4666,-0.5032,-0.5389,-0.6721,-0.8078,-0.8466,-0.9511,-1.0403,-1.0403,-1.0863,-1.1326,0.0,-1.1326,0.0,0.0,0.0,0.0,0.0,0.0,0.0,0.0,0.0,0.0,0.0,0.0,0.0,0.0,0.0,0.0,0.0,0.0,0.0,-1.3206,-1.3107,-1.3194,-1.3502,-1.3511,-1.3511,-1.3511,-1.3511,-1.3511,-1.3511,-1.3511,-1.37,-1.407,-1.5274,-1.6073,-1.6472,-1.7623,-1.8084,-1.8084,-1.8084,-1.8302,-1.856,-1.8614,-1.8774,-1.9093,-2.0207,-2.061,-2.0759,0.0,0.0,0.0,0.0,0.0,0.0,0.0,0.0,0.0,0.0,0.0,0.2646,0.2447,0.2447,0.0,0.0,0.0,0.0,0.0538,0.0516,0.0,0.0558,0.0535,0.0541,0.0541,0.0529,0.0465,0.0301,-0.0107,-0.0689,-0.1432,-0.1716,-0.2073,-0.258,-0.2652,-0.2846,-0.306,-0.2981,-0.2989,-0.3033,-0.3149,-0.3231,-0.3296,-0.3592,-0.3856,-0.4088,-0.4263,-0.4312,-0.4312,-0.4312,-0.4312,-0.4312,-0.4312,0.0,0.0,0.0,-0.4487,-0.4829,-0.5505,-0.6301,-0.7107,-0.7796,-0.884,-0.9698,-0.9518,-1.0438,-1.1217,-1.0863,0.0,0.0,0.0,0.0,0.0,0.0,0.0,0.0,0.0,0.0,0.0,0.0,0.0,0.0,0.0,0.0,0.0,0.0,0.0,-1.2362,-1.2854,-1.2759,-1.2723,-1.2877,-1.2877,-1.2988,-1.3211,-1.3211,-1.3314,-1.3511,-1.3511,-1.3863,-1.4519,-1.5381,-1.5958,-1.6368,-1.7567,-1.8084,-1.8084,-1.8205,-1.8356,-1.8518,-1.8625,-1.8786,-1.9052,-2.0156,-2.061,-2.0759,0.0,0.0,0.0,0.0,0.0,0.0,0.0,0.0,0.0,0.0,0.0,0.0,0.2712,0.0,0.0,0.0,0.0,0.0,0.0538,0.0,0.0,0.0,0.0,0.0504,0.0504,0.0504,0.0514,0.0572,0.0206,-0.0449,-0.1298,-0.1646,-0.2159,-0.2789,-0.2871,-0.2993,-0.3057,-0.2917,-0.2837,-0.2792,-0.2933,-0.2936,-0.2961,-0.3415,-0.3668,-0.3877,-0.4142,-0.422,-0.4196,-0.4269,-0.4312,-0.4312,-0.4312,-0.4312,0.0,0.0,0.0,-0.46,-0.5431,-0.5809,-0.6155,-0.7008,-0.8068,-0.8799,-0.87,0.0,-1.0847,0.0,0.0,0.0,0.0,0.0,0.0,0.0,0.0,0.0,0.0,0.0,0.0,0.0,0.0,0.0,0.0,0.0,0.0,0.0,0.0,-1.2123,-1.2508,-1.2416,-1.235,-1.2444,-1.2444,-1.2535,-1.2826,-1.2834,-1.3014,-1.3374,-1.3434,-1.3945,-1.4904,-1.5555,-1.613,-1.6585,-1.7623,-1.8084,-1.8084,-1.8259,-1.8367,-1.8464,-1.8679,-1.8786,-1.8999,-2.0003,-2.0459,-2.0709,0.0,0.0,0.0,0.0,0.0,0.0,0.0,0.0,0.0,0.0,0.0,0.0,0.2712,0.2712,0.2513,0.2114,0.0,0.0,0.0,0.0,0.0,0.0,0.0,0.0,0.0504,0.0504,0.0505,0.0506,0.0168,-0.0449,-0.1299,-0.1828,-0.2523,-0.3329,-0.31,-0.2916,-0.2733,-0.2716,-0.2639,-0.252,-0.2404,-0.257,-0.292,-0.3126,-0.3385,-0.3643,-0.3978,-0.404,-0.3948,-0.4224,-0.4312,-0.4312,-0.4312,-0.4312,-0.4312,0.0,0.0,0.0,-0.4388,-0.4869,-0.5419,-0.6108,-0.7096,-0.7989,0.0,0.0,0.0,0.0,0.0,0.0,0.0,0.0,0.0,0.0,0.0,0.0,0.0,0.0,0.0,0.0,0.0,0.0,0.0,0.0,0.0,0.0,0.0,-1.1933,-1.2377,-1.2184,-1.2191,-1.2602,-1.2444,-1.2398,-1.2423,-1.2423,-1.262,-1.3006,-1.318,-1.3812,-1.4904,-1.5718,-1.6461,-1.7202,-1.7843,-1.8084,-1.8084,-1.8084,-1.8302,-1.8614,-1.8614,-1.8774,-1.904,-1.9656,-2.0156,-2.066,0.0,0.0,0.0,0.0,0.0,0.0,0.0,0.0,0.0,0.0,0.0,0.0,0.0,0.2712,0.255,0.2147,0.1778,0.0,0.0,0.0,0.0,0.0,0.0,0.0,0.0504,0.0504,0.0504,0.0504,0.037,-0.0072,-0.0781,-0.1356,-0.1906,-0.2537,-0.2955,-0.3096,-0.3012,-0.2781,-0.2658,-0.2609,-0.249,-0.2564,-0.2793,-0.2997,-0.3185,-0.3373,-0.366,-0.3923,-0.4155,-0.4267,-0.4398,-0.4458,-0.4334,-0.4177,-0.3995,-0.3844,-0.3849,-0.3944,-0.4152,-0.4565,-0.5063,-0.5525,-0.6492,-0.7326,-0.7245,-0.84,-0.9513,0.0,0.0,0.0,0.0,0.0,0.0,0.0,0.0,0.0,0.0,0.0,0.0,0.0,0.0,0.0,0.0,0.0,0.0,0.0,0.0,0.0,-1.2085,-1.1891,-1.185,-1.2034,-1.1878,-1.1895,-1.2038,-1.2269,-1.2513,-1.2716,-1.2772,-1.3497,-1.479,-1.5401,-1.6307,-1.7379,-1.7881,-1.8084,-1.8084,-1.8259,-1.841,-1.8614,-1.8679,-1.8839,-1.904,-1.9592,-1.9901,-2.0207,0.0,0.0,0.0,0.0,0.0,0.0,0.0,0.0,0.2812,0.2716,0.0,0.0,0.0,0.0,0.255,0.2147,0.1911,0.1709,0.1609,0.1276,0.0,0.0,0.0,0.0,0.0504,0.0504,0.0504,0.0504,0.0504,0.0142,-0.0547,-0.0888,-0.1457,-0.2103,-0.2624,-0.2918,-0.3085,-0.2846,-0.2745,-0.2735,-0.2612,-0.2612,-0.273,-0.298,-0.3083,-0.3125,-0.3503,-0.3775,-0.3951,-0.4069,-0.4167,-0.4254,-0.4204,-0.4056,-0.3838,-0.3494,-0.3537,-0.3689,-0.3767,-0.4066,-0.4477,-0.4995,-0.5663,-0.6262,-0.6558,0.0,0.0,0.0,0.0,0.0,0.0,0.0,0.0,0.0,0.0,0.0,0.0,0.0,0.0,0.0,0.0,0.0,0.0,0.0,0.0,0.0,0.0,0.0,-1.1977,-1.1828,-1.1728,-1.1728,-1.1619,-1.165,-1.1748,-1.2052,-1.2297,-1.2482,-1.2527,-1.3229,-1.4493,-1.5052,-1.5892,-1.6945,-1.7562,-1.7924,-1.8084,-1.8247,-1.841,-1.8614,-1.8679,-1.8839,-1.904,-1.9396,-1.9656,-1.9952,0.0,0.0,0.0,0.0,0.0,0.0,0.0,0.0,0.3084,0.2746,0.0,0.0,0.0,0.0,0.0,0.2156,0.2122,0.1983,0.1642,0.131,0.0,0.0,0.0,0.0,0.0504,0.0504,0.0504,0.0504,0.0504,0.0142,-0.0583,-0.0584,-0.1187,-0.2262,-0.2128,-0.2397,-0.2901,-0.2901,-0.2904,-0.2901,-0.2735,-0.2688,-0.2735,-0.308,-0.3074,-0.2999,-0.3523,-0.3503,-0.3281,-0.3614,-0.3666,-0.3639,-0.3841,-0.3906,-0.3801,-0.3332,-0.3228,-0.3228,0.0,0.0,0.0,-0.4532,0.0,0.0,-0.6226,0.0,0.0,0.0,0.0,0.0,0.0,0.0,0.0,0.0,0.0,0.0,0.0,0.0,0.0,0.0,0.0,0.0,0.0,0.0,0.0,0.0,0.0,-1.2076,-1.2076,-1.1977,-1.1828,-1.1719,-1.1728,-1.1728,-1.1728,-1.1728,-1.1864,-1.2193,-1.2393,-1.3004,-1.3966,-1.4663,-1.5309,-1.5928,-1.6933,-1.7645,-1.8061,-1.8084,-1.8302,-1.8614,-1.8614,-1.8774,-1.8987,-1.8987,-1.9344,-1.9901,0.0,0.0,0.0,0.0,0.0,0.383,0.3423,0.3147,0.2909,0.0,0.0,0.0,0.2751,0.2805,0.281,0.2705,0.2669,0.259,0.2417,0.2047,0.1814,0.1814,0.1244,0.0942,0.0942,0.0639,0.0504,0.0504,0.0504,0.041,0.0176,-0.0256,-0.0791,-0.139,-0.1818,-0.2252,-0.2604,-0.2604,-0.2705,-0.2901,-0.2735,-0.2792,-0.2914,-0.3011,-0.3059,-0.3129,-0.3293,-0.3495,-0.3738,-0.3832,-0.3882,-0.3938,-0.3739,-0.3658,-0.3596,-0.3462,-0.3542,-0.3623,-0.3304,0.0,0.0,0.0,0.0,0.0,0.0,0.0,0.0,0.0,0.0,0.0,0.0,0.0,0.0,0.0,0.0,0.0,0.0,0.0,0.0,0.0,0.0,0.0,0.0,0.0,0.0,0.0,-1.171,-1.1977,-1.2076,-1.2076,-1.1977,-1.1828,-1.1828,-1.1778,-1.1728,-1.1728,-1.1781,-1.1989,-1.204,-1.2429,-1.3134,-1.3709,-1.4277,-1.4864,-1.5906,-1.664,-1.7205,-1.7978,-1.841,-1.8614,-1.8679,-1.8839,-1.8987,-1.8987,-1.9344,-1.9901,0.0,0.0,0.0,0.412,0.4061,0.3872,0.3444,0.3267,0.3111,0.0,0.0,0.0,0.2873,0.3002,0.3005,0.292,0.291,0.2846,0.2726,0.2314,0.2117,0.2117,0.1579,0.1244,0.111,0.0875,0.0672,0.0504,0.0504,0.0471,0.0437,0.0069,-0.0352,-0.0774,-0.1315,-0.179,-0.2194,-0.2285,-0.2476,-0.2838,-0.2824,-0.2877,-0.3013,-0.311,-0.3205,-0.3232,-0.3333,-0.3459,-0.3627,-0.3685,-0.3866,-0.4026,-0.3589,-0.3663,-0.3905,-0.3584,-0.3686,-0.3817,-0.344,-0.3639,-0.3903,-0.371,0.0,0.0,0.0,-0.4888,0.0,0.0,0.0,0.0,0.0,0.0,0.0,0.0,0.0,0.0,0.0,0.0,0.0,0.0,0.0,0.0,0.0,0.0,0.0,-1.1292,-1.161,-1.1877,-1.1927,-1.1977,-1.1977,-1.1877,-1.1977,-1.1927,-1.1877,-1.1877,-1.1927,-1.1977,-1.1977,-1.2166,-1.255,-1.3046,-1.3452,-1.3768,-1.4842,-1.56,-1.6232,-1.7133,-1.7972,-1.8679,-1.8744,-1.8893,-1.8987,-1.8987,-1.9198,-1.9552,0.0,0.0,0.403,0.3995,0.4155,0.4145,0.3702,0.3637,0.3525,0.0,0.3082,0.3134,0.3168,0.3236,0.3202,0.2981,0.2944,0.2869,0.2717,0.2356,0.2183,0.2183,0.1845,0.151,0.1211,0.1177,0.0976,0.0571,0.0571,0.0504,0.0403,0.0336,0.0067,-0.0399,-0.0694,-0.1206,-0.1775,-0.1891,-0.2191,-0.2644,-0.2871,-0.2984,-0.3045,-0.3316,-0.3341,-0.3286,-0.3507,-0.3444,-0.3273,-0.3368,-0.3716,0.0,-0.3379,-0.3804,-0.4386,-0.3784,-0.3767,-0.3907,-0.3674,-0.3632,-0.3761,-0.4155,0.0,0.0,-0.4916,-0.4819,0.0,0.0,0.0,0.0,0.0,0.0,0.0,0.0,0.0,0.0,0.0,0.0,0.0,0.0,0.0,0.0,0.0,-1.1427,-1.1519,-1.1569,-1.1669,-1.1728,-1.1728,-1.1828,-1.1877,-1.1877,-1.2026,-1.2076,-1.2076,-1.2076,-1.2076,-1.2076,-1.2076,-1.2076,-1.2126,-1.254,-1.2725,-1.2793,-1.3779,-1.4577,-1.5202,-1.5892,-1.7191,-1.8715,-1.8715,-1.8845,-1.8987,-1.8987,-1.904,-1.9251,0.0,0.4818,0.4848,0.4522,0.4797,0.4779,0.3876,0.3858,0.3734,0.3176,0.3082,0.3215,0.3463,0.3363,0.3286,0.3229,0.3112,0.3018,0.2873,0.2679,0.258,0.258,0.2214,0.1981,0.1914,0.1644,0.1343,0.0976,0.0976,0.0808,0.0471,0.0403,0.0131,-0.0313,-0.0433,-0.0934,-0.1629,-0.1505,-0.1662,-0.2036,-0.2529,-0.2928,-0.3202,-0.3346,-0.3447,-0.352,-0.3566,-0.3553,-0.3501,-0.3428,-0.3592,-0.3723,0.0,0.0,0.0,-0.409,-0.418,-0.4238,-0.4372,-0.4544,-0.4605,0.0,0.0,0.0,-0.4258,-0.4094,-0.4152,0.0,0.0,0.0,0.0,0.0,0.0,0.0,0.0,0.0,0.0,0.0,0.0,0.0,0.0,0.0,0.0,-1.1065,-1.1217,-1.1006,-1.1619,-1.1977,-1.1877,-1.1877,-1.1877,-1.1728,-1.1877,-1.1927,-1.1927,-1.2026,-1.2076,-1.2076,-1.2076,-1.2076,-1.2076,-1.2166,-1.2264,-1.2264,-1.2861,-1.354,-1.4322,-1.5257,-1.6639,-1.8168,-1.8259,-1.8626,-1.8987,-1.8987,-1.9291,-1.9643,0.4511,0.4636,0.4697,0.4474,0.4843,0.4902,0.4144,0.4123,0.3979,0.3399,0.3351,0.3409,0.3561,0.351,0.339,0.3313,0.328,0.3144,0.2924,0.2839,0.2761,0.2716,0.2513,0.2317,0.2117,0.1947,0.1678,0.1343,0.1177,0.0995,0.0741,0.0515,0.0225,-0.0064,-0.0272,-0.0619,-0.104,-0.1074,-0.1286,-0.1581,-0.1989,0.0,-0.2427,-0.2883,-0.3085,-0.3188,-0.3471,-0.3585,-0.3555,-0.3371,-0.3521,0.0,-0.3485,-0.3704,-0.4046,0.0,-0.4096,-0.423,-0.4398,-0.4538,-0.4617,-0.4482,0.0,0.0,0.0,-0.4225,-0.424,-0.4582,0.0,0.0,0.0,0.0,0.0,0.0,0.0,0.0,0.0,0.0,0.0,0.0,0.0,0.0,0.0,-1.1015,-1.1217,-1.1065,-1.1519,-1.1769,-1.1728,-1.1828,-1.1877,-1.1778,-1.1927,-1.1977,-1.1977,-1.2076,-1.2076,-1.2076,-1.2076,-1.2076,-1.2076,-1.2076,-1.2076,-1.2126,-1.2353,-1.29,-1.3638,-1.4163,-1.537,-1.7029,-1.79,-1.8362,-1.8626,-1.8891,-1.9198,-1.9448,0.4307,0.4412,0.4463,0.4463,0.4868,0.499,0.4435,0.4382,0.4232,0.3667,0.3602,0.3622,0.3622,0.3622,0.3581,0.3443,0.3398,0.3263,0.3052,0.2957,0.2866,0.2771,0.2743,0.256,0.2253,0.2228,0.2047,0.1709,0.1396,0.1163,0.0986,0.0647,0.0408,0.0227,-0.006,-0.0284,-0.05,-0.066,-0.0872,-0.1168,0.0,-0.1492,-0.1805,-0.2318,-0.2601,-0.2713,-0.3236,-0.3413,-0.3382,-0.3275,-0.3506,-0.3761,-0.3435,-0.3717,0.0,0.0,0.0,-0.4073,-0.4253,-0.4389,0.0,0.0,0.0,-0.477,0.0,0.0,0.0,-0.4649,0.0,0.0,0.0,0.0,0.0,0.0,0.0,0.0,0.0,0.0,0.0,0.0,0.0,0.0,0.0,-1.0771,-1.1025,-1.1103,-1.1251,-1.1335,-1.1414,-1.1683,-1.1877,-1.1877,-1.1977,-1.2076,-1.2076,-1.2076,-1.2076,-1.2076,-1.2076,-1.2076,-1.2076,-1.2076,-1.2076,-1.2076,-1.2126,-1.251,-1.3074,-1.3314,-1.4238,-1.5749,-1.7175,-1.7864,-1.8097,-1.853,-1.8686,-1.875,0.4742,0.4942,0.5104,0.5104,0.5529,0.5589,0.4692,0.4763,0.4618,0.3711,0.369,0.3768,0.3768,0.3768,0.3816,0.3934,0.3534,0.3353,0.3497,0.313,0.2957,0.3066,0.2818,0.2744,0.2808,0.2682,0.2447,0.2047,0.188,0.1517,0.0986,0.0893,0.0692,0.0376,0.0285,0.0,-0.0408,-0.0176,-0.0305,0.0,-0.0278,-0.1006,0.0,-0.1976,-0.2138,-0.2525,-0.2709,-0.2792,-0.2888,0.0,-0.3434,-0.339,0.0,-0.3203,-0.3395,-0.3536,0.0,0.0,0.0,0.0,0.0,0.0,-0.4984,0.0,0.0,0.0,-0.4263,-0.4047,0.0,0.0,0.0,0.0,0.0,0.0,0.0,0.0,0.0,0.0,0.0,0.0,0.0,0.0,0.0,0.0,-1.0074,-1.0377,-1.054,-1.0791,-1.1155,-1.1492,-1.1728,-1.1728,-1.1877,-1.1927,-1.1927,-1.2026,-1.2076,-1.2076,-1.2076,-1.2076,-1.2076,-1.2076,-1.2076,-1.2126,-1.2224,-1.2372,-1.2666,-1.3658,-1.4244,-1.4576,-1.5713,-1.6703,-1.7508,-1.7568,-1.7592,-1.7652,0.4812,0.5025,0.5132,0.4877,0.5174,0.5147,0.4392,0.4283,0.4119,0.3681,0.3704,0.3792,0.3792,0.3792,0.3853,0.4005,0.3765,0.3598,0.0,0.332,0.3112,0.3085,0.2924,0.2846,0.2907,0.2761,0.2613,0.2447,0.2161,0.1845,0.1515,0.112,0.0821,0.0566,0.0357,0.0104,-0.0111,-0.0038,-0.0078,0.0,0.0,0.0,0.0,-0.1314,-0.1644,-0.2086,-0.2169,-0.2179,-0.2168,0.0,-0.2515,0.0,0.0,0.0,0.0,-0.3313,0.0,0.0,0.0,0.0,0.0,0.0,0.0,0.0,-0.4292,0.0,-0.4323,0.0,0.0,0.0,0.0,0.0,0.0,0.0,0.0,0.0,0.0,0.0,0.0,0.0,0.0,0.0,0.0,0.0,0.0,0.0,0.0,-1.0131,-1.0932,-1.1309,-1.1594,-1.1819,-1.1927,-1.2026,-1.2026,-1.2076,-1.2076,-1.2076,-1.2076,-1.2076,-1.2076,-1.2076,-1.2076,-1.2126,-1.2224,-1.2382,-1.252,-1.3094,-1.3705,-1.4362,-1.4804,-1.5775,-1.6943,-1.7303,-1.7412,-1.7448,0.4903,0.5013,0.499,0.4706,0.4934,0.4978,0.4367,0.3987,0.3697,0.3595,0.3704,0.3809,0.3849,0.3856,0.3931,0.4124,0.3965,0.3812,0.0,0.352,0.3319,0.3253,0.3069,0.2968,0.2968,0.2818,0.2723,0.2712,0.2377,0.2133,0.1954,0.1475,0.1077,0.0773,0.0541,0.033,0.0157,0.0,0.0041,0.0,0.0,-0.0186,-0.0532,-0.0747,-0.1056,-0.1343,-0.1511,-0.1568,-0.156,-0.1612,-0.1827,0.0,-0.2189,0.0,0.0,0.0,0.0,0.0,-0.3361,0.0,0.0,0.0,0.0,0.0,0.0,0.0,0.0,0.0,0.0,0.0,0.0,0.0,0.0,-0.4067,0.0,0.0,0.0,0.0,0.0,0.0,0.0,0.0,0.0,0.0,0.0,0.0,0.0,0.0,-1.026,-1.0877,-1.1379,-1.1706,-1.1972,-1.2076,-1.2076,-1.2076,-1.2076,-1.2076,-1.2076,-1.2076,-1.2076,-1.2076,-1.2076,-1.2126,-1.2274,-1.2421,-1.2529,-1.2813,-1.343,-1.4118,-1.4258,-1.5072,-1.6265,-1.6799,-1.6979,-1.7003,0.514,0.4994,0.4824,0.4792,0.5215,0.5464,0.5019,0.4188,0.3585,0.3581,0.3704,0.3846,0.3995,0.4012,0.4131,0.4477,0.4182,0.4012,0.4005,0.3734,0.3571,0.3565,0.3276,0.3075,0.3075,0.2974,0.2829,0.2712,0.2565,0.2364,0.2087,0.1935,0.1568,0.0993,0.0985,0.0703,0.0276,0.0206,0.0132,0.0,0.0,0.0,-0.0056,0.0,-0.0436,-0.0112,-0.0729,0.0,0.0,-0.1452,-0.1592,0.0,0.0,0.0,0.0,0.0,0.0,0.0,0.0,0.0,0.0,-0.3229,0.0,0.0,0.0,0.0,-0.4453,0.0,0.0,0.0,0.0,-0.5246,-0.4994,-0.4454,-0.4405,0.0,0.0,0.0,0.0,0.0,0.0,0.0,0.0,0.0,0.0,0.0,0.0,0.0,-0.8732,-1.0256,-1.1158,-1.1318,-1.1826,-1.2076,-1.2076,-1.2076,-1.2076,-1.2076,-1.2076,-1.2076,-1.2076,-1.2076,-1.2076,-1.2126,-1.2382,-1.248,-1.2578,-1.3286,-1.3573,-1.3658,-1.4118,-1.464,-1.5222,-1.5706,-1.584,-1.5957,0.5444,0.5395,0.5204,0.4745,0.4818,0.4793,0.4404,0.4252,0.4088,0.3767,0.3849,0.0,0.0,0.412,0.425,0.0,0.0,0.412,0.412,0.3887,0.3765,0.3866,0.3443,0.3279,0.3422,0.3178,0.2978,0.2832,0.2781,0.2619,0.2364,0.2145,0.1885,0.1581,0.1097,0.0782,0.0,0.0,0.0,0.0,0.0,0.0,0.0,0.0,0.0,0.0,-0.0224,-0.028,0.0,-0.0497,-0.0759,-0.1013,-0.1079,-0.1689,-0.2366,-0.2395,-0.2845,0.0,0.0,0.0,-0.3542,-0.3061,0.0,0.0,0.0,0.0,0.0,0.0,0.0,0.0,0.0,-0.5132,-0.5092,-0.4733,-0.4502,-0.4259,0.0,0.0,0.0,0.0,0.0,0.0,0.0,0.0,0.0,0.0,0.0,0.0,0.0,-1.0031,-1.0827,-1.1149,-1.1768,-1.2076,-1.2076,-1.2076,-1.2076,-1.2076,-1.2076,-1.2076,-1.2076,-1.2076,-1.2076,-1.2126,-1.2382,-1.248,-1.2529,-1.2958,-1.3344,-1.3621,-1.3752,-1.4362,-1.5108,-1.5289,-1.5513,-1.586,0.5718,0.5663,0.5467,0.5037,0.4901,0.4747,0.4422,0.4438,0.4311,0.0,0.3924,0.0,0.4177,0.0,0.4304,0.0,0.4379,0.428,0.4123,0.4033,0.0,0.3938,0.3668,0.3585,0.3581,0.3385,0.3161,0.291,0.291,0.2781,0.2568,0.2407,0.2205,0.1949,0.1365,0.1016,0.079,0.0317,0.0095,0.0,0.0,0.0,0.0,0.0,0.0,0.0,0.0,0.0,0.0,0.0,-0.0221,-0.049,-0.0557,-0.1141,-0.1842,-0.2152,-0.2609,-0.3076,-0.3243,-0.3341,0.0,-0.3012,-0.3112,0.0,-0.303,0.0,0.0,0.0,0.0,0.0,0.0,0.0,-0.5107,-0.4751,-0.452,-0.4192,0.0,-0.3542,0.0,0.0,0.0,0.0,0.0,0.0,-0.57,-0.6545,0.0,0.0,0.0,0.0,-1.0568,-1.0646,-1.1598,-1.2076,-1.2076,-1.2076,-1.2076,-1.2076,-1.2076,-1.2076,-1.2076,-1.2076,-1.2076,-1.2126,-1.2382,-1.248,-1.2529,-1.2783,-1.3065,-1.3392,-1.3525,-1.4082,-1.4823,-1.5017,-1.5468,-1.5969,0.5961,0.5821,0.5651,0.5639,0.5443,0.0,0.0,0.0,0.4314,0.0,0.3934,0.4036,0.419,0.4207,0.4314,0.4505,0.4519,0.4341,0.406,0.412,0.0,0.0,0.3948,0.389,0.3619,0.3598,0.3378,0.2944,0.2927,0.2842,0.2726,0.2716,0.248,0.2125,0.1832,0.0,0.0828,0.0497,0.0244,0.0,0.0,0.0,0.0,0.0,0.0,0.0,0.0,0.0,0.0,0.0,0.0,0.0,0.0,-0.0393,-0.1009,-0.1567,-0.2181,-0.2773,-0.3225,-0.3409,-0.3354,-0.3075,0.0,0.0,0.0,0.0,-0.3947,0.0,0.0,0.0,0.0,0.0,-0.5134,-0.4615,-0.4466,-0.4122,-0.3372,0.0,0.0,0.0,0.0,0.0,0.0,-0.4127,-0.4283,-0.574,-0.6014,-0.6328,0.0,0.0,0.0,-0.9956,-1.134,-1.2058,-1.2076,-1.2076,-1.2076,-1.2076,-1.2076,-1.2076,-1.2076,-1.2076,-1.2076,-1.2126,-1.2382,-1.248,-1.2529,-1.2774,-1.2881,-1.2929,-1.3382,-1.3894,-1.4351,-1.4915,-1.5603,-1.62,0.6295,0.641,0.6434,0.0,0.5716,0.5219,0.0,0.0,0.0,0.0,0.4043,0.4246,0.4392,0.4406,0.4423,0.4515,0.4519,0.0,0.0,0.0,0.0,0.4343,0.4117,0.4036,0.4026,0.3853,0.3629,0.3409,0.3178,0.2991,0.2849,0.2734,0.2646,0.2523,0.1835,0.1474,0.126,0.0482,0.0097,0.0,0.0,0.0,0.0,0.0,0.0,0.0,0.0,0.0,0.0,0.0,0.0,0.0,0.0,-0.0393,-0.0954,-0.1065,-0.1902,-0.273,-0.2874,-0.3202,-0.3501,-0.3349,-0.3243,-0.3134,0.0,0.0,0.0,0.0,0.0,0.0,0.0,0.0,0.0,-0.4896,-0.4565,-0.4315,-0.411,0.0,0.0,-0.4062,0.0,0.0,0.0,-0.4425,-0.5028,-0.5273,-0.5937,0.0,0.0,0.0,0.0,-1.0472,-1.1127,-1.1686,-1.2076,-1.2076,-1.2076,-1.2076,-1.2076,-1.2076,-1.2076,-1.2076,-1.2175,-1.2274,-1.2431,-1.2578,-1.2676,-1.2832,-1.2881,-1.2929,-1.3017,-1.3563,-1.4444,-1.54,-1.5901,-1.6088,0.6562,0.6799,0.0,0.6787,0.0,0.0,0.5504,0.5116,0.0,0.4443,0.4305,0.0,0.4362,0.4426,0.4519,0.4519,0.4519,0.0,0.4372,0.0,0.0,0.4368,0.427,0.4226,0.4197,0.4016,0.0,0.3581,0.3269,0.3049,0.2907,0.2754,0.2712,0.2686,0.0,0.1681,0.1461,0.0854,0.0446,0.0214,0.0387,0.0,0.0,0.0,0.0,0.0,0.0,0.0,0.0,0.0,0.0,0.0,0.0,-0.0224,-0.0561,-0.0842,-0.14,-0.2012,-0.2569,-0.2961,-0.3229,-0.3441,-0.343,-0.3349,-0.3229,-0.3304,-0.3383,0.0,0.0,0.0,0.0,0.0,0.0,-0.4379,-0.4285,-0.4207,-0.4043,0.0,0.0,0.0,-0.4089,0.0,0.0,0.0,0.0,0.0,0.0,0.0,0.0,0.0,0.0,-0.9572,-1.0565,-1.1094,-1.1198,-1.1314,-1.1351,-1.1342,-1.1619,-1.1769,-1.1778,-1.1977,-1.2175,-1.2332,-1.2431,-1.2578,-1.2725,-1.2832,-1.2881,-1.2929,-1.3113,-1.3658,-1.4387,-1.5164,-1.5724,-1.6132,0.6805,0.7072,0.0,0.0,0.0,0.0,0.0,0.5597,0.0,0.4968,0.0,0.4224,0.4224,0.4389,0.4519,0.4519,0.0,0.4409,0.4231,0.4392,0.4406,0.4231,0.4395,0.4402,0.4224,0.4056,0.3883,0.0,0.328,0.3049,0.2907,0.2754,0.2712,0.2686,0.0,0.0,0.0,0.1462,0.113,0.0693,0.1102,0.0895,0.028,0.0168,0.0112,0.0,0.0,0.0,0.0,0.0,0.0,0.0,0.0,0.0,-0.0112,-0.0617,-0.0842,-0.1121,-0.2179,-0.2514,-0.2738,-0.3357,-0.3471,-0.35,-0.3449,-0.3425,-0.3425,-0.3425,-0.3447,-0.3485,0.0,0.0,0.0,-0.3734,0.0,0.0,0.0,0.0,0.0,0.0,0.0,0.0,0.0,0.0,0.0,0.0,0.0,0.0,0.0,0.0,0.0,0.0,-0.9773,0.0,-1.0003,0.0,-1.0415,-1.0415,-1.0947,-1.1167,-1.1217,-1.1769,-1.2076,-1.2224,-1.2431,-1.2578,-1.2735,-1.2832,-1.2881,-1.2929,-1.3344,-1.38,-1.4258,-1.4525,-1.522,-1.6057,0.7079,0.0,0.0,0.0,0.0,0.7209,0.6667,0.5737,0.5081,0.5062,0.4702,0.4426,0.4426,0.4501,0.4519,0.4519,0.4519,0.0,0.0,0.0,0.0,0.4426,0.4501,0.4505,0.4426,0.4158,0.3931,0.3754,0.3327,0.3049,0.2907,0.2754,0.2712,0.2683,0.0,0.0,0.1836,0.2005,0.0,0.1912,0.1981,0.1563,0.0951,0.0895,0.0504,0.0,0.0,0.0,0.0,0.0,0.0,0.0,0.0,0.0,0.0,-0.0112,-0.0505,-0.0953,-0.1177,-0.1567,-0.2125,-0.2681,-0.285,-0.2956,-0.3445,-0.3553,-0.3553,-0.3553,-0.3591,-0.3558,-0.3607,0.0,0.0,0.0,0.0,0.0,0.0,0.0,0.0,0.0,0.0,0.0,0.0,0.0,0.0,0.0,0.0,0.0,0.0,0.0,0.0,0.0,0.0,0.0,0.0,0.0,0.0,-1.0415,-1.0525,-1.0576,-1.0576,-1.1158,-1.1519,-1.176,-1.2274,-1.2627,-1.2881,-1.2881,-1.2881,-1.2929,-1.2978,-1.3392,-1.3905,-1.4071,-1.4536,-1.522,0.7487,0.0,0.0,0.0,0.0,0.0,0.0,0.6644,0.0,0.5176,0.4669,0.4351,0.4351,0.4419,0.4519,0.4519,0.4519,0.4519,0.4519,0.4519,0.4519,0.4519,0.4519,0.4519,0.4519,0.425,0.4013,0.391,0.3459,0.3164,0.3012,0.2788,0.2712,0.2686,0.0,0.2299,0.0,0.0,0.0,0.2444,0.2695,0.2399,0.1786,0.1285,0.0895,0.0504,0.0112,0.0,0.0,0.0,0.0,0.0,0.0,0.0,0.0,0.0,-0.0224,-0.0505,-0.0842,-0.1121,-0.1456,-0.2069,-0.2235,-0.2291,-0.2573,-0.2907,-0.313,-0.313,-0.3357,-0.3602,-0.3587,-0.3711,0.0,0.0,0.0,0.0,0.0,0.0,-0.4122,0.0,0.0,0.0,0.0,0.0,0.0,0.0,0.0,0.0,0.0,0.0,0.0,0.0,0.0,0.0,0.0,0.0,0.0,-0.9562,-0.9865,-0.9961,-1.0012,-1.0584,-1.1099,-1.1601,-1.1909,-1.2372,-1.2881,-1.2881,-1.2881,-1.2929,-1.2978,-1.3172,-1.345,-1.361,-1.4201,-1.4994,0.0,0.8004,0.0,0.0,0.8152,0.0,0.7788,0.7408,0.6742,0.5663,0.4865,0.4449,0.4449,0.4446,0.4519,0.4519,0.4519,0.4519,0.4519,0.4519,0.4574,0.468,0.468,0.4736,0.4846,0.4531,0.4309,0.0,0.3677,0.3331,0.3073,0.2869,0.2791,0.0,0.0,0.0,0.0,0.0,0.3324,0.3062,0.3473,0.3234,0.2565,0.1842,0.1453,0.1174,0.0504,0.0224,0.0168,0.0056,0.0,0.0,0.0,0.0,0.0,0.0,0.0,-0.0112,-0.0561,-0.0729,-0.0841,-0.1455,-0.1623,-0.1623,-0.179,-0.2179,-0.2514,-0.2514,-0.2963,-0.3434,-0.3422,-0.3554,0.0,0.0,0.0,0.0,0.0,0.0,0.0,0.0,0.0,0.0,0.0,0.0,0.0,0.0,0.0,0.0,-0.5147,-0.5522,0.0,0.0,0.0,-0.7996,-0.7829,0.0,-0.8804,0.0,-0.9211,-0.9517,-0.9614,-1.0167,-1.083,-1.161,-1.176,-1.2215,-1.2881,-1.2881,-1.2881,-1.2929,-1.3027,-1.3075,-1.3162,-1.3276,-1.3884,-1.472,0.0,0.0,0.0,0.0,0.0,0.0,0.745,0.7289,0.7176,0.6945,0.5905,0.5202,0.5202,0.478,0.4519,0.4519,0.4519,0.4519,0.4519,0.4519,0.4736,0.5222,0.5226,0.5496,0.6046,0.5369,0.4897,0.0,0.0,0.3341,0.293,0.3032,0.0,0.0,0.0,0.0,0.0,0.4052,0.4204,0.433,0.4401,0.3901,0.3231,0.3121,0.2623,0.1846,0.123,0.0896,0.0729,0.0168,0.0,0.0,0.0,0.0,0.0,0.0,0.0,0.0,-0.0056,-0.0112,-0.0224,-0.0841,-0.1009,-0.1121,-0.1679,-0.1846,-0.1902,-0.1902,-0.2347,-0.2764,-0.2775,-0.342,-0.3822,0.0,0.0,0.0,0.0,0.0,-0.3306,-0.3597,0.0,0.0,0.0,0.0,0.0,0.0,0.0,0.0,-0.5097,-0.5545,0.0,-0.6251,0.0,-0.7928,-0.7553,-0.837,0.0,-0.8804,-0.8857,-0.9113,-0.9614,-1.0167,-1.083,-1.161,-1.2166,-1.2578,-1.2881,-1.2881,-1.2881,-1.2881,-1.2929,-1.3007,-1.317,-1.3218,-1.3409,-1.3847,0.0,0.0,0.0,0.0,0.0,0.0,0.0,0.8039,0.7937,0.7788,0.6642,0.5823,0.5823,0.5336,0.4952,0.4952,0.468,0.4519,0.4519,0.4519,0.4736,0.5281,0.5277,0.5609,0.6209,0.5909,0.5471,0.0,0.0,0.0,0.0,0.0,0.0,0.0,0.0,0.3873,0.411,0.417,0.4331,0.4519,0.4519,0.4294,0.3956,0.3511,0.3067,0.2679,0.19,0.1623,0.1512,0.1175,0.0616,0.0,0.0,0.0,0.0,0.0,0.0,0.0,0.0,0.0,-0.0056,-0.028,-0.0336,-0.0449,-0.0672,-0.1008,-0.1232,-0.1232,-0.1734,-0.2268,-0.2513,-0.2954,-0.3294,0.0,0.0,0.0,0.0,0.0,0.0,-0.3285,0.0,-0.3124,0.0,0.0,0.0,0.0,0.0,0.0,0.0,0.0,0.0,-0.5633,0.0,-0.7462,-0.7506,-0.8357,-0.8804,-0.8804,-0.8804,-0.9061,-0.9614,-0.9814,-1.0525,-1.1651,-1.2421,-1.2783,-1.2881,-1.2881,-1.2881,-1.2929,-1.2988,-1.3075,-1.3152,-1.3276,-1.36,-1.4035,0.9623,0.0,0.9473,0.0,0.9336,0.9021,0.9028,0.886,0.8677,0.8568,0.7726,0.6949,0.6495,0.5932,0.555,0.555,0.5226,0.5007,0.5007,0.4846,0.5007,0.5555,0.555,0.0,0.6426,0.648,0.6212,0.5629,0.5347,0.0,0.0,0.0,0.0,0.0,0.3924,0.407,0.4311,0.4311,0.4368,0.4519,0.4519,0.4519,0.4463,0.3846,0.3624,0.3458,0.2681,0.2348,0.2293,0.1958,0.1287,0.056,0.056,0.028,0.0056,0.0224,0.0112,0.0,0.0,0.0,0.0,0.0,0.0,0.0,0.0,-0.0336,-0.0617,-0.0617,-0.1112,-0.1643,-0.1976,-0.232,-0.2695,-0.3177,0.0,0.0,0.0,0.0,0.0,0.0,-0.2917,-0.2853,-0.3051,0.0,0.0,0.0,0.0,0.0,0.0,0.0,0.0,0.0,0.0,0.0,0.0,-0.8357,-0.8804,-0.8804,-0.8804,-0.9113,-0.9666,-0.9925,-1.0541,-1.151,-1.2323,-1.2676,-1.2676,-1.2832,-1.2881,-1.2929,-1.2978,-1.3085,-1.3123,-1.3286,-1.361,-1.4035,1.0053,0.988,0.9773,1.006,0.9873,0.9621,0.9512,0.9512,0.9447,0.9311,0.9253,0.8694,0.7242,0.6534,0.6209,0.6209,0.6209,0.6154,0.6154,0.5605,0.555,0.0,0.0,0.648,0.7085,0.7085,0.7019,0.6877,0.0,0.0,0.4675,0.0,0.3951,0.419,0.419,0.4324,0.4515,0.4515,0.4515,0.4519,0.4519,0.4519,0.4519,0.4463,0.4353,0.4135,0.3569,0.3236,0.2963,0.2238,0.2015,0.1959,0.1846,0.0952,0.0112,0.0729,0.0449,0.0,0.0,0.0,0.0,0.0,0.0,0.0,0.0,0.0,0.0,0.0,-0.0491,-0.0906,-0.0905,-0.1601,-0.226,-0.2497,0.0,0.0,0.0,0.0,0.0,-0.3082,-0.2761,-0.2548,-0.2699,0.0,0.0,0.0,0.0,0.0,0.0,0.0,0.0,-0.5189,-0.6263,0.0,-0.7513,-0.8357,-0.8804,-0.8804,-0.8804,-0.9159,-0.9814,-1.0702,-1.1074,-1.1124,-1.1828,-1.2126,-1.2175,-1.2676,-1.2881,-1.2881,-1.2881,-1.2978,-1.3123,-1.318,-1.3314,-1.3552,1.0401,1.0341,1.0314,1.0401,1.0174,0.998,0.992,0.9754,0.957,0.9453,0.9453,0.9208,0.8669,0.7954,0.7306,0.0,0.6613,0.6416,0.0,0.6046,0.6209,0.681,0.681,0.7079,0.7628,0.7628,0.7427,0.7025,0.0,0.0,0.0,0.508,0.4877,0.4931,0.4555,0.4419,0.4519,0.4519,0.4519,0.4519,0.4519,0.4519,0.4519,0.4519,0.4463,0.4356,0.4076,0.391,0.3802,0.3466,0.3016,0.2683,0.3072,0.2291,0.1287,0.1455,0.1064,0.0617,0.0617,0.0336,0.0,0.0,0.0,0.0,0.0,0.0,0.0,0.0,-0.0167,-0.0381,-0.0725,-0.1067,-0.1473,-0.1947,-0.2211,0.0,0.0,0.0,0.0,-0.2745,-0.2829,-0.2927,0.0,-0.2919,0.0,0.0,0.0,0.0,0.0,0.0,0.0,0.0,-0.5961,0.0,-0.7006,-0.8206,-0.8804,-0.8804,-0.8804,-0.9159,-0.9814,-1.0702,-1.1124,-1.1124,-1.136,-1.151,-1.151,-1.166,-1.1968,-1.2323,-1.2323,-1.2676,-1.3123,-1.318,-1.3266,-1.3457,1.0624,1.0624,1.0624,1.0624,1.0408,1.0281,1.0281,1.0127,1.0013,0.99,0.99,0.9794,0.9557,0.9149,0.0,0.8008,0.7643,0.7437,0.7237,0.6925,0.6879,0.7214,0.7128,0.7246,0.7574,0.0,0.0,0.7408,0.7192,0.6918,0.6534,0.5932,0.566,0.5605,0.5062,0.4787,0.4791,0.457,0.4519,0.4519,0.4519,0.4519,0.4519,0.4519,0.4519,0.4463,0.4356,0.4301,0.4301,0.4135,0.3744,0.3352,0.3685,0.3183,0.2406,0.2181,0.1734,0.1232,0.1232,0.0952,0.0616,0.0392,0.0336,0.028,0.0056,0.0,0.0,0.0,0.0,-0.0109,-0.0363,-0.0604,-0.0875,-0.1429,-0.1671,-0.1832,-0.2055,0.0,0.0,0.0,0.0,0.0,0.0,-0.3055,0.0,0.0,0.0,0.0,0.0,0.0,0.0,-0.4437,-0.5701,0.0,-0.6706,-0.7897,-0.8474,-0.8474,-0.8745,-0.9106,-0.951,-1.019,-1.0446,-1.0498,-1.0753,-1.0905,-1.0905,-1.1099,-1.141,-1.1769,-1.2026,-1.2372,-1.2813,-1.3084,-1.3266,-1.3467,1.0624,1.0624,0.0,0.0,1.0624,0.0,1.0624,1.0624,1.0624,1.0624,1.0624,1.0454,1.0004,1.0145,1.0086,0.9427,0.0,0.0,0.0,0.8098,0.7626,0.757,0.7356,0.7182,0.716,0.7657,0.7919,0.7901,0.7408,0.7139,0.7139,0.6534,0.6263,0.6263,0.5609,0.5391,0.5332,0.4791,0.4574,0.4574,0.4519,0.4519,0.4519,0.4519,0.4519,0.4519,0.4519,0.4519,0.4463,0.4301,0.4138,0.3965,0.3852,0.3744,0.3524,0.2905,0.2347,0.1846,0.1846,0.1846,0.1679,0.1121,0.0954,0.0729,0.0168,0.0056,0.0,0.0,0.0,0.0,0.0,-0.0201,-0.0527,-0.1001,-0.1197,-0.1478,-0.1921,0.0,0.0,0.0,0.0,0.0,0.0,-0.3198,-0.3281,0.0,0.0,0.0,0.0,0.0,-0.4197,-0.4947,-0.5434,-0.6007,-0.6524,-0.743,-0.7871,-0.7925,-0.8633,-0.8956,-0.9008,-0.9263,-0.9413,-0.9413,-1.0087,-1.0344,-1.0395,-1.0897,-1.115,-1.1259,-1.1819,-1.2116,-1.2353,-1.2977,-1.3266,-1.3515,0.0,0.0,1.0624,1.0624,1.0624,1.0624,1.0624,1.0624,1.0624,1.0624,1.0624,1.0534,1.0468,1.0521,1.0438,1.0299,0.9842,0.9389,0.9045,0.8795,0.8579,0.8404,0.8352,0.8228,0.8034,0.814,0.8099,0.7901,0.7788,0.7687,0.7681,0.7139,0.6864,0.6864,0.6263,0.5991,0.5937,0.5336,0.5117,0.5062,0.468,0.4519,0.4519,0.4519,0.4519,0.4519,0.4519,0.4519,0.4519,0.4463,0.4301,0.4138,0.4021,0.3855,0.3688,0.3469,0.2963,0.2514,0.2514,0.2124,0.179,0.1623,0.1232,0.0842,0.0729,0.0336,0.0,0.0,0.0,-0.0055,-0.016,-0.0205,-0.0345,-0.0672,-0.0738,-0.0808,-0.0987,-0.1332,0.0,0.0,-0.1964,-0.2382,-0.2899,-0.2971,-0.3162,0.0,0.0,0.0,0.0,0.0,-0.4376,-0.4447,-0.5383,-0.591,-0.6061,-0.6855,-0.7503,-0.7925,-0.819,-0.8567,-0.9008,-0.9263,-0.9413,-0.9413,-0.9666,-0.9769,-0.9821,-0.9925,-1.0482,-1.12,-1.136,-1.2017,-1.292,-1.3132,-1.3266,-1.342,1.1115,1.0996,1.0933,1.0624,1.0624,1.0624,1.0624,1.0624,1.0624,1.0624,1.0624,1.0624,1.0624,1.0624,1.0624,1.0624,1.0233,0.9884,0.9602,0.9348,0.9153,0.9034,0.88,0.8615,0.8471,0.8351,0.8165,0.7901,0.7901,0.7901,0.7901,0.7628,0.7467,0.7461,0.6864,0.6698,0.6739,0.6123,0.5901,0.5845,0.5286,0.4964,0.4846,0.4574,0.4519,0.4519,0.4519,0.4519,0.4519,0.4519,0.4356,0.4193,0.4135,0.4021,0.3855,0.3802,0.3469,0.313,0.313,0.2852,0.2573,0.2291,0.1734,0.1288,0.1288,0.0841,0.0393,0.0393,0.0168,0.0,-0.0109,-0.0209,-0.0351,-0.0491,-0.0561,-0.0629,-0.0674,-0.0898,0.0,-0.1389,-0.1638,-0.2024,-0.2525,-0.2848,-0.3114,-0.3394,0.0,0.0,-0.4245,-0.4497,-0.4654,-0.452,-0.5181,-0.5588,-0.5628,-0.6323,-0.7074,-0.7925,-0.7972,-0.8355,-0.9008,-0.9211,-0.9361,-0.9413,-0.9562,-0.9614,-0.9614,-0.9614,-0.9925,-1.0482,-1.0753,-1.1501,-1.2442,-1.2716,-1.3112,-1.3515,1.1787,1.1663,1.1483,1.087,1.0744,1.0681,1.0624,1.0624,1.0624,1.0624,1.0624,1.0624,1.0624,1.0624,1.0624,1.0624,1.0428,1.0308,1.0301,0.9818,0.9494,0.9494,0.9095,0.8901,0.8859,0.8598,0.8354,0.8124,0.8069,0.8075,0.8075,0.8021,0.8015,0.8021,0.752,0.7467,0.7654,0.7021,0.6788,0.673,0.6156,0.577,0.5469,0.4916,0.4752,0.4692,0.456,0.4608,0.4661,0.4525,0.4463,0.4356,0.4249,0.4135,0.4024,0.4024,0.3802,0.3638,0.3638,0.3638,0.3471,0.2961,0.2402,0.1956,0.1956,0.1456,0.1009,0.1009,0.0561,0.0112,0.0112,-0.0159,-0.0403,-0.0403,-0.0568,-0.0674,-0.0719,0.0,-0.0856,-0.1266,-0.1353,-0.1575,-0.2062,-0.2567,-0.2923,-0.2991,-0.3701,0.0,0.0,-0.4706,-0.4876,-0.4799,-0.5023,-0.5198,-0.5297,-0.5887,-0.6745,-0.7765,-0.7871,-0.8302,-0.9008,-0.9159,-0.9309,-0.9413,-0.9562,-0.9614,-0.9614,-0.9614,-0.9666,-0.9769,-1.0293,-1.0939,-1.1674,-1.2267,-1.2871,-1.3478,1.2451,1.2328,1.2151,1.1483,1.1358,1.1178,1.0688,1.0624,1.0624,1.0624,1.0624,1.0624,1.0624,1.0624,1.0624,1.0624,1.0561,1.0498,1.0308,1.0199,1.011,0.992,0.9813,0.9749,0.9522,0.929,0.9118,0.908,0.8907,0.8844,0.8844,0.867,0.8561,0.8555,0.8497,0.8463,0.8498,0.7902,0.7725,0.7667,0.7067,0.6752,0.6665,0.6024,0.5791,0.5652,0.493,0.4998,0.5315,0.4727,0.4791,0.5011,0.4411,0.4193,0.4138,0.4024,0.391,0.3744,0.3744,0.3691,0.3583,0.3471,0.3019,0.2569,0.2569,0.2069,0.1679,0.1679,0.1176,0.0729,0.0617,0.0159,-0.0302,-0.0554,-0.0568,-0.0584,-0.0674,0.0,-0.0729,-0.0896,-0.0904,-0.1112,-0.1546,-0.1709,-0.1992,-0.2525,-0.3263,-0.3678,-0.3623,-0.4556,-0.5004,-0.488,-0.516,-0.5269,-0.5297,-0.5887,-0.6534,-0.7241,-0.7818,-0.8402,-0.9008,-0.9263,-0.9361,-0.9413,-0.9562,-0.9614,-0.9614,-0.9614,-0.9873,-1.0293,-1.0667,-1.1167,-1.1769,-1.2461,-1.2803,-1.2997,1.3191,1.294,1.2696,1.2151,1.1849,1.1545,1.1178,1.1052,1.0996,1.0624,1.0624,1.0624,1.0624,1.0624,1.0624,1.0624,1.0624,1.0561,1.0498,1.0371,1.0238,1.0174,1.0047,0.992,0.9714,0.9573,0.9426,0.9324,0.9201,0.9084,0.8968,0.8909,0.8798,0.8681,0.8681,0.8753,0.8884,0.8638,0.8517,0.8517,0.7912,0.7592,0.7418,0.6763,0.6524,0.6455,0.566,0.5748,0.605,0.5341,0.5417,0.5719,0.5391,0.5066,0.4791,0.4736,0.4294,0.3796,0.3688,0.3638,0.3585,0.3585,0.3413,0.3188,0.3188,0.2738,0.2291,0.2291,0.179,0.1288,0.0897,0.0538,0.0104,-0.0416,-0.0489,0.0,0.0,-0.0744,-0.0749,-0.081,-0.0842,-0.0919,-0.1141,-0.148,-0.1774,-0.2075,-0.2728,-0.3271,-0.365,-0.4197,-0.4645,-0.5008,-0.5198,-0.5297,-0.5297,-0.5567,-0.6,-0.6647,-0.7069,-0.7658,-0.8309,-0.883,-0.9099,-0.9211,-0.9465,-0.9614,-0.9614,-0.9614,-0.9718,-0.9984,-1.03,-1.0812,-1.141,-1.2089,-1.2589,-1.2977,1.3821,1.3631,1.3312,1.2818,1.2458,1.2151,1.1787,1.1608,1.1365,1.1108,1.0807,1.0624,1.0807,1.0807,1.0807,1.0807,1.0807,1.0807,1.0807,1.0555,1.0371,1.0371,1.0244,1.0077,0.9933,0.9927,0.981,0.9577,0.9577,0.9458,0.9285,0.9279,0.916,0.8986,0.8986,0.9035,0.9222,0.9228,0.9228,0.916,0.8799,0.8494,0.8193,0.7572,0.733,0.7264,0.6554,0.6561,0.6818,0.6094,0.6135,0.6494,0.6277,0.5878,0.5496,0.5332,0.4622,0.3855,0.3691,0.3638,0.3638,0.3638,0.3638,0.3585,0.3638,0.3244,0.2905,0.2905,0.2404,0.1846,0.14,0.1144,0.0692,-0.0053,0.0,0.0,0.0,-0.0823,-0.0826,-0.0834,-0.0876,-0.0908,-0.0915,-0.1324,-0.1567,-0.1567,-0.2181,-0.285,-0.3408,-0.3735,-0.4233,-0.4849,-0.5132,-0.5297,-0.5297,-0.5458,-0.5727,-0.6209,-0.6588,-0.7074,-0.7723,-0.8302,-0.8679,-0.8903,-0.9204,-0.9354,-0.9465,-0.9465,-0.951,-0.9614,-0.9991,-1.0403,-1.1006,-1.1783,-1.2423,-1.2929,1.4455,1.4387,1.4198,1.3571,1.3381,1.3199,1.2512,1.1911,1.1732,1.2266,1.1351,1.0807,1.1365,1.1421,1.1421,1.1421,1.1421,1.1421,1.1421,1.087,1.0561,1.0561,1.0561,1.0555,1.0528,1.0528,1.0514,1.0494,1.0305,1.0242,1.0179,0.9983,0.9863,0.9742,0.9742,0.9627,0.9454,0.9646,0.9646,0.9454,0.9646,0.957,0.9296,0.8634,0.8372,0.8276,0.7433,0.7479,0.7833,0.6876,0.6904,0.7253,0.6435,0.6154,0.6046,0.5441,0.4791,0.4135,0.3855,0.3796,0.3796,0.3796,0.3691,0.3638,0.3744,0.3635,0.3527,0.3527,0.3074,0.2625,0.2569,0.212,0.1435,0.0585,0.0,0.0,-0.0703,-0.0804,-0.0814,-0.0895,-0.0902,-0.0918,-0.0892,-0.0952,-0.0953,-0.0953,-0.1736,-0.2238,-0.2296,-0.3294,-0.3907,-0.4079,-0.4853,-0.5297,-0.5297,-0.5837,-0.6154,-0.6209,-0.6912,-0.7396,-0.7723,-0.7877,-0.8143,-0.8421,-0.8474,-0.8685,-0.9061,-0.9061,-0.9263,-0.9666,-1.0257,-1.047,-1.0667,-1.1977,-1.2471,-1.2618,1.4506,1.4515,1.4446,1.4139,1.413,1.3881,1.3199,1.2895,1.2712,1.2512,1.2081,1.1841,1.2089,1.2151,1.2151,1.2151,1.2151,1.1965,1.1545,1.1303,1.0996,1.0624,1.0624,1.0624,1.0624,1.0624,1.0624,1.0624,1.0498,1.0434,1.0301,1.0244,1.011,0.9926,0.9926,0.9862,0.9798,0.9862,0.9862,0.9798,0.9798,0.974,0.9676,0.928,0.9151,0.9005,0.826,0.8321,0.8606,0.7804,0.7735,0.7931,0.7605,0.7143,0.6588,0.5609,0.5117,0.4736,0.419,0.3965,0.391,0.391,0.3913,0.3858,0.3799,0.3744,0.3691,0.3638,0.3413,0.313,0.2792,0.2487,0.2083,0.1317,0.0,0.0365,-0.0052,-0.0522,-0.0892,-0.0904,-0.0923,-0.0885,-0.0896,-0.0898,-0.0898,-0.0898,-0.1233,-0.1624,-0.2183,-0.3239,-0.3852,-0.4021,-0.4301,-0.4632,-0.4912,-0.5403,-0.5622,-0.5673,-0.6114,-0.6485,-0.6799,-0.7283,-0.7664,-0.799,-0.8262,-0.8474,-0.8639,-0.8903,-0.9106,-0.9316,-0.9947,-1.0205,-1.0308,-1.1469,-1.1877,-1.2017,1.4684,1.4625,1.4556,1.4556,1.4506,1.4327,1.3881,1.364,1.339,1.3139,1.2757,1.2573,1.2818,1.2818,1.2818,1.2818,1.2818,1.2642,1.2158,1.1911,1.1421,1.0624,1.0624,1.0624,1.0624,1.0624,1.0624,1.0624,1.0624,1.0561,1.0371,1.0371,1.0301,1.011,1.011,1.0047,0.9983,1.0047,1.0047,0.9983,0.9989,0.9926,0.9868,0.9676,0.9612,0.9542,0.9017,0.8966,0.9122,0.8601,0.8466,0.8507,0.8339,0.7775,0.6923,0.61,0.5714,0.55,0.4959,0.4625,0.4349,0.4132,0.4024,0.3965,0.391,0.3852,0.3796,0.3691,0.3638,0.3471,0.3074,0.2963,0.2738,0.2012,0.1481,0.0972,0.0541,-0.0108,-0.0595,-0.065,-0.0829,-0.0898,-0.0898,-0.0898,-0.0898,-0.0898,-0.0954,-0.1345,-0.2183,-0.2907,-0.3408,-0.3577,-0.3744,-0.3968,-0.4301,-0.4857,-0.5132,-0.5132,-0.5572,-0.595,-0.6209,-0.6858,-0.7241,-0.7509,-0.799,-0.8262,-0.8421,-0.885,-0.9061,-0.9263,-0.9792,-1.0051,-1.0257,-1.1175,-1.1569,-1.1769,1.497,1.4843,1.4715,1.4715,1.4616,1.4515,1.4515,1.3941,1.3761,1.4387,1.3321,1.2757,1.345,1.3511,1.3511,1.3511,1.3511,1.3511,1.3511,1.2879,1.1965,1.0688,1.0624,1.0624,1.0624,1.0624,1.0624,1.0624,1.0624,1.0624,1.0624,1.0624,1.0498,1.0301,1.0301,1.018,1.0047,1.0244,1.018,1.0047,1.0244,1.0174,0.9989,0.9862,0.9804,0.9804,0.9548,0.9484,0.9442,0.916,0.9132,0.9035,0.8453,0.7775,0.7085,0.7085,0.6701,0.6209,0.6209,0.5773,0.5117,0.4411,0.4079,0.4024,0.4193,0.3965,0.3796,0.3796,0.3691,0.3585,0.3585,0.3585,0.3357,0.2625,0.2512,0.212,0.1061,0.0503,0.0112,-0.0168,-0.0617,-0.0898,-0.0898,-0.0898,-0.0898,-0.0898,-0.1122,-0.157,-0.2183,-0.2184,-0.2352,-0.2691,-0.3137,-0.3413,-0.3413,-0.4245,-0.4688,-0.4691,-0.5462,-0.595,-0.6209,-0.6539,-0.6864,-0.7139,-0.7509,-0.7943,-0.8421,-0.885,-0.9211,-0.9614,-0.9888,-1.0205,-1.0573,-1.1226,-1.1678,-1.2017,1.5029,1.5029,1.5029,1.4911,1.4852,1.4793,1.4666,1.4478,1.4359,1.4506,1.4139,1.401,1.4198,1.4198,1.4198,1.4198,1.4198,1.401,1.3511,1.2879,1.2328,1.1965,1.1476,1.1052,1.0624,1.0624,1.0624,1.0624,1.0624,1.0624,1.0624,1.0624,1.0561,1.0498,1.0498,1.0498,1.0434,1.0498,1.0498,1.0428,1.0308,1.0238,1.018,0.9983,0.9862,0.9804,0.974,0.9612,0.9472,0.9388,0.9232,0.9071,0.8669,0.8267,0.7888,0.7494,0.7099,0.6756,0.6317,0.6046,0.5773,0.5117,0.468,0.4298,0.4249,0.4079,0.391,0.3796,0.3691,0.3585,0.3585,0.3585,0.3527,0.3302,0.285,0.24,0.2065,0.1396,0.0894,0.0615,0.0447,0.0168,-0.0336,-0.0393,-0.0561,-0.0898,-0.1122,-0.1402,-0.157,-0.1961,-0.224,-0.2352,-0.2689,-0.2914,-0.2914,-0.3747,-0.419,-0.419,-0.4743,-0.5289,-0.5764,-0.615,-0.6647,-0.7085,-0.7246,-0.7509,-0.7937,-0.8368,-0.8791,-0.9211,-0.9569,-0.9888,-1.0205,-1.0616,-1.1175,-1.1728,1.5616,1.5571,1.5396,1.5336,1.5143,1.497,1.4843,1.4843,1.4784,1.4616,1.4556,1.4556,1.4506,1.4565,1.4556,1.4515,1.4515,1.4327,1.3941,1.3511,1.3191,1.2887,1.2528,1.1849,1.0996,1.0933,1.0933,1.0933,1.0933,1.1115,1.1358,1.1052,1.0933,1.0933,1.0681,1.0624,1.0624,1.0624,1.0624,1.0561,1.0498,1.0434,1.0371,1.0174,1.0053,0.9989,0.9926,0.9734,0.9612,0.9612,0.9424,0.9163,0.8939,0.8709,0.8498,0.8092,0.7801,0.7499,0.7104,0.6817,0.648,0.61,0.5391,0.4736,0.4411,0.4353,0.4346,0.3962,0.3965,0.3968,0.3638,0.3585,0.3585,0.3585,0.3244,0.2905,0.2736,0.2178,0.162,0.1229,0.1006,0.0671,0.0112,0.0056,-0.0168,-0.0617,-0.0954,-0.1178,-0.1291,-0.1625,-0.1961,-0.2184,-0.2408,-0.2577,-0.2691,-0.3246,-0.358,-0.3747,-0.4353,-0.4794,-0.5167,-0.5823,-0.6312,-0.6696,-0.7133,-0.7456,-0.7723,-0.8209,-0.8527,-0.8798,-0.9211,-0.9517,-0.9836,-1.0308,-1.082,-1.1377,1.6713,1.6253,1.584,1.5879,1.5393,1.5039,1.5086,1.5058,1.497,1.4775,1.4715,1.4675,1.4621,1.4721,1.4731,1.4667,1.4648,1.4561,1.4561,1.4533,1.4258,1.3631,1.3606,1.305,1.1732,1.1608,1.1608,1.1608,1.1608,1.1911,1.2512,1.1911,1.1608,1.1545,1.0926,1.0681,1.0688,1.0624,1.0624,1.0688,1.0624,1.0624,1.0618,1.0434,1.0301,1.0308,1.011,0.9926,0.9804,0.9804,0.9624,0.9408,0.9223,0.9101,0.9005,0.8828,0.8582,0.8321,0.8297,0.7781,0.7166,0.7144,0.6263,0.5336,0.4791,0.4948,0.4999,0.4294,0.4457,0.4512,0.3802,0.3638,0.3585,0.3585,0.3585,0.3471,0.3188,0.285,0.24,0.1789,0.1342,0.0895,0.0561,0.0449,0.0224,-0.0112,-0.0561,-0.0954,-0.1178,-0.129,-0.157,-0.2128,-0.2183,-0.2352,-0.2635,-0.2691,-0.2914,-0.3357,-0.4076,-0.4463,-0.4515,-0.5546,-0.5982,-0.6091,-0.7128,-0.7616,-0.7723,-0.8156,-0.8368,-0.8427,-0.8798,-0.9106,-0.9465,-1.0146,-1.0616,-1.1065,1.7513,1.6737,1.6111,1.6461,1.5817,1.5361,1.5587,1.5358,1.5098,1.497,1.4911,1.5034,1.5355,1.5383,1.5515,1.5836,1.551,1.5331,1.52,1.4842,1.4547,1.4258,1.4617,1.4189,1.3086,1.2581,1.2266,1.2266,1.2266,1.2389,1.2512,1.2328,1.2266,1.2266,1.16,1.1303,1.1303,1.0807,1.087,1.124,1.0807,1.087,1.124,1.0744,1.0428,1.0301,1.0244,1.011,0.9989,0.9989,0.9945,0.9888,0.9832,0.9575,0.9284,0.9284,0.8979,0.8549,0.8345,0.8187,0.7877,0.7236,0.6918,0.6534,0.5991,0.5819,0.571,0.534,0.4952,0.4563,0.4125,0.3802,0.3585,0.3585,0.3585,0.3583,0.3527,0.3413,0.3188,0.2796,0.2517,0.2071,0.1399,0.0784,0.0336,0.028,-0.0112,-0.0393,-0.0449,-0.101,-0.1346,-0.1514,-0.1961,-0.224,-0.2296,-0.2577,-0.2747,-0.2858,-0.3688,-0.4242,-0.4515,-0.5454,-0.5946,-0.6204,-0.6696,-0.7079,-0.7396,-0.7723,-0.8043,-0.8427,-0.848,-0.8784,-0.9138,-0.9718,-1.0379,-1.1174,1.8881,1.8218,1.7668,1.7557,1.6779,1.6138,1.5974,1.5759,1.5563,1.5384,1.5565,1.5766,1.5851,1.5942,1.609,1.631,1.6065,1.5817,1.5701,1.5548,1.5303,1.5074,1.5455,1.5339,1.4693,1.4363,1.38,1.3009,1.3009,1.313,1.345,1.313,1.3099,1.3256,1.2586,1.2089,1.1772,1.1454,1.1375,1.1483,1.1178,1.124,1.149,1.1178,1.0807,1.0428,1.0428,1.0308,1.0117,1.0047,1.0047,1.0117,1.0047,0.9945,0.9824,0.9637,0.9315,0.8926,0.8601,0.8381,0.8169,0.7637,0.7461,0.7246,0.6372,0.6367,0.6367,0.5882,0.5769,0.5487,0.4618,0.4291,0.4021,0.3638,0.3585,0.3585,0.3585,0.3585,0.3471,0.313,0.2965,0.2631,0.1959,0.1343,0.0896,0.0729,0.0336,0.0112,0.0112,-0.028,-0.0673,-0.101,-0.1455,-0.1846,-0.2184,-0.224,-0.241,-0.2691,-0.3135,-0.3469,-0.3688,-0.4684,-0.5234,-0.5445,-0.6154,-0.6696,-0.702,-0.7187,-0.7456,-0.7783,-0.8043,-0.8302,-0.8554,-0.9249,-1.0167,-1.1216,2.0213,1.9766,1.9271,1.8796,1.7843,1.708,1.6566,1.6343,1.6111,1.6007,1.6316,1.6494,1.6424,1.6638,1.6751,1.6751,1.6546,1.6315,1.6205,1.6239,1.6128,1.5817,1.6139,1.6213,1.6028,1.6103,1.5404,1.3848,1.3848,1.4109,1.4616,1.4109,1.4047,1.4342,1.3653,1.3075,1.255,1.242,1.2232,1.1932,1.1814,1.1784,1.1856,1.1732,1.1303,1.0744,1.0744,1.0618,1.0491,1.0174,1.0301,1.0491,1.0174,1.018,1.0244,0.9989,0.9693,0.9389,0.8932,0.8613,0.8291,0.8033,0.7931,0.7628,0.6696,0.6864,0.7025,0.6416,0.6578,0.6475,0.5167,0.4838,0.4567,0.3802,0.3694,0.3694,0.3585,0.3585,0.3471,0.3244,0.313,0.2907,0.2352,0.1958,0.1567,0.129,0.0785,0.0505,0.0505,0.0449,0.0112,-0.0505,-0.0784,-0.123,-0.1847,-0.1734,-0.1902,-0.2408,-0.2408,-0.2521,-0.2858,-0.391,-0.4408,-0.4515,-0.5605,-0.6263,-0.6539,-0.6701,-0.6923,-0.7133,-0.761,-0.7765,-0.7931,-0.889,-1.002,-1.1275,2.0921,2.0147,1.9506,1.9803,1.8648,1.7812,1.807,1.7246,1.6641,1.6578,1.6626,1.6811,1.7191,1.7551,1.7774,1.7774,1.7434,1.7154,1.6938,1.6667,1.6329,1.6128,1.6561,1.659,1.6201,1.658,1.6224,1.5124,1.5286,1.5286,1.5029,1.5305,1.5423,1.5469,1.4759,1.4433,1.4294,1.3761,1.3615,1.3731,1.3108,1.3048,1.3139,1.2581,1.1965,1.1358,1.1358,1.1358,1.1233,1.0681,1.087,1.124,1.0681,1.0434,1.0301,1.0244,1.0028,0.968,0.9395,0.9003,0.8561,0.8303,0.8069,0.7848,0.7681,0.7735,0.7681,0.7354,0.7074,0.6696,0.5941,0.55,0.5003,0.4233,0.4125,0.4018,0.3638,0.3585,0.3583,0.3527,0.3299,0.2965,0.2689,0.2296,0.2127,0.2071,0.1401,0.101,0.101,0.0617,0.0336,0.028,-0.0112,-0.0392,-0.0449,-0.0839,-0.1062,-0.1118,-0.1118,-0.19,-0.3302,-0.3858,-0.4128,-0.4288,-0.5273,-0.5769,-0.5991,-0.6756,-0.7085,-0.7085,-0.7192,-0.7354,-0.7729,-0.904,-1.0285,-1.141,2.1726,2.1288,2.0882,2.0707,1.9905,1.9208,1.8965,1.8512,1.8071,1.7711,1.7859,1.7895,1.7772,1.79,1.8008,1.8008,1.7842,1.7658,1.7437,1.734,1.7243,1.6968,1.7293,1.7369,1.7016,1.7216,1.7016,1.6341,1.6038,1.5807,1.5577,1.5679,1.5873,1.6159,1.5773,1.5424,1.5207,1.474,1.4529,1.4384,1.4126,1.4034,1.4119,1.3576,1.3002,1.2357,1.2158,1.2089,1.2027,1.1717,1.16,1.1421,1.1178,1.0807,1.0491,1.0807,1.0491,1.0053,0.9991,0.9411,0.8789,0.8413,0.8093,0.7901,0.7901,0.7901,0.7848,0.7741,0.7574,0.7241,0.6642,0.6204,0.5655,0.4948,0.4673,0.4457,0.4018,0.4187,0.4353,0.4353,0.3962,0.3627,0.3355,0.28,0.2408,0.224,0.1738,0.1515,0.1515,0.1291,0.1066,0.0785,0.0393,0.0,-0.0224,-0.0336,-0.0559,-0.0894,-0.0559,-0.1119,-0.2517,-0.2961,-0.3405,-0.3796,-0.4508,-0.5164,-0.5714,-0.6209,-0.6647,-0.7085,-0.7198,-0.7574,-0.8203,-0.9145,-1.0035,-1.0956]}]]